<?xml version="1.0" encoding="UTF-8" standalone="no" ?>
<gpx xmlns="http://www.topografix.com/GPX/1/1" xmlns:xsi="http://www.w3.org/2001/XMLSchema-instance" xsi:schemaLocation="http://www.topografix.com/GPX/1/1 http://www.topografix.com/GPX/1/1/gpx.xsd" version="1.1" creator="VisuGPX - https://www.visugpx.com">
  <metadata>
    <name>2024-06-09  Randonnée TwoNav</name>
    <desc><![CDATA[2024-06-09_111410.trk]]></desc>
  </metadata>
  <trk>
    <name><![CDATA[2024-06-09  Randonnée TwoNav_1]]></name>
    <trkseg>
      <trkpt lat="48.19327" lon="6.51552">
        <ele>371.5</ele>
        <time>2024-06-09T09:14:10Z</time>
      </trkpt>
      <trkpt lat="48.19327" lon="6.51552">
        <ele>371.5</ele>
        <time>2024-06-09T09:14:10Z</time>
      </trkpt>
      <trkpt lat="48.19327" lon="6.51551">
        <ele>371.5</ele>
        <time>2024-06-09T09:14:11Z</time>
      </trkpt>
      <trkpt lat="48.19332" lon="6.51539">
        <ele>371.8</ele>
        <time>2024-06-09T09:14:19Z</time>
      </trkpt>
      <trkpt lat="48.19334" lon="6.51524">
        <ele>372.1</ele>
        <time>2024-06-09T09:14:26Z</time>
      </trkpt>
      <trkpt lat="48.19341" lon="6.51513">
        <ele>372.4</ele>
        <time>2024-06-09T09:14:33Z</time>
      </trkpt>
      <trkpt lat="48.19341" lon="6.51498">
        <ele>372.8</ele>
        <time>2024-06-09T09:14:40Z</time>
      </trkpt>
      <trkpt lat="48.19332" lon="6.51492">
        <ele>373.2</ele>
        <time>2024-06-09T09:14:46Z</time>
      </trkpt>
      <trkpt lat="48.19323" lon="6.5149">
        <ele>373.6</ele>
        <time>2024-06-09T09:14:53Z</time>
      </trkpt>
      <trkpt lat="48.19314" lon="6.51486">
        <ele>374.1</ele>
        <time>2024-06-09T09:15:02Z</time>
      </trkpt>
      <trkpt lat="48.19306" lon="6.51478">
        <ele>374.6</ele>
        <time>2024-06-09T09:15:09Z</time>
      </trkpt>
      <trkpt lat="48.19298" lon="6.51471">
        <ele>375.1</ele>
        <time>2024-06-09T09:15:16Z</time>
      </trkpt>
      <trkpt lat="48.1929" lon="6.51466">
        <ele>375.6</ele>
        <time>2024-06-09T09:15:23Z</time>
      </trkpt>
      <trkpt lat="48.19281" lon="6.5146">
        <ele>376.2</ele>
        <time>2024-06-09T09:15:30Z</time>
      </trkpt>
      <trkpt lat="48.19273" lon="6.51454">
        <ele>376.7</ele>
        <time>2024-06-09T09:15:36Z</time>
      </trkpt>
      <trkpt lat="48.19265" lon="6.51446">
        <ele>377.2</ele>
        <time>2024-06-09T09:15:43Z</time>
      </trkpt>
      <trkpt lat="48.19256" lon="6.51439">
        <ele>377.6</ele>
        <time>2024-06-09T09:15:51Z</time>
      </trkpt>
      <trkpt lat="48.19247" lon="6.51433">
        <ele>378.1</ele>
        <time>2024-06-09T09:15:59Z</time>
      </trkpt>
      <trkpt lat="48.19239" lon="6.51424">
        <ele>378.5</ele>
        <time>2024-06-09T09:16:06Z</time>
      </trkpt>
      <trkpt lat="48.19232" lon="6.51416">
        <ele>378.8</ele>
        <time>2024-06-09T09:16:12Z</time>
      </trkpt>
      <trkpt lat="48.19224" lon="6.51409">
        <ele>379.1</ele>
        <time>2024-06-09T09:16:19Z</time>
      </trkpt>
      <trkpt lat="48.19216" lon="6.51402">
        <ele>379.5</ele>
        <time>2024-06-09T09:16:27Z</time>
      </trkpt>
      <trkpt lat="48.19207" lon="6.51395">
        <ele>379.8</ele>
        <time>2024-06-09T09:16:34Z</time>
      </trkpt>
      <trkpt lat="48.192" lon="6.51386">
        <ele>380.2</ele>
        <time>2024-06-09T09:16:41Z</time>
      </trkpt>
      <trkpt lat="48.19192" lon="6.51378">
        <ele>380.5</ele>
        <time>2024-06-09T09:16:48Z</time>
      </trkpt>
      <trkpt lat="48.19184" lon="6.5137">
        <ele>380.9</ele>
        <time>2024-06-09T09:16:55Z</time>
      </trkpt>
      <trkpt lat="48.19175" lon="6.51362">
        <ele>381.2</ele>
        <time>2024-06-09T09:17:02Z</time>
      </trkpt>
      <trkpt lat="48.19167" lon="6.51355">
        <ele>381.5</ele>
        <time>2024-06-09T09:17:09Z</time>
      </trkpt>
      <trkpt lat="48.19158" lon="6.51347">
        <ele>381.8</ele>
        <time>2024-06-09T09:17:17Z</time>
      </trkpt>
      <trkpt lat="48.19149" lon="6.51342">
        <ele>382.1</ele>
        <time>2024-06-09T09:17:23Z</time>
      </trkpt>
      <trkpt lat="48.1914" lon="6.51336">
        <ele>382.4</ele>
        <time>2024-06-09T09:17:30Z</time>
      </trkpt>
      <trkpt lat="48.19132" lon="6.51331">
        <ele>382.6</ele>
        <time>2024-06-09T09:17:36Z</time>
      </trkpt>
      <trkpt lat="48.19122" lon="6.51328">
        <ele>382.8</ele>
        <time>2024-06-09T09:17:43Z</time>
      </trkpt>
      <trkpt lat="48.19113" lon="6.51324">
        <ele>382.9</ele>
        <time>2024-06-09T09:17:50Z</time>
      </trkpt>
      <trkpt lat="48.19105" lon="6.51319">
        <ele>383</ele>
        <time>2024-06-09T09:17:57Z</time>
      </trkpt>
      <trkpt lat="48.19095" lon="6.51317">
        <ele>383.2</ele>
        <time>2024-06-09T09:18:04Z</time>
      </trkpt>
      <trkpt lat="48.19085" lon="6.51315">
        <ele>383.3</ele>
        <time>2024-06-09T09:18:12Z</time>
      </trkpt>
      <trkpt lat="48.19076" lon="6.51312">
        <ele>383.4</ele>
        <time>2024-06-09T09:18:19Z</time>
      </trkpt>
      <trkpt lat="48.19067" lon="6.51307">
        <ele>383.4</ele>
        <time>2024-06-09T09:18:27Z</time>
      </trkpt>
      <trkpt lat="48.19057" lon="6.51303">
        <ele>383.3</ele>
        <time>2024-06-09T09:18:35Z</time>
      </trkpt>
      <trkpt lat="48.19048" lon="6.513">
        <ele>383.2</ele>
        <time>2024-06-09T09:18:42Z</time>
      </trkpt>
      <trkpt lat="48.19039" lon="6.51301">
        <ele>383.2</ele>
        <time>2024-06-09T09:18:49Z</time>
      </trkpt>
      <trkpt lat="48.19029" lon="6.51306">
        <ele>383.1</ele>
        <time>2024-06-09T09:18:56Z</time>
      </trkpt>
      <trkpt lat="48.19021" lon="6.51315">
        <ele>383.1</ele>
        <time>2024-06-09T09:19:04Z</time>
      </trkpt>
      <trkpt lat="48.19013" lon="6.51324">
        <ele>383.1</ele>
        <time>2024-06-09T09:19:12Z</time>
      </trkpt>
      <trkpt lat="48.19004" lon="6.51332">
        <ele>383.2</ele>
        <time>2024-06-09T09:19:20Z</time>
      </trkpt>
      <trkpt lat="48.18998" lon="6.51343">
        <ele>383.2</ele>
        <time>2024-06-09T09:19:28Z</time>
      </trkpt>
      <trkpt lat="48.18992" lon="6.51354">
        <ele>383.2</ele>
        <time>2024-06-09T09:19:35Z</time>
      </trkpt>
      <trkpt lat="48.18986" lon="6.51365">
        <ele>383.3</ele>
        <time>2024-06-09T09:19:41Z</time>
      </trkpt>
      <trkpt lat="48.18978" lon="6.51373">
        <ele>383.4</ele>
        <time>2024-06-09T09:19:48Z</time>
      </trkpt>
      <trkpt lat="48.18971" lon="6.51384">
        <ele>383.6</ele>
        <time>2024-06-09T09:19:55Z</time>
      </trkpt>
      <trkpt lat="48.18963" lon="6.51393">
        <ele>383.7</ele>
        <time>2024-06-09T09:20:03Z</time>
      </trkpt>
      <trkpt lat="48.18955" lon="6.51403">
        <ele>384</ele>
        <time>2024-06-09T09:20:11Z</time>
      </trkpt>
      <trkpt lat="48.18946" lon="6.51409">
        <ele>384.2</ele>
        <time>2024-06-09T09:20:18Z</time>
      </trkpt>
      <trkpt lat="48.18939" lon="6.51418">
        <ele>384.4</ele>
        <time>2024-06-09T09:20:25Z</time>
      </trkpt>
      <trkpt lat="48.1893" lon="6.51423">
        <ele>384.7</ele>
        <time>2024-06-09T09:20:32Z</time>
      </trkpt>
      <trkpt lat="48.18921" lon="6.51429">
        <ele>384.9</ele>
        <time>2024-06-09T09:20:40Z</time>
      </trkpt>
      <trkpt lat="48.18912" lon="6.51431">
        <ele>385.2</ele>
        <time>2024-06-09T09:20:47Z</time>
      </trkpt>
      <trkpt lat="48.18902" lon="6.51434">
        <ele>385.5</ele>
        <time>2024-06-09T09:20:54Z</time>
      </trkpt>
      <trkpt lat="48.18894" lon="6.51439">
        <ele>385.9</ele>
        <time>2024-06-09T09:21:01Z</time>
      </trkpt>
      <trkpt lat="48.18884" lon="6.51444">
        <ele>386.3</ele>
        <time>2024-06-09T09:21:09Z</time>
      </trkpt>
      <trkpt lat="48.18875" lon="6.51447">
        <ele>386.9</ele>
        <time>2024-06-09T09:21:17Z</time>
      </trkpt>
      <trkpt lat="48.18866" lon="6.51452">
        <ele>387.6</ele>
        <time>2024-06-09T09:21:25Z</time>
      </trkpt>
      <trkpt lat="48.18859" lon="6.51462">
        <ele>388.3</ele>
        <time>2024-06-09T09:21:38Z</time>
      </trkpt>
      <trkpt lat="48.18851" lon="6.51469">
        <ele>389</ele>
        <time>2024-06-09T09:21:46Z</time>
      </trkpt>
      <trkpt lat="48.18842" lon="6.51477">
        <ele>389.7</ele>
        <time>2024-06-09T09:21:54Z</time>
      </trkpt>
      <trkpt lat="48.18833" lon="6.51484">
        <ele>390.4</ele>
        <time>2024-06-09T09:22:01Z</time>
      </trkpt>
      <trkpt lat="48.18826" lon="6.51493">
        <ele>391</ele>
        <time>2024-06-09T09:22:09Z</time>
      </trkpt>
      <trkpt lat="48.18818" lon="6.51502">
        <ele>391.7</ele>
        <time>2024-06-09T09:22:16Z</time>
      </trkpt>
      <trkpt lat="48.18811" lon="6.51511">
        <ele>392.4</ele>
        <time>2024-06-09T09:22:23Z</time>
      </trkpt>
      <trkpt lat="48.18805" lon="6.51522">
        <ele>393</ele>
        <time>2024-06-09T09:22:31Z</time>
      </trkpt>
      <trkpt lat="48.18796" lon="6.51529">
        <ele>393.6</ele>
        <time>2024-06-09T09:22:38Z</time>
      </trkpt>
      <trkpt lat="48.18788" lon="6.51535">
        <ele>394.1</ele>
        <time>2024-06-09T09:22:46Z</time>
      </trkpt>
      <trkpt lat="48.18781" lon="6.51545">
        <ele>394.6</ele>
        <time>2024-06-09T09:22:54Z</time>
      </trkpt>
      <trkpt lat="48.18773" lon="6.51551">
        <ele>395.2</ele>
        <time>2024-06-09T09:23:01Z</time>
      </trkpt>
      <trkpt lat="48.18766" lon="6.5156">
        <ele>395.8</ele>
        <time>2024-06-09T09:23:07Z</time>
      </trkpt>
      <trkpt lat="48.18757" lon="6.51566">
        <ele>396.6</ele>
        <time>2024-06-09T09:23:15Z</time>
      </trkpt>
      <trkpt lat="48.18754" lon="6.51579">
        <ele>397.4</ele>
        <time>2024-06-09T09:23:22Z</time>
      </trkpt>
      <trkpt lat="48.18747" lon="6.5159">
        <ele>398.2</ele>
        <time>2024-06-09T09:23:30Z</time>
      </trkpt>
      <trkpt lat="48.18739" lon="6.51595">
        <ele>398.7</ele>
        <time>2024-06-09T09:23:35Z</time>
      </trkpt>
      <trkpt lat="48.18731" lon="6.51605">
        <ele>399.2</ele>
        <time>2024-06-09T09:23:43Z</time>
      </trkpt>
      <trkpt lat="48.18728" lon="6.5162">
        <ele>399.5</ele>
        <time>2024-06-09T09:23:50Z</time>
      </trkpt>
      <trkpt lat="48.18724" lon="6.51633">
        <ele>399.8</ele>
        <time>2024-06-09T09:23:57Z</time>
      </trkpt>
      <trkpt lat="48.18719" lon="6.51646">
        <ele>400.1</ele>
        <time>2024-06-09T09:24:06Z</time>
      </trkpt>
      <trkpt lat="48.18716" lon="6.5166">
        <ele>400.5</ele>
        <time>2024-06-09T09:24:14Z</time>
      </trkpt>
      <trkpt lat="48.18711" lon="6.51674">
        <ele>400.9</ele>
        <time>2024-06-09T09:24:22Z</time>
      </trkpt>
      <trkpt lat="48.18701" lon="6.51678">
        <ele>401.4</ele>
        <time>2024-06-09T09:24:30Z</time>
      </trkpt>
      <trkpt lat="48.18692" lon="6.5168">
        <ele>401.8</ele>
        <time>2024-06-09T09:24:38Z</time>
      </trkpt>
      <trkpt lat="48.18684" lon="6.51688">
        <ele>402.3</ele>
        <time>2024-06-09T09:24:47Z</time>
      </trkpt>
      <trkpt lat="48.18677" lon="6.51695">
        <ele>403.5</ele>
        <time>2024-06-09T09:24:54Z</time>
      </trkpt>
      <trkpt lat="48.18667" lon="6.51696">
        <ele>404.7</ele>
        <time>2024-06-09T09:25:02Z</time>
      </trkpt>
      <trkpt lat="48.18667" lon="6.51696">
        <ele>404.8</ele>
        <time>2024-06-09T09:25:04Z</time>
      </trkpt>
      <trkpt lat="48.18667" lon="6.51696">
        <ele>404.9</ele>
        <time>2024-06-09T09:25:05Z</time>
      </trkpt>
      <trkpt lat="48.18667" lon="6.51696">
        <ele>404.9</ele>
        <time>2024-06-09T09:25:06Z</time>
      </trkpt>
      <trkpt lat="48.18666" lon="6.51695">
        <ele>405</ele>
        <time>2024-06-09T09:25:26Z</time>
      </trkpt>
      <trkpt lat="48.18665" lon="6.51696">
        <ele>405.1</ele>
        <time>2024-06-09T09:25:27Z</time>
      </trkpt>
      <trkpt lat="48.18656" lon="6.517">
        <ele>406.3</ele>
        <time>2024-06-09T09:25:36Z</time>
      </trkpt>
      <trkpt lat="48.18647" lon="6.51706">
        <ele>407.5</ele>
        <time>2024-06-09T09:25:46Z</time>
      </trkpt>
      <trkpt lat="48.18637" lon="6.5171">
        <ele>408.5</ele>
        <time>2024-06-09T09:25:53Z</time>
      </trkpt>
      <trkpt lat="48.1863" lon="6.51717">
        <ele>409.4</ele>
        <time>2024-06-09T09:25:59Z</time>
      </trkpt>
      <trkpt lat="48.18622" lon="6.51724">
        <ele>410.3</ele>
        <time>2024-06-09T09:26:07Z</time>
      </trkpt>
      <trkpt lat="48.18613" lon="6.51729">
        <ele>411.2</ele>
        <time>2024-06-09T09:26:14Z</time>
      </trkpt>
      <trkpt lat="48.18604" lon="6.51734">
        <ele>412.1</ele>
        <time>2024-06-09T09:26:23Z</time>
      </trkpt>
      <trkpt lat="48.18595" lon="6.5174">
        <ele>413</ele>
        <time>2024-06-09T09:26:30Z</time>
      </trkpt>
      <trkpt lat="48.18589" lon="6.51751">
        <ele>413.9</ele>
        <time>2024-06-09T09:26:36Z</time>
      </trkpt>
      <trkpt lat="48.18581" lon="6.51757">
        <ele>414.6</ele>
        <time>2024-06-09T09:26:43Z</time>
      </trkpt>
      <trkpt lat="48.18571" lon="6.51764">
        <ele>415.3</ele>
        <time>2024-06-09T09:26:51Z</time>
      </trkpt>
      <trkpt lat="48.18563" lon="6.5177">
        <ele>415.9</ele>
        <time>2024-06-09T09:26:58Z</time>
      </trkpt>
      <trkpt lat="48.18555" lon="6.51778">
        <ele>416.6</ele>
        <time>2024-06-09T09:27:06Z</time>
      </trkpt>
      <trkpt lat="48.18548" lon="6.5179">
        <ele>417.1</ele>
        <time>2024-06-09T09:27:12Z</time>
      </trkpt>
      <trkpt lat="48.18541" lon="6.51799">
        <ele>417.5</ele>
        <time>2024-06-09T09:27:20Z</time>
      </trkpt>
      <trkpt lat="48.18533" lon="6.51807">
        <ele>417.9</ele>
        <time>2024-06-09T09:27:28Z</time>
      </trkpt>
      <trkpt lat="48.18525" lon="6.51815">
        <ele>418.2</ele>
        <time>2024-06-09T09:27:35Z</time>
      </trkpt>
      <trkpt lat="48.18517" lon="6.51823">
        <ele>418.6</ele>
        <time>2024-06-09T09:27:42Z</time>
      </trkpt>
      <trkpt lat="48.18508" lon="6.51831">
        <ele>419</ele>
        <time>2024-06-09T09:27:50Z</time>
      </trkpt>
      <trkpt lat="48.185" lon="6.51841">
        <ele>419.4</ele>
        <time>2024-06-09T09:27:58Z</time>
      </trkpt>
      <trkpt lat="48.18493" lon="6.51848">
        <ele>419.7</ele>
        <time>2024-06-09T09:28:05Z</time>
      </trkpt>
      <trkpt lat="48.18485" lon="6.51856">
        <ele>420</ele>
        <time>2024-06-09T09:28:13Z</time>
      </trkpt>
      <trkpt lat="48.18477" lon="6.51864">
        <ele>420.1</ele>
        <time>2024-06-09T09:28:20Z</time>
      </trkpt>
      <trkpt lat="48.1847" lon="6.51874">
        <ele>420.3</ele>
        <time>2024-06-09T09:28:27Z</time>
      </trkpt>
      <trkpt lat="48.18464" lon="6.51883">
        <ele>420.4</ele>
        <time>2024-06-09T09:28:34Z</time>
      </trkpt>
      <trkpt lat="48.18458" lon="6.51896">
        <ele>420.5</ele>
        <time>2024-06-09T09:28:41Z</time>
      </trkpt>
      <trkpt lat="48.18457" lon="6.519">
        <ele>420.5</ele>
        <time>2024-06-09T09:28:47Z</time>
      </trkpt>
      <trkpt lat="48.18457" lon="6.519">
        <ele>420.5</ele>
        <time>2024-06-09T09:28:48Z</time>
      </trkpt>
      <trkpt lat="48.18458" lon="6.51903">
        <ele>420.5</ele>
        <time>2024-06-09T09:29:21Z</time>
      </trkpt>
      <trkpt lat="48.18457" lon="6.51905">
        <ele>420.5</ele>
        <time>2024-06-09T09:29:22Z</time>
      </trkpt>
      <trkpt lat="48.18455" lon="6.51919">
        <ele>420.5</ele>
        <time>2024-06-09T09:29:29Z</time>
      </trkpt>
      <trkpt lat="48.18449" lon="6.51929">
        <ele>420.4</ele>
        <time>2024-06-09T09:29:36Z</time>
      </trkpt>
      <trkpt lat="48.18444" lon="6.51942">
        <ele>420.2</ele>
        <time>2024-06-09T09:29:44Z</time>
      </trkpt>
      <trkpt lat="48.1844" lon="6.51954">
        <ele>420</ele>
        <time>2024-06-09T09:29:51Z</time>
      </trkpt>
      <trkpt lat="48.18433" lon="6.51965">
        <ele>419.8</ele>
        <time>2024-06-09T09:29:59Z</time>
      </trkpt>
      <trkpt lat="48.18428" lon="6.51977">
        <ele>419.7</ele>
        <time>2024-06-09T09:30:05Z</time>
      </trkpt>
      <trkpt lat="48.18423" lon="6.51989">
        <ele>419.6</ele>
        <time>2024-06-09T09:30:12Z</time>
      </trkpt>
      <trkpt lat="48.1842" lon="6.52002">
        <ele>419.5</ele>
        <time>2024-06-09T09:30:19Z</time>
      </trkpt>
      <trkpt lat="48.18418" lon="6.52015">
        <ele>419.4</ele>
        <time>2024-06-09T09:30:25Z</time>
      </trkpt>
      <trkpt lat="48.18414" lon="6.52028">
        <ele>419.4</ele>
        <time>2024-06-09T09:30:32Z</time>
      </trkpt>
      <trkpt lat="48.18409" lon="6.52041">
        <ele>419.3</ele>
        <time>2024-06-09T09:30:40Z</time>
      </trkpt>
      <trkpt lat="48.18405" lon="6.52054">
        <ele>419.2</ele>
        <time>2024-06-09T09:30:48Z</time>
      </trkpt>
      <trkpt lat="48.18399" lon="6.52065">
        <ele>419</ele>
        <time>2024-06-09T09:30:55Z</time>
      </trkpt>
      <trkpt lat="48.18393" lon="6.52077">
        <ele>418.9</ele>
        <time>2024-06-09T09:31:03Z</time>
      </trkpt>
      <trkpt lat="48.18388" lon="6.52089">
        <ele>418.7</ele>
        <time>2024-06-09T09:31:11Z</time>
      </trkpt>
      <trkpt lat="48.18383" lon="6.521">
        <ele>418.6</ele>
        <time>2024-06-09T09:31:18Z</time>
      </trkpt>
      <trkpt lat="48.18376" lon="6.52111">
        <ele>418.5</ele>
        <time>2024-06-09T09:31:27Z</time>
      </trkpt>
      <trkpt lat="48.1837" lon="6.52122">
        <ele>418.4</ele>
        <time>2024-06-09T09:31:34Z</time>
      </trkpt>
      <trkpt lat="48.18364" lon="6.52133">
        <ele>418.2</ele>
        <time>2024-06-09T09:31:41Z</time>
      </trkpt>
      <trkpt lat="48.18359" lon="6.52146">
        <ele>417.9</ele>
        <time>2024-06-09T09:31:48Z</time>
      </trkpt>
      <trkpt lat="48.18353" lon="6.52156">
        <ele>416.7</ele>
        <time>2024-06-09T09:31:56Z</time>
      </trkpt>
      <trkpt lat="48.18346" lon="6.52166">
        <ele>415.5</ele>
        <time>2024-06-09T09:32:03Z</time>
      </trkpt>
      <trkpt lat="48.18339" lon="6.52175">
        <ele>415.2</ele>
        <time>2024-06-09T09:32:10Z</time>
      </trkpt>
      <trkpt lat="48.18333" lon="6.52185">
        <ele>415</ele>
        <time>2024-06-09T09:32:17Z</time>
      </trkpt>
      <trkpt lat="48.18328" lon="6.52198">
        <ele>414.7</ele>
        <time>2024-06-09T09:32:24Z</time>
      </trkpt>
      <trkpt lat="48.18322" lon="6.5221">
        <ele>414.4</ele>
        <time>2024-06-09T09:32:32Z</time>
      </trkpt>
      <trkpt lat="48.18315" lon="6.52221">
        <ele>414.1</ele>
        <time>2024-06-09T09:32:39Z</time>
      </trkpt>
      <trkpt lat="48.18309" lon="6.52233">
        <ele>413.8</ele>
        <time>2024-06-09T09:32:46Z</time>
      </trkpt>
      <trkpt lat="48.18304" lon="6.52245">
        <ele>413.6</ele>
        <time>2024-06-09T09:32:53Z</time>
      </trkpt>
      <trkpt lat="48.18298" lon="6.52257">
        <ele>413.5</ele>
        <time>2024-06-09T09:33:03Z</time>
      </trkpt>
      <trkpt lat="48.18295" lon="6.5227">
        <ele>413.5</ele>
        <time>2024-06-09T09:33:09Z</time>
      </trkpt>
      <trkpt lat="48.1829" lon="6.52282">
        <ele>413.5</ele>
        <time>2024-06-09T09:33:16Z</time>
      </trkpt>
      <trkpt lat="48.18287" lon="6.52294">
        <ele>413.6</ele>
        <time>2024-06-09T09:33:23Z</time>
      </trkpt>
      <trkpt lat="48.1828" lon="6.52306">
        <ele>413.6</ele>
        <time>2024-06-09T09:33:30Z</time>
      </trkpt>
      <trkpt lat="48.18277" lon="6.5232">
        <ele>413.8</ele>
        <time>2024-06-09T09:33:38Z</time>
      </trkpt>
      <trkpt lat="48.18274" lon="6.52335">
        <ele>414</ele>
        <time>2024-06-09T09:33:45Z</time>
      </trkpt>
      <trkpt lat="48.18271" lon="6.52349">
        <ele>414.2</ele>
        <time>2024-06-09T09:33:52Z</time>
      </trkpt>
      <trkpt lat="48.18269" lon="6.52364">
        <ele>414.3</ele>
        <time>2024-06-09T09:34:00Z</time>
      </trkpt>
      <trkpt lat="48.18264" lon="6.52376">
        <ele>414.5</ele>
        <time>2024-06-09T09:34:09Z</time>
      </trkpt>
      <trkpt lat="48.18259" lon="6.52389">
        <ele>414.6</ele>
        <time>2024-06-09T09:34:16Z</time>
      </trkpt>
      <trkpt lat="48.18261" lon="6.52405">
        <ele>414.8</ele>
        <time>2024-06-09T09:34:22Z</time>
      </trkpt>
      <trkpt lat="48.1826" lon="6.52419">
        <ele>414.9</ele>
        <time>2024-06-09T09:34:29Z</time>
      </trkpt>
      <trkpt lat="48.18259" lon="6.52434">
        <ele>415</ele>
        <time>2024-06-09T09:34:37Z</time>
      </trkpt>
      <trkpt lat="48.18252" lon="6.52444">
        <ele>415.1</ele>
        <time>2024-06-09T09:34:46Z</time>
      </trkpt>
      <trkpt lat="48.18246" lon="6.52456">
        <ele>415</ele>
        <time>2024-06-09T09:34:54Z</time>
      </trkpt>
      <trkpt lat="48.1824" lon="6.52468">
        <ele>415</ele>
        <time>2024-06-09T09:35:01Z</time>
      </trkpt>
      <trkpt lat="48.18233" lon="6.52479">
        <ele>414.9</ele>
        <time>2024-06-09T09:35:09Z</time>
      </trkpt>
      <trkpt lat="48.18226" lon="6.52488">
        <ele>414.9</ele>
        <time>2024-06-09T09:35:16Z</time>
      </trkpt>
      <trkpt lat="48.1822" lon="6.52499">
        <ele>415</ele>
        <time>2024-06-09T09:35:26Z</time>
      </trkpt>
      <trkpt lat="48.18215" lon="6.52512">
        <ele>415.2</ele>
        <time>2024-06-09T09:35:34Z</time>
      </trkpt>
      <trkpt lat="48.1821" lon="6.52524">
        <ele>415.5</ele>
        <time>2024-06-09T09:35:40Z</time>
      </trkpt>
      <trkpt lat="48.18206" lon="6.52536">
        <ele>415.8</ele>
        <time>2024-06-09T09:35:46Z</time>
      </trkpt>
      <trkpt lat="48.18203" lon="6.52551">
        <ele>415.9</ele>
        <time>2024-06-09T09:35:52Z</time>
      </trkpt>
      <trkpt lat="48.18201" lon="6.52564">
        <ele>416</ele>
        <time>2024-06-09T09:35:59Z</time>
      </trkpt>
      <trkpt lat="48.18197" lon="6.52577">
        <ele>416</ele>
        <time>2024-06-09T09:36:07Z</time>
      </trkpt>
      <trkpt lat="48.18194" lon="6.52591">
        <ele>416</ele>
        <time>2024-06-09T09:36:16Z</time>
      </trkpt>
      <trkpt lat="48.18192" lon="6.52605">
        <ele>415.9</ele>
        <time>2024-06-09T09:36:24Z</time>
      </trkpt>
      <trkpt lat="48.1819" lon="6.52619">
        <ele>416</ele>
        <time>2024-06-09T09:36:32Z</time>
      </trkpt>
      <trkpt lat="48.18188" lon="6.52633">
        <ele>416.1</ele>
        <time>2024-06-09T09:36:37Z</time>
      </trkpt>
      <trkpt lat="48.18184" lon="6.52647">
        <ele>416.1</ele>
        <time>2024-06-09T09:36:44Z</time>
      </trkpt>
      <trkpt lat="48.1818" lon="6.5266">
        <ele>416.2</ele>
        <time>2024-06-09T09:36:52Z</time>
      </trkpt>
      <trkpt lat="48.18178" lon="6.52673">
        <ele>416.3</ele>
        <time>2024-06-09T09:36:59Z</time>
      </trkpt>
      <trkpt lat="48.18175" lon="6.52686">
        <ele>416.5</ele>
        <time>2024-06-09T09:37:05Z</time>
      </trkpt>
      <trkpt lat="48.18173" lon="6.52701">
        <ele>416.6</ele>
        <time>2024-06-09T09:37:12Z</time>
      </trkpt>
      <trkpt lat="48.1817" lon="6.52715">
        <ele>416.8</ele>
        <time>2024-06-09T09:37:19Z</time>
      </trkpt>
      <trkpt lat="48.18164" lon="6.52727">
        <ele>416.9</ele>
        <time>2024-06-09T09:37:27Z</time>
      </trkpt>
      <trkpt lat="48.1816" lon="6.52739">
        <ele>417</ele>
        <time>2024-06-09T09:37:34Z</time>
      </trkpt>
      <trkpt lat="48.18153" lon="6.52748">
        <ele>417.1</ele>
        <time>2024-06-09T09:37:40Z</time>
      </trkpt>
      <trkpt lat="48.18147" lon="6.5276">
        <ele>417.2</ele>
        <time>2024-06-09T09:37:48Z</time>
      </trkpt>
      <trkpt lat="48.18143" lon="6.52773">
        <ele>417</ele>
        <time>2024-06-09T09:37:56Z</time>
      </trkpt>
      <trkpt lat="48.18141" lon="6.52786">
        <ele>416.9</ele>
        <time>2024-06-09T09:38:02Z</time>
      </trkpt>
      <trkpt lat="48.18135" lon="6.52799">
        <ele>416.6</ele>
        <time>2024-06-09T09:38:10Z</time>
      </trkpt>
      <trkpt lat="48.18129" lon="6.52811">
        <ele>416.3</ele>
        <time>2024-06-09T09:38:18Z</time>
      </trkpt>
      <trkpt lat="48.18122" lon="6.52822">
        <ele>416</ele>
        <time>2024-06-09T09:38:26Z</time>
      </trkpt>
      <trkpt lat="48.18116" lon="6.52832">
        <ele>415.7</ele>
        <time>2024-06-09T09:38:33Z</time>
      </trkpt>
      <trkpt lat="48.18111" lon="6.52845">
        <ele>415.5</ele>
        <time>2024-06-09T09:38:40Z</time>
      </trkpt>
      <trkpt lat="48.18104" lon="6.52855">
        <ele>415.2</ele>
        <time>2024-06-09T09:38:47Z</time>
      </trkpt>
      <trkpt lat="48.18099" lon="6.52867">
        <ele>414.8</ele>
        <time>2024-06-09T09:38:54Z</time>
      </trkpt>
      <trkpt lat="48.18093" lon="6.52879">
        <ele>414.3</ele>
        <time>2024-06-09T09:39:02Z</time>
      </trkpt>
      <trkpt lat="48.18089" lon="6.52891">
        <ele>413.8</ele>
        <time>2024-06-09T09:39:09Z</time>
      </trkpt>
      <trkpt lat="48.18084" lon="6.52904">
        <ele>413.2</ele>
        <time>2024-06-09T09:39:16Z</time>
      </trkpt>
      <trkpt lat="48.18079" lon="6.52917">
        <ele>412.6</ele>
        <time>2024-06-09T09:39:24Z</time>
      </trkpt>
      <trkpt lat="48.18076" lon="6.5293">
        <ele>412</ele>
        <time>2024-06-09T09:39:32Z</time>
      </trkpt>
      <trkpt lat="48.18072" lon="6.52944">
        <ele>411.5</ele>
        <time>2024-06-09T09:39:40Z</time>
      </trkpt>
      <trkpt lat="48.18068" lon="6.52957">
        <ele>410.9</ele>
        <time>2024-06-09T09:39:47Z</time>
      </trkpt>
      <trkpt lat="48.18064" lon="6.52969">
        <ele>410.3</ele>
        <time>2024-06-09T09:39:55Z</time>
      </trkpt>
      <trkpt lat="48.1806" lon="6.52984">
        <ele>409.7</ele>
        <time>2024-06-09T09:40:03Z</time>
      </trkpt>
      <trkpt lat="48.18057" lon="6.52996">
        <ele>409.2</ele>
        <time>2024-06-09T09:40:10Z</time>
      </trkpt>
      <trkpt lat="48.18056" lon="6.53011">
        <ele>408.7</ele>
        <time>2024-06-09T09:40:18Z</time>
      </trkpt>
      <trkpt lat="48.18055" lon="6.53025">
        <ele>408.2</ele>
        <time>2024-06-09T09:40:25Z</time>
      </trkpt>
      <trkpt lat="48.18052" lon="6.53039">
        <ele>407.6</ele>
        <time>2024-06-09T09:40:34Z</time>
      </trkpt>
      <trkpt lat="48.1805" lon="6.53053">
        <ele>407</ele>
        <time>2024-06-09T09:40:41Z</time>
      </trkpt>
      <trkpt lat="48.18049" lon="6.53068">
        <ele>406.3</ele>
        <time>2024-06-09T09:40:48Z</time>
      </trkpt>
      <trkpt lat="48.18048" lon="6.53082">
        <ele>405.7</ele>
        <time>2024-06-09T09:40:56Z</time>
      </trkpt>
      <trkpt lat="48.18047" lon="6.53098">
        <ele>405.1</ele>
        <time>2024-06-09T09:41:05Z</time>
      </trkpt>
      <trkpt lat="48.18047" lon="6.53112">
        <ele>404.5</ele>
        <time>2024-06-09T09:41:12Z</time>
      </trkpt>
      <trkpt lat="48.18046" lon="6.53126">
        <ele>403.9</ele>
        <time>2024-06-09T09:41:20Z</time>
      </trkpt>
      <trkpt lat="48.18046" lon="6.53142">
        <ele>403.2</ele>
        <time>2024-06-09T09:41:28Z</time>
      </trkpt>
      <trkpt lat="48.18046" lon="6.53156">
        <ele>402.5</ele>
        <time>2024-06-09T09:41:36Z</time>
      </trkpt>
      <trkpt lat="48.18045" lon="6.53171">
        <ele>401.6</ele>
        <time>2024-06-09T09:41:45Z</time>
      </trkpt>
      <trkpt lat="48.18047" lon="6.53185">
        <ele>400.8</ele>
        <time>2024-06-09T09:41:52Z</time>
      </trkpt>
      <trkpt lat="48.18048" lon="6.53199">
        <ele>400</ele>
        <time>2024-06-09T09:42:01Z</time>
      </trkpt>
      <trkpt lat="48.18053" lon="6.53215">
        <ele>399</ele>
        <time>2024-06-09T09:42:08Z</time>
      </trkpt>
      <trkpt lat="48.18055" lon="6.53231">
        <ele>398</ele>
        <time>2024-06-09T09:42:15Z</time>
      </trkpt>
      <trkpt lat="48.18061" lon="6.53243">
        <ele>397.1</ele>
        <time>2024-06-09T09:42:21Z</time>
      </trkpt>
      <trkpt lat="48.18059" lon="6.53257">
        <ele>396</ele>
        <time>2024-06-09T09:42:28Z</time>
      </trkpt>
      <trkpt lat="48.18058" lon="6.53271">
        <ele>394.7</ele>
        <time>2024-06-09T09:42:36Z</time>
      </trkpt>
      <trkpt lat="48.1806" lon="6.53285">
        <ele>393.5</ele>
        <time>2024-06-09T09:42:43Z</time>
      </trkpt>
      <trkpt lat="48.18063" lon="6.53298">
        <ele>392.6</ele>
        <time>2024-06-09T09:42:48Z</time>
      </trkpt>
      <trkpt lat="48.18062" lon="6.53311">
        <ele>391.7</ele>
        <time>2024-06-09T09:42:56Z</time>
      </trkpt>
      <trkpt lat="48.18063" lon="6.53326">
        <ele>390.5</ele>
        <time>2024-06-09T09:43:04Z</time>
      </trkpt>
      <trkpt lat="48.18061" lon="6.5334">
        <ele>389.2</ele>
        <time>2024-06-09T09:43:11Z</time>
      </trkpt>
      <trkpt lat="48.18061" lon="6.53355">
        <ele>388</ele>
        <time>2024-06-09T09:43:19Z</time>
      </trkpt>
      <trkpt lat="48.18062" lon="6.53369">
        <ele>386.7</ele>
        <time>2024-06-09T09:43:25Z</time>
      </trkpt>
      <trkpt lat="48.18065" lon="6.53383">
        <ele>385.2</ele>
        <time>2024-06-09T09:43:32Z</time>
      </trkpt>
      <trkpt lat="48.18073" lon="6.53391">
        <ele>384</ele>
        <time>2024-06-09T09:43:37Z</time>
      </trkpt>
      <trkpt lat="48.1808" lon="6.53399">
        <ele>383</ele>
        <time>2024-06-09T09:43:42Z</time>
      </trkpt>
      <trkpt lat="48.18084" lon="6.53411">
        <ele>382.1</ele>
        <time>2024-06-09T09:43:50Z</time>
      </trkpt>
      <trkpt lat="48.18087" lon="6.53425">
        <ele>380.9</ele>
        <time>2024-06-09T09:43:58Z</time>
      </trkpt>
      <trkpt lat="48.18083" lon="6.53438">
        <ele>380</ele>
        <time>2024-06-09T09:44:08Z</time>
      </trkpt>
      <trkpt lat="48.18089" lon="6.53449">
        <ele>379.6</ele>
        <time>2024-06-09T09:44:15Z</time>
      </trkpt>
      <trkpt lat="48.18097" lon="6.53458">
        <ele>379.3</ele>
        <time>2024-06-09T09:44:21Z</time>
      </trkpt>
      <trkpt lat="48.18104" lon="6.53468">
        <ele>379</ele>
        <time>2024-06-09T09:44:28Z</time>
      </trkpt>
      <trkpt lat="48.18113" lon="6.53474">
        <ele>378.8</ele>
        <time>2024-06-09T09:44:34Z</time>
      </trkpt>
      <trkpt lat="48.18122" lon="6.5348">
        <ele>378.7</ele>
        <time>2024-06-09T09:44:42Z</time>
      </trkpt>
      <trkpt lat="48.1813" lon="6.53473">
        <ele>378.9</ele>
        <time>2024-06-09T09:44:54Z</time>
      </trkpt>
      <trkpt lat="48.1814" lon="6.53472">
        <ele>379.1</ele>
        <time>2024-06-09T09:45:01Z</time>
      </trkpt>
      <trkpt lat="48.18148" lon="6.53461">
        <ele>379.5</ele>
        <time>2024-06-09T09:45:07Z</time>
      </trkpt>
      <trkpt lat="48.18156" lon="6.53453">
        <ele>379.9</ele>
        <time>2024-06-09T09:45:12Z</time>
      </trkpt>
      <trkpt lat="48.18163" lon="6.53446">
        <ele>380.4</ele>
        <time>2024-06-09T09:45:17Z</time>
      </trkpt>
      <trkpt lat="48.18172" lon="6.53439">
        <ele>380.6</ele>
        <time>2024-06-09T09:45:27Z</time>
      </trkpt>
      <trkpt lat="48.18182" lon="6.53437">
        <ele>380.7</ele>
        <time>2024-06-09T09:45:37Z</time>
      </trkpt>
      <trkpt lat="48.18191" lon="6.53436">
        <ele>380.8</ele>
        <time>2024-06-09T09:45:44Z</time>
      </trkpt>
      <trkpt lat="48.18201" lon="6.53439">
        <ele>380.9</ele>
        <time>2024-06-09T09:45:54Z</time>
      </trkpt>
      <trkpt lat="48.1821" lon="6.5344">
        <ele>380.9</ele>
        <time>2024-06-09T09:46:04Z</time>
      </trkpt>
      <trkpt lat="48.1821" lon="6.5344">
        <ele>380.9</ele>
        <time>2024-06-09T09:46:05Z</time>
      </trkpt>
      <trkpt lat="48.1821" lon="6.5344">
        <ele>380.9</ele>
        <time>2024-06-09T09:46:06Z</time>
      </trkpt>
      <trkpt lat="48.1821" lon="6.53441">
        <ele>380.9</ele>
        <time>2024-06-09T09:46:23Z</time>
      </trkpt>
      <trkpt lat="48.18211" lon="6.53441">
        <ele>380.9</ele>
        <time>2024-06-09T09:46:24Z</time>
      </trkpt>
      <trkpt lat="48.18211" lon="6.53441">
        <ele>380.8</ele>
        <time>2024-06-09T09:46:25Z</time>
      </trkpt>
      <trkpt lat="48.18221" lon="6.5344">
        <ele>380.7</ele>
        <time>2024-06-09T09:46:35Z</time>
      </trkpt>
      <trkpt lat="48.18227" lon="6.53441">
        <ele>380.7</ele>
        <time>2024-06-09T09:46:44Z</time>
      </trkpt>
      <trkpt lat="48.18228" lon="6.53441">
        <ele>380.7</ele>
        <time>2024-06-09T09:46:45Z</time>
      </trkpt>
      <trkpt lat="48.18228" lon="6.53441">
        <ele>380.7</ele>
        <time>2024-06-09T09:46:46Z</time>
      </trkpt>
      <trkpt lat="48.18229" lon="6.53442">
        <ele>380.7</ele>
        <time>2024-06-09T09:46:47Z</time>
      </trkpt>
      <trkpt lat="48.1823" lon="6.53441">
        <ele>380.7</ele>
        <time>2024-06-09T09:46:48Z</time>
      </trkpt>
      <trkpt lat="48.18239" lon="6.53444">
        <ele>380.6</ele>
        <time>2024-06-09T09:46:55Z</time>
      </trkpt>
      <trkpt lat="48.18249" lon="6.53446">
        <ele>380.5</ele>
        <time>2024-06-09T09:47:02Z</time>
      </trkpt>
      <trkpt lat="48.18258" lon="6.53452">
        <ele>380.5</ele>
        <time>2024-06-09T09:47:09Z</time>
      </trkpt>
      <trkpt lat="48.18267" lon="6.53455">
        <ele>380.5</ele>
        <time>2024-06-09T09:47:17Z</time>
      </trkpt>
      <trkpt lat="48.18276" lon="6.53458">
        <ele>380.5</ele>
        <time>2024-06-09T09:47:22Z</time>
      </trkpt>
      <trkpt lat="48.18286" lon="6.53458">
        <ele>380.6</ele>
        <time>2024-06-09T09:47:30Z</time>
      </trkpt>
      <trkpt lat="48.18295" lon="6.53458">
        <ele>380.5</ele>
        <time>2024-06-09T09:47:36Z</time>
      </trkpt>
      <trkpt lat="48.18305" lon="6.53455">
        <ele>380.4</ele>
        <time>2024-06-09T09:47:46Z</time>
      </trkpt>
      <trkpt lat="48.18314" lon="6.53452">
        <ele>380.3</ele>
        <time>2024-06-09T09:47:53Z</time>
      </trkpt>
      <trkpt lat="48.18324" lon="6.5345">
        <ele>380.2</ele>
        <time>2024-06-09T09:47:58Z</time>
      </trkpt>
      <trkpt lat="48.18334" lon="6.53446">
        <ele>380.2</ele>
        <time>2024-06-09T09:48:03Z</time>
      </trkpt>
      <trkpt lat="48.18342" lon="6.53437">
        <ele>380.2</ele>
        <time>2024-06-09T09:48:10Z</time>
      </trkpt>
      <trkpt lat="48.18349" lon="6.53427">
        <ele>380.3</ele>
        <time>2024-06-09T09:48:19Z</time>
      </trkpt>
      <trkpt lat="48.18356" lon="6.53418">
        <ele>380.4</ele>
        <time>2024-06-09T09:48:28Z</time>
      </trkpt>
      <trkpt lat="48.18366" lon="6.53419">
        <ele>380.6</ele>
        <time>2024-06-09T09:48:37Z</time>
      </trkpt>
      <trkpt lat="48.18373" lon="6.53428">
        <ele>380.8</ele>
        <time>2024-06-09T09:48:48Z</time>
      </trkpt>
      <trkpt lat="48.18382" lon="6.53431">
        <ele>380.8</ele>
        <time>2024-06-09T09:48:54Z</time>
      </trkpt>
      <trkpt lat="48.18391" lon="6.53434">
        <ele>380.8</ele>
        <time>2024-06-09T09:49:03Z</time>
      </trkpt>
      <trkpt lat="48.18401" lon="6.53437">
        <ele>380.6</ele>
        <time>2024-06-09T09:49:10Z</time>
      </trkpt>
      <trkpt lat="48.1841" lon="6.53437">
        <ele>380.4</ele>
        <time>2024-06-09T09:49:18Z</time>
      </trkpt>
      <trkpt lat="48.1842" lon="6.53435">
        <ele>380.3</ele>
        <time>2024-06-09T09:49:27Z</time>
      </trkpt>
      <trkpt lat="48.1843" lon="6.5344">
        <ele>380.3</ele>
        <time>2024-06-09T09:49:34Z</time>
      </trkpt>
      <trkpt lat="48.18439" lon="6.5344">
        <ele>380.4</ele>
        <time>2024-06-09T09:49:42Z</time>
      </trkpt>
      <trkpt lat="48.18449" lon="6.5344">
        <ele>380.3</ele>
        <time>2024-06-09T09:49:51Z</time>
      </trkpt>
      <trkpt lat="48.18457" lon="6.53446">
        <ele>380.2</ele>
        <time>2024-06-09T09:49:58Z</time>
      </trkpt>
      <trkpt lat="48.18466" lon="6.5345">
        <ele>380.1</ele>
        <time>2024-06-09T09:50:03Z</time>
      </trkpt>
      <trkpt lat="48.18475" lon="6.53451">
        <ele>380.1</ele>
        <time>2024-06-09T09:50:09Z</time>
      </trkpt>
      <trkpt lat="48.18485" lon="6.53455">
        <ele>380.1</ele>
        <time>2024-06-09T09:50:19Z</time>
      </trkpt>
      <trkpt lat="48.18494" lon="6.53457">
        <ele>380.2</ele>
        <time>2024-06-09T09:50:24Z</time>
      </trkpt>
      <trkpt lat="48.18504" lon="6.53456">
        <ele>380.3</ele>
        <time>2024-06-09T09:50:33Z</time>
      </trkpt>
      <trkpt lat="48.18513" lon="6.5345">
        <ele>380.3</ele>
        <time>2024-06-09T09:50:40Z</time>
      </trkpt>
      <trkpt lat="48.18521" lon="6.53439">
        <ele>380</ele>
        <time>2024-06-09T09:50:46Z</time>
      </trkpt>
      <trkpt lat="48.18529" lon="6.53431">
        <ele>379.8</ele>
        <time>2024-06-09T09:50:54Z</time>
      </trkpt>
      <trkpt lat="48.18539" lon="6.53425">
        <ele>379.6</ele>
        <time>2024-06-09T09:51:01Z</time>
      </trkpt>
      <trkpt lat="48.18548" lon="6.53421">
        <ele>379.6</ele>
        <time>2024-06-09T09:51:12Z</time>
      </trkpt>
      <trkpt lat="48.18557" lon="6.53422">
        <ele>379.6</ele>
        <time>2024-06-09T09:51:19Z</time>
      </trkpt>
      <trkpt lat="48.18566" lon="6.53426">
        <ele>379.7</ele>
        <time>2024-06-09T09:51:28Z</time>
      </trkpt>
      <trkpt lat="48.18577" lon="6.53425">
        <ele>379.9</ele>
        <time>2024-06-09T09:51:36Z</time>
      </trkpt>
      <trkpt lat="48.18585" lon="6.5343">
        <ele>380.1</ele>
        <time>2024-06-09T09:51:44Z</time>
      </trkpt>
      <trkpt lat="48.18592" lon="6.5344">
        <ele>380.4</ele>
        <time>2024-06-09T09:51:51Z</time>
      </trkpt>
      <trkpt lat="48.18601" lon="6.53443">
        <ele>380.8</ele>
        <time>2024-06-09T09:51:58Z</time>
      </trkpt>
      <trkpt lat="48.1861" lon="6.53449">
        <ele>381.2</ele>
        <time>2024-06-09T09:52:06Z</time>
      </trkpt>
      <trkpt lat="48.18618" lon="6.53456">
        <ele>381.4</ele>
        <time>2024-06-09T09:52:16Z</time>
      </trkpt>
      <trkpt lat="48.18627" lon="6.5346">
        <ele>381.6</ele>
        <time>2024-06-09T09:52:24Z</time>
      </trkpt>
      <trkpt lat="48.18636" lon="6.53464">
        <ele>381.6</ele>
        <time>2024-06-09T09:52:30Z</time>
      </trkpt>
      <trkpt lat="48.18644" lon="6.53472">
        <ele>381.6</ele>
        <time>2024-06-09T09:52:37Z</time>
      </trkpt>
      <trkpt lat="48.18653" lon="6.53477">
        <ele>381.6</ele>
        <time>2024-06-09T09:52:44Z</time>
      </trkpt>
      <trkpt lat="48.18662" lon="6.53476">
        <ele>381.5</ele>
        <time>2024-06-09T09:52:54Z</time>
      </trkpt>
      <trkpt lat="48.18672" lon="6.53477">
        <ele>381.4</ele>
        <time>2024-06-09T09:53:00Z</time>
      </trkpt>
      <trkpt lat="48.18681" lon="6.53472">
        <ele>380.7</ele>
        <time>2024-06-09T09:53:08Z</time>
      </trkpt>
      <trkpt lat="48.1869" lon="6.53473">
        <ele>380.1</ele>
        <time>2024-06-09T09:53:17Z</time>
      </trkpt>
      <trkpt lat="48.187" lon="6.53474">
        <ele>379.5</ele>
        <time>2024-06-09T09:53:24Z</time>
      </trkpt>
      <trkpt lat="48.18709" lon="6.53474">
        <ele>378.8</ele>
        <time>2024-06-09T09:53:32Z</time>
      </trkpt>
      <trkpt lat="48.18718" lon="6.53478">
        <ele>378.1</ele>
        <time>2024-06-09T09:53:40Z</time>
      </trkpt>
      <trkpt lat="48.18728" lon="6.53479">
        <ele>377.5</ele>
        <time>2024-06-09T09:53:49Z</time>
      </trkpt>
      <trkpt lat="48.18738" lon="6.5348">
        <ele>376.8</ele>
        <time>2024-06-09T09:53:57Z</time>
      </trkpt>
      <trkpt lat="48.18747" lon="6.53481">
        <ele>376.2</ele>
        <time>2024-06-09T09:54:05Z</time>
      </trkpt>
      <trkpt lat="48.18757" lon="6.53484">
        <ele>375.6</ele>
        <time>2024-06-09T09:54:13Z</time>
      </trkpt>
      <trkpt lat="48.18766" lon="6.53491">
        <ele>374.8</ele>
        <time>2024-06-09T09:54:22Z</time>
      </trkpt>
      <trkpt lat="48.18776" lon="6.53496">
        <ele>374</ele>
        <time>2024-06-09T09:54:31Z</time>
      </trkpt>
      <trkpt lat="48.18785" lon="6.53497">
        <ele>373.3</ele>
        <time>2024-06-09T09:54:41Z</time>
      </trkpt>
      <trkpt lat="48.18794" lon="6.53502">
        <ele>372.6</ele>
        <time>2024-06-09T09:54:50Z</time>
      </trkpt>
      <trkpt lat="48.18804" lon="6.53505">
        <ele>372</ele>
        <time>2024-06-09T09:54:56Z</time>
      </trkpt>
      <trkpt lat="48.18813" lon="6.53508">
        <ele>371.4</ele>
        <time>2024-06-09T09:55:02Z</time>
      </trkpt>
      <trkpt lat="48.18822" lon="6.53511">
        <ele>370.8</ele>
        <time>2024-06-09T09:55:12Z</time>
      </trkpt>
      <trkpt lat="48.18832" lon="6.53514">
        <ele>370.1</ele>
        <time>2024-06-09T09:55:20Z</time>
      </trkpt>
      <trkpt lat="48.18841" lon="6.53515">
        <ele>369.5</ele>
        <time>2024-06-09T09:55:26Z</time>
      </trkpt>
      <trkpt lat="48.18851" lon="6.53516">
        <ele>368.8</ele>
        <time>2024-06-09T09:55:33Z</time>
      </trkpt>
      <trkpt lat="48.1886" lon="6.53517">
        <ele>368.1</ele>
        <time>2024-06-09T09:55:44Z</time>
      </trkpt>
      <trkpt lat="48.1887" lon="6.5352">
        <ele>367.3</ele>
        <time>2024-06-09T09:55:51Z</time>
      </trkpt>
      <trkpt lat="48.18878" lon="6.53525">
        <ele>366.5</ele>
        <time>2024-06-09T09:55:57Z</time>
      </trkpt>
      <trkpt lat="48.18888" lon="6.53529">
        <ele>365.6</ele>
        <time>2024-06-09T09:56:07Z</time>
      </trkpt>
      <trkpt lat="48.18897" lon="6.53532">
        <ele>364.7</ele>
        <time>2024-06-09T09:56:14Z</time>
      </trkpt>
      <trkpt lat="48.18906" lon="6.53535">
        <ele>363.8</ele>
        <time>2024-06-09T09:56:20Z</time>
      </trkpt>
      <trkpt lat="48.18916" lon="6.53539">
        <ele>363</ele>
        <time>2024-06-09T09:56:26Z</time>
      </trkpt>
      <trkpt lat="48.18923" lon="6.53548">
        <ele>362.4</ele>
        <time>2024-06-09T09:56:35Z</time>
      </trkpt>
      <trkpt lat="48.18931" lon="6.53555">
        <ele>362</ele>
        <time>2024-06-09T09:56:45Z</time>
      </trkpt>
      <trkpt lat="48.18939" lon="6.53564">
        <ele>361.6</ele>
        <time>2024-06-09T09:56:53Z</time>
      </trkpt>
      <trkpt lat="48.18948" lon="6.53567">
        <ele>361.2</ele>
        <time>2024-06-09T09:57:00Z</time>
      </trkpt>
      <trkpt lat="48.18958" lon="6.53572">
        <ele>360.8</ele>
        <time>2024-06-09T09:57:10Z</time>
      </trkpt>
      <trkpt lat="48.18968" lon="6.53574">
        <ele>360.5</ele>
        <time>2024-06-09T09:57:17Z</time>
      </trkpt>
      <trkpt lat="48.18978" lon="6.53574">
        <ele>360.4</ele>
        <time>2024-06-09T09:57:25Z</time>
      </trkpt>
      <trkpt lat="48.18987" lon="6.53571">
        <ele>360.2</ele>
        <time>2024-06-09T09:57:34Z</time>
      </trkpt>
      <trkpt lat="48.18998" lon="6.5357">
        <ele>360.1</ele>
        <time>2024-06-09T09:57:41Z</time>
      </trkpt>
      <trkpt lat="48.19008" lon="6.53571">
        <ele>359.9</ele>
        <time>2024-06-09T09:57:49Z</time>
      </trkpt>
      <trkpt lat="48.19017" lon="6.53565">
        <ele>359.8</ele>
        <time>2024-06-09T09:57:55Z</time>
      </trkpt>
      <trkpt lat="48.19025" lon="6.53559">
        <ele>359.8</ele>
        <time>2024-06-09T09:58:03Z</time>
      </trkpt>
      <trkpt lat="48.19033" lon="6.53552">
        <ele>359.8</ele>
        <time>2024-06-09T09:58:11Z</time>
      </trkpt>
      <trkpt lat="48.19043" lon="6.5355">
        <ele>359.8</ele>
        <time>2024-06-09T09:58:18Z</time>
      </trkpt>
      <trkpt lat="48.19052" lon="6.53545">
        <ele>359.8</ele>
        <time>2024-06-09T09:58:25Z</time>
      </trkpt>
      <trkpt lat="48.19061" lon="6.53541">
        <ele>359.7</ele>
        <time>2024-06-09T09:58:31Z</time>
      </trkpt>
      <trkpt lat="48.19068" lon="6.53532">
        <ele>359.6</ele>
        <time>2024-06-09T09:58:41Z</time>
      </trkpt>
      <trkpt lat="48.19078" lon="6.5353">
        <ele>359.4</ele>
        <time>2024-06-09T09:58:50Z</time>
      </trkpt>
      <trkpt lat="48.19088" lon="6.53525">
        <ele>359.3</ele>
        <time>2024-06-09T09:58:57Z</time>
      </trkpt>
      <trkpt lat="48.19097" lon="6.53525">
        <ele>359.1</ele>
        <time>2024-06-09T09:59:05Z</time>
      </trkpt>
      <trkpt lat="48.19107" lon="6.53527">
        <ele>359</ele>
        <time>2024-06-09T09:59:15Z</time>
      </trkpt>
      <trkpt lat="48.19116" lon="6.53529">
        <ele>359</ele>
        <time>2024-06-09T09:59:24Z</time>
      </trkpt>
      <trkpt lat="48.19125" lon="6.53533">
        <ele>358.8</ele>
        <time>2024-06-09T09:59:33Z</time>
      </trkpt>
      <trkpt lat="48.19134" lon="6.53539">
        <ele>358.7</ele>
        <time>2024-06-09T09:59:40Z</time>
      </trkpt>
      <trkpt lat="48.19144" lon="6.53543">
        <ele>358.5</ele>
        <time>2024-06-09T09:59:48Z</time>
      </trkpt>
      <trkpt lat="48.19153" lon="6.53544">
        <ele>358.3</ele>
        <time>2024-06-09T09:59:57Z</time>
      </trkpt>
      <trkpt lat="48.19162" lon="6.53547">
        <ele>358</ele>
        <time>2024-06-09T10:00:05Z</time>
      </trkpt>
      <trkpt lat="48.19171" lon="6.53553">
        <ele>357.7</ele>
        <time>2024-06-09T10:00:14Z</time>
      </trkpt>
      <trkpt lat="48.1918" lon="6.53557">
        <ele>357.5</ele>
        <time>2024-06-09T10:00:21Z</time>
      </trkpt>
      <trkpt lat="48.19188" lon="6.53563">
        <ele>357.2</ele>
        <time>2024-06-09T10:00:28Z</time>
      </trkpt>
      <trkpt lat="48.19196" lon="6.53572">
        <ele>356.9</ele>
        <time>2024-06-09T10:00:37Z</time>
      </trkpt>
      <trkpt lat="48.19206" lon="6.53576">
        <ele>356.7</ele>
        <time>2024-06-09T10:00:46Z</time>
      </trkpt>
      <trkpt lat="48.19207" lon="6.53575">
        <ele>356.6</ele>
        <time>2024-06-09T10:00:51Z</time>
      </trkpt>
      <trkpt lat="48.19207" lon="6.53575">
        <ele>356.6</ele>
        <time>2024-06-09T10:00:52Z</time>
      </trkpt>
      <trkpt lat="48.19207" lon="6.53575">
        <ele>356.6</ele>
        <time>2024-06-09T10:00:53Z</time>
      </trkpt>
      <trkpt lat="48.19211" lon="6.53576">
        <ele>356.6</ele>
        <time>2024-06-09T10:01:07Z</time>
      </trkpt>
      <trkpt lat="48.19212" lon="6.53576">
        <ele>356.6</ele>
        <time>2024-06-09T10:01:08Z</time>
      </trkpt>
      <trkpt lat="48.19221" lon="6.53583">
        <ele>356.5</ele>
        <time>2024-06-09T10:01:17Z</time>
      </trkpt>
      <trkpt lat="48.1923" lon="6.53588">
        <ele>356.3</ele>
        <time>2024-06-09T10:01:23Z</time>
      </trkpt>
      <trkpt lat="48.19239" lon="6.53591">
        <ele>356</ele>
        <time>2024-06-09T10:01:31Z</time>
      </trkpt>
      <trkpt lat="48.19248" lon="6.53596">
        <ele>355.8</ele>
        <time>2024-06-09T10:01:38Z</time>
      </trkpt>
      <trkpt lat="48.19257" lon="6.536">
        <ele>355.4</ele>
        <time>2024-06-09T10:01:44Z</time>
      </trkpt>
      <trkpt lat="48.19267" lon="6.53603">
        <ele>354.9</ele>
        <time>2024-06-09T10:01:54Z</time>
      </trkpt>
      <trkpt lat="48.19277" lon="6.53606">
        <ele>354.4</ele>
        <time>2024-06-09T10:01:59Z</time>
      </trkpt>
      <trkpt lat="48.19286" lon="6.5361">
        <ele>353.8</ele>
        <time>2024-06-09T10:02:06Z</time>
      </trkpt>
      <trkpt lat="48.19296" lon="6.53611">
        <ele>353.4</ele>
        <time>2024-06-09T10:02:12Z</time>
      </trkpt>
      <trkpt lat="48.19305" lon="6.53611">
        <ele>353.1</ele>
        <time>2024-06-09T10:02:20Z</time>
      </trkpt>
      <trkpt lat="48.19314" lon="6.53612">
        <ele>352.9</ele>
        <time>2024-06-09T10:02:28Z</time>
      </trkpt>
      <trkpt lat="48.19324" lon="6.53615">
        <ele>352.8</ele>
        <time>2024-06-09T10:02:35Z</time>
      </trkpt>
      <trkpt lat="48.19334" lon="6.53617">
        <ele>352.8</ele>
        <time>2024-06-09T10:02:42Z</time>
      </trkpt>
      <trkpt lat="48.19343" lon="6.53622">
        <ele>352.7</ele>
        <time>2024-06-09T10:02:49Z</time>
      </trkpt>
      <trkpt lat="48.19354" lon="6.53623">
        <ele>352.7</ele>
        <time>2024-06-09T10:02:57Z</time>
      </trkpt>
      <trkpt lat="48.19363" lon="6.53625">
        <ele>352.6</ele>
        <time>2024-06-09T10:03:04Z</time>
      </trkpt>
      <trkpt lat="48.19372" lon="6.53626">
        <ele>352.6</ele>
        <time>2024-06-09T10:03:11Z</time>
      </trkpt>
      <trkpt lat="48.19381" lon="6.53623">
        <ele>352.5</ele>
        <time>2024-06-09T10:03:21Z</time>
      </trkpt>
      <trkpt lat="48.1939" lon="6.53619">
        <ele>352.5</ele>
        <time>2024-06-09T10:03:29Z</time>
      </trkpt>
      <trkpt lat="48.194" lon="6.53613">
        <ele>352.5</ele>
        <time>2024-06-09T10:03:37Z</time>
      </trkpt>
      <trkpt lat="48.19407" lon="6.53605">
        <ele>352.4</ele>
        <time>2024-06-09T10:03:45Z</time>
      </trkpt>
      <trkpt lat="48.19415" lon="6.53595">
        <ele>352.2</ele>
        <time>2024-06-09T10:03:51Z</time>
      </trkpt>
      <trkpt lat="48.19424" lon="6.5359">
        <ele>351.8</ele>
        <time>2024-06-09T10:03:57Z</time>
      </trkpt>
      <trkpt lat="48.19432" lon="6.53581">
        <ele>351.4</ele>
        <time>2024-06-09T10:04:02Z</time>
      </trkpt>
      <trkpt lat="48.1944" lon="6.5357">
        <ele>350.8</ele>
        <time>2024-06-09T10:04:09Z</time>
      </trkpt>
      <trkpt lat="48.19447" lon="6.5356">
        <ele>350.3</ele>
        <time>2024-06-09T10:04:16Z</time>
      </trkpt>
      <trkpt lat="48.19453" lon="6.53549">
        <ele>349.7</ele>
        <time>2024-06-09T10:04:24Z</time>
      </trkpt>
      <trkpt lat="48.19462" lon="6.53542">
        <ele>349.3</ele>
        <time>2024-06-09T10:04:37Z</time>
      </trkpt>
      <trkpt lat="48.19469" lon="6.53534">
        <ele>349</ele>
        <time>2024-06-09T10:04:43Z</time>
      </trkpt>
      <trkpt lat="48.19477" lon="6.53526">
        <ele>348.7</ele>
        <time>2024-06-09T10:04:49Z</time>
      </trkpt>
      <trkpt lat="48.19478" lon="6.53542">
        <ele>348.7</ele>
        <time>2024-06-09T10:04:59Z</time>
      </trkpt>
      <trkpt lat="48.19478" lon="6.53556">
        <ele>348.7</ele>
        <time>2024-06-09T10:05:07Z</time>
      </trkpt>
      <trkpt lat="48.19478" lon="6.5357">
        <ele>348.7</ele>
        <time>2024-06-09T10:05:16Z</time>
      </trkpt>
      <trkpt lat="48.19477" lon="6.53584">
        <ele>348.7</ele>
        <time>2024-06-09T10:05:23Z</time>
      </trkpt>
      <trkpt lat="48.19476" lon="6.53599">
        <ele>348.7</ele>
        <time>2024-06-09T10:05:30Z</time>
      </trkpt>
      <trkpt lat="48.19476" lon="6.53614">
        <ele>348.7</ele>
        <time>2024-06-09T10:05:39Z</time>
      </trkpt>
      <trkpt lat="48.1947" lon="6.53626">
        <ele>348.6</ele>
        <time>2024-06-09T10:05:48Z</time>
      </trkpt>
      <trkpt lat="48.19465" lon="6.53638">
        <ele>348.6</ele>
        <time>2024-06-09T10:05:55Z</time>
      </trkpt>
      <trkpt lat="48.19462" lon="6.53651">
        <ele>348.6</ele>
        <time>2024-06-09T10:06:02Z</time>
      </trkpt>
      <trkpt lat="48.19458" lon="6.53665">
        <ele>348.5</ele>
        <time>2024-06-09T10:06:09Z</time>
      </trkpt>
      <trkpt lat="48.19456" lon="6.53679">
        <ele>348.5</ele>
        <time>2024-06-09T10:06:17Z</time>
      </trkpt>
      <trkpt lat="48.19454" lon="6.53695">
        <ele>348.4</ele>
        <time>2024-06-09T10:06:25Z</time>
      </trkpt>
      <trkpt lat="48.19453" lon="6.53709">
        <ele>348.5</ele>
        <time>2024-06-09T10:06:31Z</time>
      </trkpt>
      <trkpt lat="48.19448" lon="6.53721">
        <ele>348.5</ele>
        <time>2024-06-09T10:06:39Z</time>
      </trkpt>
      <trkpt lat="48.19445" lon="6.53735">
        <ele>348.6</ele>
        <time>2024-06-09T10:06:48Z</time>
      </trkpt>
      <trkpt lat="48.1944" lon="6.53747">
        <ele>348.7</ele>
        <time>2024-06-09T10:06:56Z</time>
      </trkpt>
      <trkpt lat="48.1944" lon="6.53762">
        <ele>348.8</ele>
        <time>2024-06-09T10:07:03Z</time>
      </trkpt>
      <trkpt lat="48.19441" lon="6.53775">
        <ele>348.9</ele>
        <time>2024-06-09T10:07:08Z</time>
      </trkpt>
      <trkpt lat="48.19445" lon="6.53789">
        <ele>349</ele>
        <time>2024-06-09T10:07:14Z</time>
      </trkpt>
      <trkpt lat="48.19446" lon="6.53802">
        <ele>349.4</ele>
        <time>2024-06-09T10:07:22Z</time>
      </trkpt>
      <trkpt lat="48.19443" lon="6.53816">
        <ele>349.8</ele>
        <time>2024-06-09T10:07:30Z</time>
      </trkpt>
      <trkpt lat="48.19435" lon="6.53822">
        <ele>350.2</ele>
        <time>2024-06-09T10:07:41Z</time>
      </trkpt>
      <trkpt lat="48.19426" lon="6.53827">
        <ele>350.5</ele>
        <time>2024-06-09T10:07:50Z</time>
      </trkpt>
      <trkpt lat="48.1942" lon="6.53839">
        <ele>350.8</ele>
        <time>2024-06-09T10:07:59Z</time>
      </trkpt>
      <trkpt lat="48.19414" lon="6.53849">
        <ele>351.1</ele>
        <time>2024-06-09T10:08:10Z</time>
      </trkpt>
      <trkpt lat="48.19412" lon="6.53863">
        <ele>351.3</ele>
        <time>2024-06-09T10:08:16Z</time>
      </trkpt>
      <trkpt lat="48.19406" lon="6.53876">
        <ele>351.5</ele>
        <time>2024-06-09T10:08:23Z</time>
      </trkpt>
      <trkpt lat="48.19399" lon="6.53885">
        <ele>351.8</ele>
        <time>2024-06-09T10:08:32Z</time>
      </trkpt>
      <trkpt lat="48.19391" lon="6.53892">
        <ele>352</ele>
        <time>2024-06-09T10:08:42Z</time>
      </trkpt>
      <trkpt lat="48.19385" lon="6.53904">
        <ele>352.2</ele>
        <time>2024-06-09T10:08:51Z</time>
      </trkpt>
      <trkpt lat="48.1938" lon="6.53917">
        <ele>352.3</ele>
        <time>2024-06-09T10:08:58Z</time>
      </trkpt>
      <trkpt lat="48.19375" lon="6.53929">
        <ele>352.5</ele>
        <time>2024-06-09T10:09:05Z</time>
      </trkpt>
      <trkpt lat="48.19368" lon="6.53939">
        <ele>352.6</ele>
        <time>2024-06-09T10:09:13Z</time>
      </trkpt>
      <trkpt lat="48.19361" lon="6.53949">
        <ele>352.8</ele>
        <time>2024-06-09T10:09:21Z</time>
      </trkpt>
      <trkpt lat="48.19354" lon="6.5396">
        <ele>352.9</ele>
        <time>2024-06-09T10:09:29Z</time>
      </trkpt>
      <trkpt lat="48.19348" lon="6.53972">
        <ele>353.1</ele>
        <time>2024-06-09T10:09:37Z</time>
      </trkpt>
      <trkpt lat="48.19341" lon="6.53983">
        <ele>353.3</ele>
        <time>2024-06-09T10:09:45Z</time>
      </trkpt>
      <trkpt lat="48.19335" lon="6.53994">
        <ele>353.6</ele>
        <time>2024-06-09T10:09:52Z</time>
      </trkpt>
      <trkpt lat="48.19328" lon="6.54003">
        <ele>353.9</ele>
        <time>2024-06-09T10:10:00Z</time>
      </trkpt>
      <trkpt lat="48.19322" lon="6.54015">
        <ele>354.3</ele>
        <time>2024-06-09T10:10:07Z</time>
      </trkpt>
      <trkpt lat="48.19316" lon="6.54027">
        <ele>354.8</ele>
        <time>2024-06-09T10:10:15Z</time>
      </trkpt>
      <trkpt lat="48.1931" lon="6.54039">
        <ele>355.3</ele>
        <time>2024-06-09T10:10:23Z</time>
      </trkpt>
      <trkpt lat="48.19305" lon="6.5405">
        <ele>355.7</ele>
        <time>2024-06-09T10:10:30Z</time>
      </trkpt>
      <trkpt lat="48.19303" lon="6.54063">
        <ele>356.1</ele>
        <time>2024-06-09T10:10:37Z</time>
      </trkpt>
      <trkpt lat="48.193" lon="6.54076">
        <ele>356.3</ele>
        <time>2024-06-09T10:10:45Z</time>
      </trkpt>
      <trkpt lat="48.19296" lon="6.5409">
        <ele>356.6</ele>
        <time>2024-06-09T10:10:53Z</time>
      </trkpt>
      <trkpt lat="48.19291" lon="6.54102">
        <ele>356.9</ele>
        <time>2024-06-09T10:11:01Z</time>
      </trkpt>
      <trkpt lat="48.19287" lon="6.54115">
        <ele>357.2</ele>
        <time>2024-06-09T10:11:09Z</time>
      </trkpt>
      <trkpt lat="48.19284" lon="6.5413">
        <ele>357.4</ele>
        <time>2024-06-09T10:11:17Z</time>
      </trkpt>
      <trkpt lat="48.19283" lon="6.54144">
        <ele>357.7</ele>
        <time>2024-06-09T10:11:24Z</time>
      </trkpt>
      <trkpt lat="48.19281" lon="6.54159">
        <ele>358</ele>
        <time>2024-06-09T10:11:32Z</time>
      </trkpt>
      <trkpt lat="48.19277" lon="6.54171">
        <ele>358.4</ele>
        <time>2024-06-09T10:11:40Z</time>
      </trkpt>
      <trkpt lat="48.19274" lon="6.54184">
        <ele>358.8</ele>
        <time>2024-06-09T10:11:47Z</time>
      </trkpt>
      <trkpt lat="48.19272" lon="6.54198">
        <ele>359.3</ele>
        <time>2024-06-09T10:11:55Z</time>
      </trkpt>
      <trkpt lat="48.19269" lon="6.54211">
        <ele>359.9</ele>
        <time>2024-06-09T10:12:03Z</time>
      </trkpt>
      <trkpt lat="48.19264" lon="6.54223">
        <ele>360.5</ele>
        <time>2024-06-09T10:12:11Z</time>
      </trkpt>
      <trkpt lat="48.19257" lon="6.54232">
        <ele>361.2</ele>
        <time>2024-06-09T10:12:19Z</time>
      </trkpt>
      <trkpt lat="48.19255" lon="6.54245">
        <ele>361.6</ele>
        <time>2024-06-09T10:12:26Z</time>
      </trkpt>
      <trkpt lat="48.19255" lon="6.54259">
        <ele>361.8</ele>
        <time>2024-06-09T10:12:32Z</time>
      </trkpt>
      <trkpt lat="48.19253" lon="6.54274">
        <ele>361.8</ele>
        <time>2024-06-09T10:12:40Z</time>
      </trkpt>
      <trkpt lat="48.19252" lon="6.54289">
        <ele>361.7</ele>
        <time>2024-06-09T10:12:48Z</time>
      </trkpt>
      <trkpt lat="48.1925" lon="6.54304">
        <ele>361.8</ele>
        <time>2024-06-09T10:12:56Z</time>
      </trkpt>
      <trkpt lat="48.19249" lon="6.54317">
        <ele>361.9</ele>
        <time>2024-06-09T10:13:03Z</time>
      </trkpt>
      <trkpt lat="48.19243" lon="6.54329">
        <ele>362.1</ele>
        <time>2024-06-09T10:13:11Z</time>
      </trkpt>
      <trkpt lat="48.19236" lon="6.54338">
        <ele>362.4</ele>
        <time>2024-06-09T10:13:19Z</time>
      </trkpt>
      <trkpt lat="48.19234" lon="6.54353">
        <ele>362.5</ele>
        <time>2024-06-09T10:13:29Z</time>
      </trkpt>
      <trkpt lat="48.19234" lon="6.54368">
        <ele>362.6</ele>
        <time>2024-06-09T10:13:37Z</time>
      </trkpt>
      <trkpt lat="48.19233" lon="6.54382">
        <ele>362.6</ele>
        <time>2024-06-09T10:13:43Z</time>
      </trkpt>
      <trkpt lat="48.19229" lon="6.54397">
        <ele>362.6</ele>
        <time>2024-06-09T10:13:51Z</time>
      </trkpt>
      <trkpt lat="48.19223" lon="6.54408">
        <ele>362.6</ele>
        <time>2024-06-09T10:13:58Z</time>
      </trkpt>
      <trkpt lat="48.19218" lon="6.54421">
        <ele>362.6</ele>
        <time>2024-06-09T10:14:07Z</time>
      </trkpt>
      <trkpt lat="48.19214" lon="6.54433">
        <ele>362.5</ele>
        <time>2024-06-09T10:14:16Z</time>
      </trkpt>
      <trkpt lat="48.19216" lon="6.54448">
        <ele>362.3</ele>
        <time>2024-06-09T10:14:22Z</time>
      </trkpt>
      <trkpt lat="48.19219" lon="6.54461">
        <ele>361.9</ele>
        <time>2024-06-09T10:14:29Z</time>
      </trkpt>
      <trkpt lat="48.19218" lon="6.54475">
        <ele>361.4</ele>
        <time>2024-06-09T10:14:37Z</time>
      </trkpt>
      <trkpt lat="48.19217" lon="6.5449">
        <ele>360.9</ele>
        <time>2024-06-09T10:14:45Z</time>
      </trkpt>
      <trkpt lat="48.19213" lon="6.54503">
        <ele>360.4</ele>
        <time>2024-06-09T10:14:55Z</time>
      </trkpt>
      <trkpt lat="48.19219" lon="6.54513">
        <ele>360</ele>
        <time>2024-06-09T10:15:03Z</time>
      </trkpt>
      <trkpt lat="48.19225" lon="6.54527">
        <ele>359.5</ele>
        <time>2024-06-09T10:15:10Z</time>
      </trkpt>
      <trkpt lat="48.19231" lon="6.54538">
        <ele>359</ele>
        <time>2024-06-09T10:15:15Z</time>
      </trkpt>
      <trkpt lat="48.19234" lon="6.54551">
        <ele>358.5</ele>
        <time>2024-06-09T10:15:23Z</time>
      </trkpt>
      <trkpt lat="48.19237" lon="6.54566">
        <ele>358</ele>
        <time>2024-06-09T10:15:31Z</time>
      </trkpt>
      <trkpt lat="48.19239" lon="6.54579">
        <ele>357.4</ele>
        <time>2024-06-09T10:15:40Z</time>
      </trkpt>
      <trkpt lat="48.19246" lon="6.5459">
        <ele>356.6</ele>
        <time>2024-06-09T10:15:48Z</time>
      </trkpt>
      <trkpt lat="48.19253" lon="6.54601">
        <ele>355.8</ele>
        <time>2024-06-09T10:15:54Z</time>
      </trkpt>
      <trkpt lat="48.1926" lon="6.5461">
        <ele>355.2</ele>
        <time>2024-06-09T10:16:00Z</time>
      </trkpt>
      <trkpt lat="48.19268" lon="6.54618">
        <ele>354.7</ele>
        <time>2024-06-09T10:16:09Z</time>
      </trkpt>
      <trkpt lat="48.19277" lon="6.54623">
        <ele>354.2</ele>
        <time>2024-06-09T10:16:15Z</time>
      </trkpt>
      <trkpt lat="48.19286" lon="6.54626">
        <ele>353.8</ele>
        <time>2024-06-09T10:16:21Z</time>
      </trkpt>
      <trkpt lat="48.19295" lon="6.54627">
        <ele>353.4</ele>
        <time>2024-06-09T10:16:29Z</time>
      </trkpt>
      <trkpt lat="48.19304" lon="6.54631">
        <ele>352.9</ele>
        <time>2024-06-09T10:16:36Z</time>
      </trkpt>
      <trkpt lat="48.19313" lon="6.54634">
        <ele>352.7</ele>
        <time>2024-06-09T10:16:44Z</time>
      </trkpt>
      <trkpt lat="48.19322" lon="6.54638">
        <ele>352.4</ele>
        <time>2024-06-09T10:16:52Z</time>
      </trkpt>
      <trkpt lat="48.19331" lon="6.54641">
        <ele>352.2</ele>
        <time>2024-06-09T10:17:00Z</time>
      </trkpt>
      <trkpt lat="48.19339" lon="6.54649">
        <ele>351.9</ele>
        <time>2024-06-09T10:17:09Z</time>
      </trkpt>
      <trkpt lat="48.19345" lon="6.5466">
        <ele>351.8</ele>
        <time>2024-06-09T10:17:18Z</time>
      </trkpt>
      <trkpt lat="48.1935" lon="6.54673">
        <ele>351.7</ele>
        <time>2024-06-09T10:17:26Z</time>
      </trkpt>
      <trkpt lat="48.19357" lon="6.54684">
        <ele>351.7</ele>
        <time>2024-06-09T10:17:34Z</time>
      </trkpt>
      <trkpt lat="48.19364" lon="6.54694">
        <ele>351.8</ele>
        <time>2024-06-09T10:17:42Z</time>
      </trkpt>
      <trkpt lat="48.1937" lon="6.54704">
        <ele>352</ele>
        <time>2024-06-09T10:17:49Z</time>
      </trkpt>
      <trkpt lat="48.19375" lon="6.54716">
        <ele>352.2</ele>
        <time>2024-06-09T10:17:57Z</time>
      </trkpt>
      <trkpt lat="48.19377" lon="6.54729">
        <ele>352.5</ele>
        <time>2024-06-09T10:18:05Z</time>
      </trkpt>
      <trkpt lat="48.19376" lon="6.54743">
        <ele>352.7</ele>
        <time>2024-06-09T10:18:13Z</time>
      </trkpt>
      <trkpt lat="48.19372" lon="6.54756">
        <ele>352.9</ele>
        <time>2024-06-09T10:18:21Z</time>
      </trkpt>
      <trkpt lat="48.19368" lon="6.54768">
        <ele>353.1</ele>
        <time>2024-06-09T10:18:30Z</time>
      </trkpt>
      <trkpt lat="48.19363" lon="6.5478">
        <ele>353.2</ele>
        <time>2024-06-09T10:18:37Z</time>
      </trkpt>
      <trkpt lat="48.19358" lon="6.54792">
        <ele>353.3</ele>
        <time>2024-06-09T10:18:44Z</time>
      </trkpt>
      <trkpt lat="48.19353" lon="6.54805">
        <ele>353.5</ele>
        <time>2024-06-09T10:18:52Z</time>
      </trkpt>
      <trkpt lat="48.19353" lon="6.54819">
        <ele>353.7</ele>
        <time>2024-06-09T10:18:58Z</time>
      </trkpt>
      <trkpt lat="48.19355" lon="6.54833">
        <ele>354.2</ele>
        <time>2024-06-09T10:19:05Z</time>
      </trkpt>
      <trkpt lat="48.19358" lon="6.54846">
        <ele>354.8</ele>
        <time>2024-06-09T10:19:12Z</time>
      </trkpt>
      <trkpt lat="48.19363" lon="6.54858">
        <ele>355.3</ele>
        <time>2024-06-09T10:19:20Z</time>
      </trkpt>
      <trkpt lat="48.19369" lon="6.54869">
        <ele>355.8</ele>
        <time>2024-06-09T10:19:25Z</time>
      </trkpt>
      <trkpt lat="48.19377" lon="6.54877">
        <ele>356.4</ele>
        <time>2024-06-09T10:19:32Z</time>
      </trkpt>
      <trkpt lat="48.19384" lon="6.54884">
        <ele>357</ele>
        <time>2024-06-09T10:19:41Z</time>
      </trkpt>
      <trkpt lat="48.19391" lon="6.54894">
        <ele>357.9</ele>
        <time>2024-06-09T10:19:50Z</time>
      </trkpt>
      <trkpt lat="48.19398" lon="6.54904">
        <ele>358.8</ele>
        <time>2024-06-09T10:19:59Z</time>
      </trkpt>
      <trkpt lat="48.19405" lon="6.54913">
        <ele>359.8</ele>
        <time>2024-06-09T10:20:09Z</time>
      </trkpt>
      <trkpt lat="48.19413" lon="6.5492">
        <ele>360.6</ele>
        <time>2024-06-09T10:20:16Z</time>
      </trkpt>
      <trkpt lat="48.19422" lon="6.54924">
        <ele>361.5</ele>
        <time>2024-06-09T10:20:26Z</time>
      </trkpt>
      <trkpt lat="48.19431" lon="6.54932">
        <ele>362.2</ele>
        <time>2024-06-09T10:20:31Z</time>
      </trkpt>
      <trkpt lat="48.19439" lon="6.54936">
        <ele>362.8</ele>
        <time>2024-06-09T10:20:38Z</time>
      </trkpt>
      <trkpt lat="48.19449" lon="6.54944">
        <ele>363.3</ele>
        <time>2024-06-09T10:20:45Z</time>
      </trkpt>
      <trkpt lat="48.19457" lon="6.54952">
        <ele>363.7</ele>
        <time>2024-06-09T10:20:51Z</time>
      </trkpt>
      <trkpt lat="48.19464" lon="6.5496">
        <ele>364</ele>
        <time>2024-06-09T10:21:01Z</time>
      </trkpt>
      <trkpt lat="48.19471" lon="6.54969">
        <ele>364.2</ele>
        <time>2024-06-09T10:21:08Z</time>
      </trkpt>
      <trkpt lat="48.1948" lon="6.54976">
        <ele>364.5</ele>
        <time>2024-06-09T10:21:16Z</time>
      </trkpt>
      <trkpt lat="48.19487" lon="6.54983">
        <ele>364.8</ele>
        <time>2024-06-09T10:21:23Z</time>
      </trkpt>
      <trkpt lat="48.19495" lon="6.54991">
        <ele>365.1</ele>
        <time>2024-06-09T10:21:30Z</time>
      </trkpt>
      <trkpt lat="48.195" lon="6.55003">
        <ele>365.5</ele>
        <time>2024-06-09T10:21:38Z</time>
      </trkpt>
      <trkpt lat="48.19507" lon="6.55012">
        <ele>365.9</ele>
        <time>2024-06-09T10:21:45Z</time>
      </trkpt>
      <trkpt lat="48.19513" lon="6.55023">
        <ele>366.2</ele>
        <time>2024-06-09T10:21:52Z</time>
      </trkpt>
      <trkpt lat="48.19521" lon="6.55032">
        <ele>366.5</ele>
        <time>2024-06-09T10:22:06Z</time>
      </trkpt>
      <trkpt lat="48.19528" lon="6.5504">
        <ele>366.7</ele>
        <time>2024-06-09T10:22:14Z</time>
      </trkpt>
      <trkpt lat="48.19534" lon="6.55052">
        <ele>366.8</ele>
        <time>2024-06-09T10:22:22Z</time>
      </trkpt>
      <trkpt lat="48.19539" lon="6.55065">
        <ele>367.1</ele>
        <time>2024-06-09T10:22:31Z</time>
      </trkpt>
      <trkpt lat="48.19546" lon="6.55074">
        <ele>367.3</ele>
        <time>2024-06-09T10:22:40Z</time>
      </trkpt>
      <trkpt lat="48.19551" lon="6.55086">
        <ele>367.6</ele>
        <time>2024-06-09T10:22:48Z</time>
      </trkpt>
      <trkpt lat="48.19559" lon="6.55095">
        <ele>367.9</ele>
        <time>2024-06-09T10:22:56Z</time>
      </trkpt>
      <trkpt lat="48.19566" lon="6.55104">
        <ele>368.2</ele>
        <time>2024-06-09T10:23:03Z</time>
      </trkpt>
      <trkpt lat="48.19572" lon="6.55117">
        <ele>368.5</ele>
        <time>2024-06-09T10:23:13Z</time>
      </trkpt>
      <trkpt lat="48.1958" lon="6.55126">
        <ele>368.7</ele>
        <time>2024-06-09T10:23:20Z</time>
      </trkpt>
      <trkpt lat="48.19587" lon="6.55135">
        <ele>369</ele>
        <time>2024-06-09T10:23:26Z</time>
      </trkpt>
      <trkpt lat="48.19593" lon="6.55146">
        <ele>369.2</ele>
        <time>2024-06-09T10:23:35Z</time>
      </trkpt>
      <trkpt lat="48.196" lon="6.55156">
        <ele>369.3</ele>
        <time>2024-06-09T10:23:43Z</time>
      </trkpt>
      <trkpt lat="48.19607" lon="6.55165">
        <ele>369.3</ele>
        <time>2024-06-09T10:23:52Z</time>
      </trkpt>
      <trkpt lat="48.19616" lon="6.55173">
        <ele>369.1</ele>
        <time>2024-06-09T10:24:01Z</time>
      </trkpt>
      <trkpt lat="48.19626" lon="6.55177">
        <ele>369</ele>
        <time>2024-06-09T10:24:06Z</time>
      </trkpt>
      <trkpt lat="48.19635" lon="6.55182">
        <ele>368.8</ele>
        <time>2024-06-09T10:24:15Z</time>
      </trkpt>
      <trkpt lat="48.19644" lon="6.55187">
        <ele>368.7</ele>
        <time>2024-06-09T10:24:24Z</time>
      </trkpt>
      <trkpt lat="48.19654" lon="6.5519">
        <ele>368.6</ele>
        <time>2024-06-09T10:24:31Z</time>
      </trkpt>
      <trkpt lat="48.19661" lon="6.55199">
        <ele>368.5</ele>
        <time>2024-06-09T10:24:42Z</time>
      </trkpt>
      <trkpt lat="48.19671" lon="6.55203">
        <ele>368.5</ele>
        <time>2024-06-09T10:24:51Z</time>
      </trkpt>
      <trkpt lat="48.19679" lon="6.55211">
        <ele>368.5</ele>
        <time>2024-06-09T10:25:00Z</time>
      </trkpt>
      <trkpt lat="48.19689" lon="6.5521">
        <ele>368.4</ele>
        <time>2024-06-09T10:25:09Z</time>
      </trkpt>
      <trkpt lat="48.19696" lon="6.5522">
        <ele>368.1</ele>
        <time>2024-06-09T10:25:17Z</time>
      </trkpt>
      <trkpt lat="48.19703" lon="6.5523">
        <ele>367.9</ele>
        <time>2024-06-09T10:25:25Z</time>
      </trkpt>
      <trkpt lat="48.19712" lon="6.55235">
        <ele>367.7</ele>
        <time>2024-06-09T10:25:33Z</time>
      </trkpt>
      <trkpt lat="48.19722" lon="6.55239">
        <ele>367.7</ele>
        <time>2024-06-09T10:25:39Z</time>
      </trkpt>
      <trkpt lat="48.19728" lon="6.5525">
        <ele>367.8</ele>
        <time>2024-06-09T10:25:47Z</time>
      </trkpt>
      <trkpt lat="48.19736" lon="6.55258">
        <ele>367.9</ele>
        <time>2024-06-09T10:25:57Z</time>
      </trkpt>
      <trkpt lat="48.19743" lon="6.55268">
        <ele>368.1</ele>
        <time>2024-06-09T10:26:06Z</time>
      </trkpt>
      <trkpt lat="48.19751" lon="6.55276">
        <ele>368.2</ele>
        <time>2024-06-09T10:26:16Z</time>
      </trkpt>
      <trkpt lat="48.19758" lon="6.55287">
        <ele>368.4</ele>
        <time>2024-06-09T10:26:25Z</time>
      </trkpt>
      <trkpt lat="48.19763" lon="6.55299">
        <ele>368.6</ele>
        <time>2024-06-09T10:26:34Z</time>
      </trkpt>
      <trkpt lat="48.1977" lon="6.55309">
        <ele>368.9</ele>
        <time>2024-06-09T10:26:46Z</time>
      </trkpt>
      <trkpt lat="48.19779" lon="6.55318">
        <ele>369.2</ele>
        <time>2024-06-09T10:26:53Z</time>
      </trkpt>
      <trkpt lat="48.19785" lon="6.55329">
        <ele>369.5</ele>
        <time>2024-06-09T10:27:00Z</time>
      </trkpt>
      <trkpt lat="48.19789" lon="6.55343">
        <ele>369.9</ele>
        <time>2024-06-09T10:27:08Z</time>
      </trkpt>
      <trkpt lat="48.19794" lon="6.55355">
        <ele>370.3</ele>
        <time>2024-06-09T10:27:16Z</time>
      </trkpt>
      <trkpt lat="48.198" lon="6.55368">
        <ele>370.8</ele>
        <time>2024-06-09T10:27:23Z</time>
      </trkpt>
      <trkpt lat="48.19804" lon="6.55381">
        <ele>371.3</ele>
        <time>2024-06-09T10:27:29Z</time>
      </trkpt>
      <trkpt lat="48.19812" lon="6.55389">
        <ele>371.7</ele>
        <time>2024-06-09T10:27:37Z</time>
      </trkpt>
      <trkpt lat="48.19819" lon="6.55399">
        <ele>372.2</ele>
        <time>2024-06-09T10:27:46Z</time>
      </trkpt>
      <trkpt lat="48.19828" lon="6.55403">
        <ele>372.6</ele>
        <time>2024-06-09T10:27:53Z</time>
      </trkpt>
      <trkpt lat="48.19835" lon="6.55414">
        <ele>373.1</ele>
        <time>2024-06-09T10:28:01Z</time>
      </trkpt>
      <trkpt lat="48.19839" lon="6.55427">
        <ele>373.5</ele>
        <time>2024-06-09T10:28:09Z</time>
      </trkpt>
      <trkpt lat="48.19846" lon="6.55436">
        <ele>374</ele>
        <time>2024-06-09T10:28:16Z</time>
      </trkpt>
      <trkpt lat="48.19855" lon="6.55443">
        <ele>374.3</ele>
        <time>2024-06-09T10:28:25Z</time>
      </trkpt>
      <trkpt lat="48.19865" lon="6.55448">
        <ele>374.5</ele>
        <time>2024-06-09T10:28:35Z</time>
      </trkpt>
      <trkpt lat="48.19873" lon="6.55456">
        <ele>374.6</ele>
        <time>2024-06-09T10:28:42Z</time>
      </trkpt>
      <trkpt lat="48.19882" lon="6.55462">
        <ele>374.7</ele>
        <time>2024-06-09T10:28:48Z</time>
      </trkpt>
      <trkpt lat="48.19889" lon="6.5547">
        <ele>374.8</ele>
        <time>2024-06-09T10:28:57Z</time>
      </trkpt>
      <trkpt lat="48.19896" lon="6.55479">
        <ele>374.9</ele>
        <time>2024-06-09T10:29:04Z</time>
      </trkpt>
      <trkpt lat="48.19904" lon="6.55489">
        <ele>374.9</ele>
        <time>2024-06-09T10:29:13Z</time>
      </trkpt>
      <trkpt lat="48.1991" lon="6.55501">
        <ele>375</ele>
        <time>2024-06-09T10:29:21Z</time>
      </trkpt>
      <trkpt lat="48.19917" lon="6.5551">
        <ele>374.9</ele>
        <time>2024-06-09T10:29:31Z</time>
      </trkpt>
      <trkpt lat="48.19923" lon="6.5552">
        <ele>374.8</ele>
        <time>2024-06-09T10:29:39Z</time>
      </trkpt>
      <trkpt lat="48.19928" lon="6.55533">
        <ele>374.6</ele>
        <time>2024-06-09T10:29:49Z</time>
      </trkpt>
      <trkpt lat="48.19933" lon="6.55546">
        <ele>374.4</ele>
        <time>2024-06-09T10:29:57Z</time>
      </trkpt>
      <trkpt lat="48.19941" lon="6.55556">
        <ele>374.2</ele>
        <time>2024-06-09T10:30:03Z</time>
      </trkpt>
      <trkpt lat="48.19948" lon="6.55567">
        <ele>374.1</ele>
        <time>2024-06-09T10:30:09Z</time>
      </trkpt>
      <trkpt lat="48.1995" lon="6.55581">
        <ele>374</ele>
        <time>2024-06-09T10:30:17Z</time>
      </trkpt>
      <trkpt lat="48.19953" lon="6.55594">
        <ele>373.9</ele>
        <time>2024-06-09T10:30:30Z</time>
      </trkpt>
      <trkpt lat="48.19957" lon="6.55607">
        <ele>373.7</ele>
        <time>2024-06-09T10:30:39Z</time>
      </trkpt>
      <trkpt lat="48.1996" lon="6.5562">
        <ele>373.3</ele>
        <time>2024-06-09T10:30:45Z</time>
      </trkpt>
      <trkpt lat="48.19962" lon="6.55634">
        <ele>372.9</ele>
        <time>2024-06-09T10:30:53Z</time>
      </trkpt>
      <trkpt lat="48.19966" lon="6.55646">
        <ele>372.5</ele>
        <time>2024-06-09T10:31:03Z</time>
      </trkpt>
      <trkpt lat="48.19972" lon="6.55656">
        <ele>372.1</ele>
        <time>2024-06-09T10:31:08Z</time>
      </trkpt>
      <trkpt lat="48.19973" lon="6.5567">
        <ele>371.7</ele>
        <time>2024-06-09T10:31:18Z</time>
      </trkpt>
      <trkpt lat="48.19973" lon="6.55685">
        <ele>371.4</ele>
        <time>2024-06-09T10:31:26Z</time>
      </trkpt>
      <trkpt lat="48.19978" lon="6.55696">
        <ele>371</ele>
        <time>2024-06-09T10:31:34Z</time>
      </trkpt>
      <trkpt lat="48.19978" lon="6.55696">
        <ele>371</ele>
        <time>2024-06-09T10:31:35Z</time>
      </trkpt>
      <trkpt lat="48.19978" lon="6.55696">
        <ele>371</ele>
        <time>2024-06-09T10:31:36Z</time>
      </trkpt>
      <trkpt lat="48.19978" lon="6.55699">
        <ele>371</ele>
        <time>2024-06-09T10:31:43Z</time>
      </trkpt>
      <trkpt lat="48.19978" lon="6.557">
        <ele>370.9</ele>
        <time>2024-06-09T10:31:44Z</time>
      </trkpt>
      <trkpt lat="48.19978" lon="6.55702">
        <ele>370.9</ele>
        <time>2024-06-09T10:31:45Z</time>
      </trkpt>
      <trkpt lat="48.19983" lon="6.55714">
        <ele>370.5</ele>
        <time>2024-06-09T10:31:55Z</time>
      </trkpt>
      <trkpt lat="48.19983" lon="6.55727">
        <ele>370.2</ele>
        <time>2024-06-09T10:32:05Z</time>
      </trkpt>
      <trkpt lat="48.19982" lon="6.55742">
        <ele>369.9</ele>
        <time>2024-06-09T10:32:13Z</time>
      </trkpt>
      <trkpt lat="48.19974" lon="6.55751">
        <ele>369.7</ele>
        <time>2024-06-09T10:32:22Z</time>
      </trkpt>
      <trkpt lat="48.19971" lon="6.55759">
        <ele>369.6</ele>
        <time>2024-06-09T10:32:31Z</time>
      </trkpt>
      <trkpt lat="48.19971" lon="6.55759">
        <ele>369.6</ele>
        <time>2024-06-09T10:32:32Z</time>
      </trkpt>
      <trkpt lat="48.19971" lon="6.55759">
        <ele>369.6</ele>
        <time>2024-06-09T10:32:33Z</time>
      </trkpt>
      <trkpt lat="48.19971" lon="6.55759">
        <ele>369.6</ele>
        <time>2024-06-09T10:32:41Z</time>
      </trkpt>
      <trkpt lat="48.1997" lon="6.5576">
        <ele>369.6</ele>
        <time>2024-06-09T10:32:42Z</time>
      </trkpt>
      <trkpt lat="48.19964" lon="6.55772">
        <ele>369.4</ele>
        <time>2024-06-09T10:32:51Z</time>
      </trkpt>
      <trkpt lat="48.19958" lon="6.55782">
        <ele>369.3</ele>
        <time>2024-06-09T10:32:59Z</time>
      </trkpt>
      <trkpt lat="48.19953" lon="6.55794">
        <ele>369.3</ele>
        <time>2024-06-09T10:33:07Z</time>
      </trkpt>
      <trkpt lat="48.19949" lon="6.55807">
        <ele>369.1</ele>
        <time>2024-06-09T10:33:16Z</time>
      </trkpt>
      <trkpt lat="48.19952" lon="6.55821">
        <ele>368.8</ele>
        <time>2024-06-09T10:33:22Z</time>
      </trkpt>
      <trkpt lat="48.19954" lon="6.55835">
        <ele>368.6</ele>
        <time>2024-06-09T10:33:34Z</time>
      </trkpt>
      <trkpt lat="48.19958" lon="6.55847">
        <ele>368.3</ele>
        <time>2024-06-09T10:33:46Z</time>
      </trkpt>
      <trkpt lat="48.19966" lon="6.55853">
        <ele>368.1</ele>
        <time>2024-06-09T10:33:54Z</time>
      </trkpt>
      <trkpt lat="48.1997" lon="6.55867">
        <ele>368</ele>
        <time>2024-06-09T10:34:01Z</time>
      </trkpt>
      <trkpt lat="48.19978" lon="6.55878">
        <ele>367.9</ele>
        <time>2024-06-09T10:34:10Z</time>
      </trkpt>
      <trkpt lat="48.19985" lon="6.55889">
        <ele>367.8</ele>
        <time>2024-06-09T10:34:17Z</time>
      </trkpt>
      <trkpt lat="48.1999" lon="6.55902">
        <ele>367.7</ele>
        <time>2024-06-09T10:34:24Z</time>
      </trkpt>
      <trkpt lat="48.19995" lon="6.55915">
        <ele>367.4</ele>
        <time>2024-06-09T10:34:33Z</time>
      </trkpt>
      <trkpt lat="48.19996" lon="6.55928">
        <ele>367</ele>
        <time>2024-06-09T10:34:41Z</time>
      </trkpt>
      <trkpt lat="48.19994" lon="6.55942">
        <ele>366.6</ele>
        <time>2024-06-09T10:34:50Z</time>
      </trkpt>
      <trkpt lat="48.1999" lon="6.55955">
        <ele>366.2</ele>
        <time>2024-06-09T10:34:59Z</time>
      </trkpt>
      <trkpt lat="48.19982" lon="6.55962">
        <ele>366.5</ele>
        <time>2024-06-09T10:35:05Z</time>
      </trkpt>
      <trkpt lat="48.19974" lon="6.55968">
        <ele>367.4</ele>
        <time>2024-06-09T10:35:13Z</time>
      </trkpt>
      <trkpt lat="48.19965" lon="6.55974">
        <ele>368.3</ele>
        <time>2024-06-09T10:35:23Z</time>
      </trkpt>
      <trkpt lat="48.19956" lon="6.55977">
        <ele>369.2</ele>
        <time>2024-06-09T10:35:32Z</time>
      </trkpt>
      <trkpt lat="48.19945" lon="6.55978">
        <ele>370</ele>
        <time>2024-06-09T10:35:38Z</time>
      </trkpt>
      <trkpt lat="48.19936" lon="6.55978">
        <ele>370.4</ele>
        <time>2024-06-09T10:35:47Z</time>
      </trkpt>
      <trkpt lat="48.19927" lon="6.55976">
        <ele>370.7</ele>
        <time>2024-06-09T10:35:51Z</time>
      </trkpt>
      <trkpt lat="48.19918" lon="6.55972">
        <ele>370.9</ele>
        <time>2024-06-09T10:35:57Z</time>
      </trkpt>
      <trkpt lat="48.19909" lon="6.5597">
        <ele>371.1</ele>
        <time>2024-06-09T10:36:05Z</time>
      </trkpt>
      <trkpt lat="48.19899" lon="6.55975">
        <ele>371</ele>
        <time>2024-06-09T10:36:15Z</time>
      </trkpt>
      <trkpt lat="48.19893" lon="6.55985">
        <ele>370.5</ele>
        <time>2024-06-09T10:36:23Z</time>
      </trkpt>
      <trkpt lat="48.19885" lon="6.55993">
        <ele>370</ele>
        <time>2024-06-09T10:36:29Z</time>
      </trkpt>
      <trkpt lat="48.1988" lon="6.56006">
        <ele>369.7</ele>
        <time>2024-06-09T10:36:38Z</time>
      </trkpt>
      <trkpt lat="48.19877" lon="6.5602">
        <ele>370</ele>
        <time>2024-06-09T10:36:51Z</time>
      </trkpt>
      <trkpt lat="48.19876" lon="6.56035">
        <ele>370.8</ele>
        <time>2024-06-09T10:36:58Z</time>
      </trkpt>
      <trkpt lat="48.19872" lon="6.56049">
        <ele>371.8</ele>
        <time>2024-06-09T10:37:06Z</time>
      </trkpt>
      <trkpt lat="48.19864" lon="6.56059">
        <ele>372.7</ele>
        <time>2024-06-09T10:37:12Z</time>
      </trkpt>
      <trkpt lat="48.19861" lon="6.56073">
        <ele>373.4</ele>
        <time>2024-06-09T10:37:21Z</time>
      </trkpt>
      <trkpt lat="48.19858" lon="6.56088">
        <ele>374</ele>
        <time>2024-06-09T10:37:29Z</time>
      </trkpt>
      <trkpt lat="48.19856" lon="6.56102">
        <ele>374.5</ele>
        <time>2024-06-09T10:37:35Z</time>
      </trkpt>
      <trkpt lat="48.19854" lon="6.56116">
        <ele>374.8</ele>
        <time>2024-06-09T10:37:44Z</time>
      </trkpt>
      <trkpt lat="48.19849" lon="6.56128">
        <ele>375.1</ele>
        <time>2024-06-09T10:37:55Z</time>
      </trkpt>
      <trkpt lat="48.19844" lon="6.56141">
        <ele>375.4</ele>
        <time>2024-06-09T10:38:02Z</time>
      </trkpt>
      <trkpt lat="48.1984" lon="6.56153">
        <ele>375.5</ele>
        <time>2024-06-09T10:38:11Z</time>
      </trkpt>
      <trkpt lat="48.19837" lon="6.56167">
        <ele>375.7</ele>
        <time>2024-06-09T10:38:20Z</time>
      </trkpt>
      <trkpt lat="48.19833" lon="6.5618">
        <ele>375.6</ele>
        <time>2024-06-09T10:38:28Z</time>
      </trkpt>
      <trkpt lat="48.19831" lon="6.56194">
        <ele>375.3</ele>
        <time>2024-06-09T10:38:38Z</time>
      </trkpt>
      <trkpt lat="48.19834" lon="6.56208">
        <ele>374.8</ele>
        <time>2024-06-09T10:38:46Z</time>
      </trkpt>
      <trkpt lat="48.19836" lon="6.56223">
        <ele>374.2</ele>
        <time>2024-06-09T10:38:55Z</time>
      </trkpt>
      <trkpt lat="48.19837" lon="6.56237">
        <ele>373.7</ele>
        <time>2024-06-09T10:39:02Z</time>
      </trkpt>
      <trkpt lat="48.19846" lon="6.56242">
        <ele>371.1</ele>
        <time>2024-06-09T10:39:11Z</time>
      </trkpt>
      <trkpt lat="48.19853" lon="6.56251">
        <ele>370</ele>
        <time>2024-06-09T10:39:19Z</time>
      </trkpt>
      <trkpt lat="48.19862" lon="6.56261">
        <ele>369</ele>
        <time>2024-06-09T10:39:25Z</time>
      </trkpt>
      <trkpt lat="48.19869" lon="6.5627">
        <ele>368.3</ele>
        <time>2024-06-09T10:39:31Z</time>
      </trkpt>
      <trkpt lat="48.19878" lon="6.56277">
        <ele>367.9</ele>
        <time>2024-06-09T10:39:41Z</time>
      </trkpt>
      <trkpt lat="48.19887" lon="6.56282">
        <ele>367.5</ele>
        <time>2024-06-09T10:39:50Z</time>
      </trkpt>
      <trkpt lat="48.19896" lon="6.56286">
        <ele>367.3</ele>
        <time>2024-06-09T10:39:59Z</time>
      </trkpt>
      <trkpt lat="48.19904" lon="6.56292">
        <ele>367.2</ele>
        <time>2024-06-09T10:40:06Z</time>
      </trkpt>
      <trkpt lat="48.19909" lon="6.56301">
        <ele>367.1</ele>
        <time>2024-06-09T10:40:23Z</time>
      </trkpt>
      <trkpt lat="48.19909" lon="6.563">
        <ele>367.1</ele>
        <time>2024-06-09T10:40:24Z</time>
      </trkpt>
      <trkpt lat="48.19909" lon="6.563">
        <ele>367.1</ele>
        <time>2024-06-09T10:40:25Z</time>
      </trkpt>
      <trkpt lat="48.19909" lon="6.56299">
        <ele>367.1</ele>
        <time>2024-06-09T10:40:28Z</time>
      </trkpt>
      <trkpt lat="48.19909" lon="6.56299">
        <ele>367.1</ele>
        <time>2024-06-09T10:40:29Z</time>
      </trkpt>
      <trkpt lat="48.19909" lon="6.56299">
        <ele>367.1</ele>
        <time>2024-06-09T10:40:30Z</time>
      </trkpt>
      <trkpt lat="48.19908" lon="6.56298">
        <ele>367.1</ele>
        <time>2024-06-09T10:40:31Z</time>
      </trkpt>
      <trkpt lat="48.19908" lon="6.56298">
        <ele>367.1</ele>
        <time>2024-06-09T10:40:32Z</time>
      </trkpt>
      <trkpt lat="48.19908" lon="6.56298">
        <ele>367.1</ele>
        <time>2024-06-09T10:40:33Z</time>
      </trkpt>
      <trkpt lat="48.19908" lon="6.56298">
        <ele>367.1</ele>
        <time>2024-06-09T10:40:38Z</time>
      </trkpt>
      <trkpt lat="48.19908" lon="6.56298">
        <ele>367.1</ele>
        <time>2024-06-09T10:40:39Z</time>
      </trkpt>
      <trkpt lat="48.19908" lon="6.56299">
        <ele>367.1</ele>
        <time>2024-06-09T10:40:40Z</time>
      </trkpt>
      <trkpt lat="48.19903" lon="6.56313">
        <ele>367.2</ele>
        <time>2024-06-09T10:40:49Z</time>
      </trkpt>
      <trkpt lat="48.19899" lon="6.56326">
        <ele>367.4</ele>
        <time>2024-06-09T10:40:58Z</time>
      </trkpt>
      <trkpt lat="48.19896" lon="6.5634">
        <ele>367.5</ele>
        <time>2024-06-09T10:41:06Z</time>
      </trkpt>
      <trkpt lat="48.19892" lon="6.56352">
        <ele>367.7</ele>
        <time>2024-06-09T10:41:14Z</time>
      </trkpt>
      <trkpt lat="48.19888" lon="6.56366">
        <ele>368</ele>
        <time>2024-06-09T10:41:21Z</time>
      </trkpt>
      <trkpt lat="48.19882" lon="6.56378">
        <ele>368.3</ele>
        <time>2024-06-09T10:41:28Z</time>
      </trkpt>
      <trkpt lat="48.19879" lon="6.56391">
        <ele>368.7</ele>
        <time>2024-06-09T10:41:35Z</time>
      </trkpt>
      <trkpt lat="48.19876" lon="6.56404">
        <ele>369.1</ele>
        <time>2024-06-09T10:41:42Z</time>
      </trkpt>
      <trkpt lat="48.19871" lon="6.56417">
        <ele>369.5</ele>
        <time>2024-06-09T10:41:50Z</time>
      </trkpt>
      <trkpt lat="48.19865" lon="6.56429">
        <ele>370.1</ele>
        <time>2024-06-09T10:41:58Z</time>
      </trkpt>
      <trkpt lat="48.19859" lon="6.56439">
        <ele>370.6</ele>
        <time>2024-06-09T10:42:05Z</time>
      </trkpt>
      <trkpt lat="48.19852" lon="6.56449">
        <ele>371.2</ele>
        <time>2024-06-09T10:42:12Z</time>
      </trkpt>
      <trkpt lat="48.19846" lon="6.56461">
        <ele>371.8</ele>
        <time>2024-06-09T10:42:20Z</time>
      </trkpt>
      <trkpt lat="48.19841" lon="6.56473">
        <ele>372.4</ele>
        <time>2024-06-09T10:42:27Z</time>
      </trkpt>
      <trkpt lat="48.19835" lon="6.56483">
        <ele>373</ele>
        <time>2024-06-09T10:42:34Z</time>
      </trkpt>
      <trkpt lat="48.19829" lon="6.56495">
        <ele>373.5</ele>
        <time>2024-06-09T10:42:42Z</time>
      </trkpt>
      <trkpt lat="48.19822" lon="6.56506">
        <ele>374</ele>
        <time>2024-06-09T10:42:50Z</time>
      </trkpt>
      <trkpt lat="48.19816" lon="6.56517">
        <ele>374.1</ele>
        <time>2024-06-09T10:42:57Z</time>
      </trkpt>
      <trkpt lat="48.19812" lon="6.56529">
        <ele>374.2</ele>
        <time>2024-06-09T10:43:04Z</time>
      </trkpt>
      <trkpt lat="48.19807" lon="6.56542">
        <ele>374.1</ele>
        <time>2024-06-09T10:43:12Z</time>
      </trkpt>
      <trkpt lat="48.19803" lon="6.56554">
        <ele>373.9</ele>
        <time>2024-06-09T10:43:19Z</time>
      </trkpt>
      <trkpt lat="48.198" lon="6.56567">
        <ele>373.7</ele>
        <time>2024-06-09T10:43:26Z</time>
      </trkpt>
      <trkpt lat="48.19796" lon="6.5658">
        <ele>373.6</ele>
        <time>2024-06-09T10:43:33Z</time>
      </trkpt>
      <trkpt lat="48.19791" lon="6.56593">
        <ele>373.5</ele>
        <time>2024-06-09T10:43:41Z</time>
      </trkpt>
      <trkpt lat="48.19787" lon="6.56605">
        <ele>373.5</ele>
        <time>2024-06-09T10:43:48Z</time>
      </trkpt>
      <trkpt lat="48.19782" lon="6.56618">
        <ele>373.4</ele>
        <time>2024-06-09T10:43:56Z</time>
      </trkpt>
      <trkpt lat="48.19776" lon="6.5663">
        <ele>373.5</ele>
        <time>2024-06-09T10:44:04Z</time>
      </trkpt>
      <trkpt lat="48.19772" lon="6.56643">
        <ele>373.5</ele>
        <time>2024-06-09T10:44:12Z</time>
      </trkpt>
      <trkpt lat="48.19765" lon="6.56653">
        <ele>373.6</ele>
        <time>2024-06-09T10:44:20Z</time>
      </trkpt>
      <trkpt lat="48.1976" lon="6.56665">
        <ele>373.6</ele>
        <time>2024-06-09T10:44:28Z</time>
      </trkpt>
      <trkpt lat="48.19757" lon="6.56678">
        <ele>373.7</ele>
        <time>2024-06-09T10:44:36Z</time>
      </trkpt>
      <trkpt lat="48.19751" lon="6.56691">
        <ele>373.8</ele>
        <time>2024-06-09T10:44:44Z</time>
      </trkpt>
      <trkpt lat="48.19744" lon="6.56701">
        <ele>374</ele>
        <time>2024-06-09T10:44:51Z</time>
      </trkpt>
      <trkpt lat="48.19738" lon="6.56714">
        <ele>374.2</ele>
        <time>2024-06-09T10:44:59Z</time>
      </trkpt>
      <trkpt lat="48.19733" lon="6.56726">
        <ele>374.5</ele>
        <time>2024-06-09T10:45:07Z</time>
      </trkpt>
      <trkpt lat="48.19727" lon="6.56738">
        <ele>374.8</ele>
        <time>2024-06-09T10:45:15Z</time>
      </trkpt>
      <trkpt lat="48.19721" lon="6.56748">
        <ele>375.2</ele>
        <time>2024-06-09T10:45:23Z</time>
      </trkpt>
      <trkpt lat="48.19714" lon="6.56758">
        <ele>375.6</ele>
        <time>2024-06-09T10:45:31Z</time>
      </trkpt>
      <trkpt lat="48.19708" lon="6.56769">
        <ele>376.1</ele>
        <time>2024-06-09T10:45:38Z</time>
      </trkpt>
      <trkpt lat="48.19703" lon="6.56782">
        <ele>376.6</ele>
        <time>2024-06-09T10:45:46Z</time>
      </trkpt>
      <trkpt lat="48.19698" lon="6.56793">
        <ele>377.1</ele>
        <time>2024-06-09T10:45:53Z</time>
      </trkpt>
      <trkpt lat="48.19695" lon="6.56806">
        <ele>377.6</ele>
        <time>2024-06-09T10:46:00Z</time>
      </trkpt>
      <trkpt lat="48.1969" lon="6.56818">
        <ele>378.1</ele>
        <time>2024-06-09T10:46:07Z</time>
      </trkpt>
      <trkpt lat="48.19689" lon="6.56833">
        <ele>378.7</ele>
        <time>2024-06-09T10:46:15Z</time>
      </trkpt>
      <trkpt lat="48.19688" lon="6.56848">
        <ele>379.2</ele>
        <time>2024-06-09T10:46:23Z</time>
      </trkpt>
      <trkpt lat="48.19688" lon="6.56862">
        <ele>379.7</ele>
        <time>2024-06-09T10:46:31Z</time>
      </trkpt>
      <trkpt lat="48.19687" lon="6.56875">
        <ele>380.2</ele>
        <time>2024-06-09T10:46:38Z</time>
      </trkpt>
      <trkpt lat="48.19687" lon="6.56889">
        <ele>380.5</ele>
        <time>2024-06-09T10:46:45Z</time>
      </trkpt>
      <trkpt lat="48.19688" lon="6.56894">
        <ele>380.7</ele>
        <time>2024-06-09T10:46:54Z</time>
      </trkpt>
      <trkpt lat="48.19688" lon="6.56894">
        <ele>380.7</ele>
        <time>2024-06-09T10:46:55Z</time>
      </trkpt>
      <trkpt lat="48.19688" lon="6.56894">
        <ele>380.7</ele>
        <time>2024-06-09T10:47:13Z</time>
      </trkpt>
      <trkpt lat="48.19688" lon="6.56895">
        <ele>380.7</ele>
        <time>2024-06-09T10:47:14Z</time>
      </trkpt>
      <trkpt lat="48.19687" lon="6.56897">
        <ele>380.8</ele>
        <time>2024-06-09T10:47:15Z</time>
      </trkpt>
      <trkpt lat="48.19685" lon="6.56911">
        <ele>381.1</ele>
        <time>2024-06-09T10:47:23Z</time>
      </trkpt>
      <trkpt lat="48.19684" lon="6.56925">
        <ele>381.6</ele>
        <time>2024-06-09T10:47:31Z</time>
      </trkpt>
      <trkpt lat="48.1968" lon="6.56937">
        <ele>382</ele>
        <time>2024-06-09T10:47:38Z</time>
      </trkpt>
      <trkpt lat="48.19678" lon="6.56952">
        <ele>382.5</ele>
        <time>2024-06-09T10:47:46Z</time>
      </trkpt>
      <trkpt lat="48.19674" lon="6.56966">
        <ele>383</ele>
        <time>2024-06-09T10:47:54Z</time>
      </trkpt>
      <trkpt lat="48.1967" lon="6.56979">
        <ele>383.5</ele>
        <time>2024-06-09T10:48:02Z</time>
      </trkpt>
      <trkpt lat="48.19665" lon="6.56991">
        <ele>383.9</ele>
        <time>2024-06-09T10:48:10Z</time>
      </trkpt>
      <trkpt lat="48.1966" lon="6.57005">
        <ele>384.4</ele>
        <time>2024-06-09T10:48:18Z</time>
      </trkpt>
      <trkpt lat="48.19656" lon="6.57018">
        <ele>384.8</ele>
        <time>2024-06-09T10:48:26Z</time>
      </trkpt>
      <trkpt lat="48.19652" lon="6.57031">
        <ele>385.2</ele>
        <time>2024-06-09T10:48:33Z</time>
      </trkpt>
      <trkpt lat="48.19647" lon="6.57044">
        <ele>385.5</ele>
        <time>2024-06-09T10:48:41Z</time>
      </trkpt>
      <trkpt lat="48.19643" lon="6.57057">
        <ele>385.9</ele>
        <time>2024-06-09T10:48:49Z</time>
      </trkpt>
      <trkpt lat="48.1964" lon="6.5707">
        <ele>386.2</ele>
        <time>2024-06-09T10:48:57Z</time>
      </trkpt>
      <trkpt lat="48.19635" lon="6.57084">
        <ele>386.6</ele>
        <time>2024-06-09T10:49:05Z</time>
      </trkpt>
      <trkpt lat="48.19631" lon="6.57096">
        <ele>386.9</ele>
        <time>2024-06-09T10:49:12Z</time>
      </trkpt>
      <trkpt lat="48.19627" lon="6.57109">
        <ele>387.1</ele>
        <time>2024-06-09T10:49:20Z</time>
      </trkpt>
      <trkpt lat="48.19622" lon="6.57122">
        <ele>387.2</ele>
        <time>2024-06-09T10:49:28Z</time>
      </trkpt>
      <trkpt lat="48.19617" lon="6.57134">
        <ele>387.4</ele>
        <time>2024-06-09T10:49:34Z</time>
      </trkpt>
      <trkpt lat="48.19613" lon="6.57146">
        <ele>387.6</ele>
        <time>2024-06-09T10:49:41Z</time>
      </trkpt>
      <trkpt lat="48.19609" lon="6.57159">
        <ele>387.8</ele>
        <time>2024-06-09T10:49:49Z</time>
      </trkpt>
      <trkpt lat="48.19606" lon="6.57172">
        <ele>388.1</ele>
        <time>2024-06-09T10:49:57Z</time>
      </trkpt>
      <trkpt lat="48.19602" lon="6.57185">
        <ele>388.4</ele>
        <time>2024-06-09T10:50:05Z</time>
      </trkpt>
      <trkpt lat="48.19597" lon="6.57197">
        <ele>388.6</ele>
        <time>2024-06-09T10:50:13Z</time>
      </trkpt>
      <trkpt lat="48.19593" lon="6.5721">
        <ele>388.8</ele>
        <time>2024-06-09T10:50:21Z</time>
      </trkpt>
      <trkpt lat="48.19591" lon="6.57224">
        <ele>389</ele>
        <time>2024-06-09T10:50:29Z</time>
      </trkpt>
      <trkpt lat="48.19598" lon="6.57234">
        <ele>389.5</ele>
        <time>2024-06-09T10:50:36Z</time>
      </trkpt>
      <trkpt lat="48.19606" lon="6.57237">
        <ele>389.9</ele>
        <time>2024-06-09T10:50:43Z</time>
      </trkpt>
      <trkpt lat="48.19617" lon="6.57237">
        <ele>390.4</ele>
        <time>2024-06-09T10:50:53Z</time>
      </trkpt>
      <trkpt lat="48.19626" lon="6.57236">
        <ele>391</ele>
        <time>2024-06-09T10:51:01Z</time>
      </trkpt>
      <trkpt lat="48.19636" lon="6.57237">
        <ele>391.6</ele>
        <time>2024-06-09T10:51:09Z</time>
      </trkpt>
      <trkpt lat="48.19645" lon="6.57239">
        <ele>392.2</ele>
        <time>2024-06-09T10:51:17Z</time>
      </trkpt>
      <trkpt lat="48.19655" lon="6.57244">
        <ele>393</ele>
        <time>2024-06-09T10:51:25Z</time>
      </trkpt>
      <trkpt lat="48.19663" lon="6.5725">
        <ele>393.7</ele>
        <time>2024-06-09T10:51:33Z</time>
      </trkpt>
      <trkpt lat="48.19671" lon="6.57256">
        <ele>394.5</ele>
        <time>2024-06-09T10:51:40Z</time>
      </trkpt>
      <trkpt lat="48.19679" lon="6.57265">
        <ele>395.3</ele>
        <time>2024-06-09T10:51:49Z</time>
      </trkpt>
      <trkpt lat="48.19681" lon="6.57269">
        <ele>395.6</ele>
        <time>2024-06-09T10:52:06Z</time>
      </trkpt>
      <trkpt lat="48.19681" lon="6.57269">
        <ele>395.7</ele>
        <time>2024-06-09T10:52:07Z</time>
      </trkpt>
      <trkpt lat="48.1969" lon="6.57268">
        <ele>396.4</ele>
        <time>2024-06-09T10:56:06Z</time>
      </trkpt>
      <trkpt lat="48.1969" lon="6.57268">
        <ele>396.4</ele>
        <time>2024-06-09T10:56:07Z</time>
      </trkpt>
      <trkpt lat="48.1969" lon="6.57268">
        <ele>396.4</ele>
        <time>2024-06-09T10:56:08Z</time>
      </trkpt>
      <trkpt lat="48.1969" lon="6.57268">
        <ele>396.4</ele>
        <time>2024-06-09T10:56:09Z</time>
      </trkpt>
      <trkpt lat="48.1969" lon="6.57269">
        <ele>396.4</ele>
        <time>2024-06-09T10:56:10Z</time>
      </trkpt>
      <trkpt lat="48.1969" lon="6.57268">
        <ele>396.4</ele>
        <time>2024-06-09T10:58:28Z</time>
      </trkpt>
      <trkpt lat="48.1969" lon="6.57268">
        <ele>396.4</ele>
        <time>2024-06-09T10:58:29Z</time>
      </trkpt>
      <trkpt lat="48.1969" lon="6.57268">
        <ele>396.4</ele>
        <time>2024-06-09T10:58:30Z</time>
      </trkpt>
      <trkpt lat="48.1969" lon="6.57268">
        <ele>396.4</ele>
        <time>2024-06-09T10:58:31Z</time>
      </trkpt>
      <trkpt lat="48.1969" lon="6.57268">
        <ele>396.4</ele>
        <time>2024-06-09T10:58:32Z</time>
      </trkpt>
      <trkpt lat="48.1969" lon="6.57268">
        <ele>396.4</ele>
        <time>2024-06-09T10:58:33Z</time>
      </trkpt>
      <trkpt lat="48.1969" lon="6.57268">
        <ele>396.5</ele>
        <time>2024-06-09T10:58:41Z</time>
      </trkpt>
      <trkpt lat="48.1969" lon="6.57268">
        <ele>396.5</ele>
        <time>2024-06-09T10:58:42Z</time>
      </trkpt>
      <trkpt lat="48.1969" lon="6.57268">
        <ele>396.5</ele>
        <time>2024-06-09T10:58:43Z</time>
      </trkpt>
      <trkpt lat="48.1969" lon="6.57268">
        <ele>396.5</ele>
        <time>2024-06-09T10:58:44Z</time>
      </trkpt>
      <trkpt lat="48.1969" lon="6.57268">
        <ele>396.5</ele>
        <time>2024-06-09T10:58:45Z</time>
      </trkpt>
      <trkpt lat="48.1969" lon="6.57268">
        <ele>396.5</ele>
        <time>2024-06-09T10:58:46Z</time>
      </trkpt>
      <trkpt lat="48.1969" lon="6.57268">
        <ele>396.5</ele>
        <time>2024-06-09T10:58:47Z</time>
      </trkpt>
      <trkpt lat="48.1969" lon="6.57268">
        <ele>396.5</ele>
        <time>2024-06-09T10:58:48Z</time>
      </trkpt>
      <trkpt lat="48.1969" lon="6.57268">
        <ele>396.5</ele>
        <time>2024-06-09T10:58:49Z</time>
      </trkpt>
      <trkpt lat="48.1969" lon="6.57268">
        <ele>396.5</ele>
        <time>2024-06-09T10:58:50Z</time>
      </trkpt>
      <trkpt lat="48.19684" lon="6.57266">
        <ele>397</ele>
        <time>2024-06-09T11:07:12Z</time>
      </trkpt>
      <trkpt lat="48.19684" lon="6.57267">
        <ele>397</ele>
        <time>2024-06-09T11:07:13Z</time>
      </trkpt>
      <trkpt lat="48.19684" lon="6.57266">
        <ele>397</ele>
        <time>2024-06-09T11:07:16Z</time>
      </trkpt>
      <trkpt lat="48.19684" lon="6.57266">
        <ele>397</ele>
        <time>2024-06-09T11:07:17Z</time>
      </trkpt>
      <trkpt lat="48.19685" lon="6.57266">
        <ele>397.1</ele>
        <time>2024-06-09T11:10:11Z</time>
      </trkpt>
      <trkpt lat="48.19685" lon="6.57266">
        <ele>397.1</ele>
        <time>2024-06-09T11:10:12Z</time>
      </trkpt>
      <trkpt lat="48.19685" lon="6.57266">
        <ele>397.1</ele>
        <time>2024-06-09T11:10:13Z</time>
      </trkpt>
      <trkpt lat="48.19685" lon="6.57266">
        <ele>397.1</ele>
        <time>2024-06-09T11:10:14Z</time>
      </trkpt>
      <trkpt lat="48.19685" lon="6.57266">
        <ele>397.1</ele>
        <time>2024-06-09T11:10:15Z</time>
      </trkpt>
      <trkpt lat="48.19685" lon="6.57266">
        <ele>397.1</ele>
        <time>2024-06-09T11:14:39Z</time>
      </trkpt>
      <trkpt lat="48.19685" lon="6.57266">
        <ele>397.1</ele>
        <time>2024-06-09T11:14:40Z</time>
      </trkpt>
      <trkpt lat="48.19685" lon="6.57266">
        <ele>397.1</ele>
        <time>2024-06-09T11:14:41Z</time>
      </trkpt>
      <trkpt lat="48.19685" lon="6.57266">
        <ele>397.1</ele>
        <time>2024-06-09T11:14:42Z</time>
      </trkpt>
      <trkpt lat="48.19685" lon="6.57266">
        <ele>397.1</ele>
        <time>2024-06-09T11:14:59Z</time>
      </trkpt>
      <trkpt lat="48.19685" lon="6.57266">
        <ele>397.1</ele>
        <time>2024-06-09T11:15:00Z</time>
      </trkpt>
      <trkpt lat="48.19685" lon="6.57266">
        <ele>397.1</ele>
        <time>2024-06-09T11:15:01Z</time>
      </trkpt>
      <trkpt lat="48.19685" lon="6.57266">
        <ele>397.1</ele>
        <time>2024-06-09T11:15:02Z</time>
      </trkpt>
      <trkpt lat="48.19685" lon="6.57266">
        <ele>397.1</ele>
        <time>2024-06-09T11:15:03Z</time>
      </trkpt>
      <trkpt lat="48.19685" lon="6.57266">
        <ele>397.1</ele>
        <time>2024-06-09T11:15:14Z</time>
      </trkpt>
      <trkpt lat="48.19684" lon="6.57266">
        <ele>397.2</ele>
        <time>2024-06-09T11:15:15Z</time>
      </trkpt>
      <trkpt lat="48.19695" lon="6.57263">
        <ele>397.9</ele>
        <time>2024-06-09T11:15:41Z</time>
      </trkpt>
      <trkpt lat="48.19703" lon="6.57259">
        <ele>398.4</ele>
        <time>2024-06-09T11:15:48Z</time>
      </trkpt>
      <trkpt lat="48.19712" lon="6.57254">
        <ele>398.9</ele>
        <time>2024-06-09T11:15:56Z</time>
      </trkpt>
      <trkpt lat="48.1972" lon="6.57246">
        <ele>399.5</ele>
        <time>2024-06-09T11:16:05Z</time>
      </trkpt>
      <trkpt lat="48.19728" lon="6.57239">
        <ele>400.1</ele>
        <time>2024-06-09T11:16:16Z</time>
      </trkpt>
      <trkpt lat="48.19736" lon="6.57231">
        <ele>400.8</ele>
        <time>2024-06-09T11:16:25Z</time>
      </trkpt>
      <trkpt lat="48.19746" lon="6.57227">
        <ele>401.6</ele>
        <time>2024-06-09T11:16:37Z</time>
      </trkpt>
      <trkpt lat="48.19756" lon="6.5723">
        <ele>402.4</ele>
        <time>2024-06-09T11:16:45Z</time>
      </trkpt>
      <trkpt lat="48.19764" lon="6.57235">
        <ele>403</ele>
        <time>2024-06-09T11:16:54Z</time>
      </trkpt>
      <trkpt lat="48.19771" lon="6.57245">
        <ele>403.6</ele>
        <time>2024-06-09T11:17:02Z</time>
      </trkpt>
      <trkpt lat="48.19776" lon="6.57256">
        <ele>404</ele>
        <time>2024-06-09T11:17:11Z</time>
      </trkpt>
      <trkpt lat="48.19784" lon="6.57264">
        <ele>404.5</ele>
        <time>2024-06-09T11:17:19Z</time>
      </trkpt>
      <trkpt lat="48.19792" lon="6.57273">
        <ele>405</ele>
        <time>2024-06-09T11:17:27Z</time>
      </trkpt>
      <trkpt lat="48.19799" lon="6.57284">
        <ele>405.6</ele>
        <time>2024-06-09T11:17:37Z</time>
      </trkpt>
      <trkpt lat="48.19806" lon="6.57292">
        <ele>406.2</ele>
        <time>2024-06-09T11:17:45Z</time>
      </trkpt>
      <trkpt lat="48.19813" lon="6.57302">
        <ele>406.8</ele>
        <time>2024-06-09T11:17:54Z</time>
      </trkpt>
      <trkpt lat="48.1982" lon="6.57312">
        <ele>407.3</ele>
        <time>2024-06-09T11:18:02Z</time>
      </trkpt>
      <trkpt lat="48.19828" lon="6.5732">
        <ele>407.7</ele>
        <time>2024-06-09T11:18:10Z</time>
      </trkpt>
      <trkpt lat="48.19834" lon="6.5733">
        <ele>408.1</ele>
        <time>2024-06-09T11:18:17Z</time>
      </trkpt>
      <trkpt lat="48.19841" lon="6.57339">
        <ele>408.3</ele>
        <time>2024-06-09T11:18:25Z</time>
      </trkpt>
      <trkpt lat="48.19848" lon="6.57347">
        <ele>408.5</ele>
        <time>2024-06-09T11:18:32Z</time>
      </trkpt>
      <trkpt lat="48.19855" lon="6.57356">
        <ele>408.6</ele>
        <time>2024-06-09T11:18:40Z</time>
      </trkpt>
      <trkpt lat="48.19862" lon="6.57366">
        <ele>408.6</ele>
        <time>2024-06-09T11:18:49Z</time>
      </trkpt>
      <trkpt lat="48.19869" lon="6.57377">
        <ele>408.6</ele>
        <time>2024-06-09T11:18:57Z</time>
      </trkpt>
      <trkpt lat="48.19876" lon="6.57387">
        <ele>408.5</ele>
        <time>2024-06-09T11:19:06Z</time>
      </trkpt>
      <trkpt lat="48.19882" lon="6.57397">
        <ele>408.4</ele>
        <time>2024-06-09T11:19:15Z</time>
      </trkpt>
      <trkpt lat="48.19888" lon="6.57408">
        <ele>408.3</ele>
        <time>2024-06-09T11:19:23Z</time>
      </trkpt>
      <trkpt lat="48.19895" lon="6.57419">
        <ele>408.2</ele>
        <time>2024-06-09T11:19:32Z</time>
      </trkpt>
      <trkpt lat="48.19902" lon="6.57429">
        <ele>408.1</ele>
        <time>2024-06-09T11:19:41Z</time>
      </trkpt>
      <trkpt lat="48.1991" lon="6.57439">
        <ele>408</ele>
        <time>2024-06-09T11:19:49Z</time>
      </trkpt>
      <trkpt lat="48.19916" lon="6.5745">
        <ele>408</ele>
        <time>2024-06-09T11:19:58Z</time>
      </trkpt>
      <trkpt lat="48.19922" lon="6.5746">
        <ele>408</ele>
        <time>2024-06-09T11:20:06Z</time>
      </trkpt>
      <trkpt lat="48.19928" lon="6.57472">
        <ele>408</ele>
        <time>2024-06-09T11:20:14Z</time>
      </trkpt>
      <trkpt lat="48.19932" lon="6.57485">
        <ele>408.2</ele>
        <time>2024-06-09T11:20:23Z</time>
      </trkpt>
      <trkpt lat="48.1993" lon="6.57499">
        <ele>408.6</ele>
        <time>2024-06-09T11:20:33Z</time>
      </trkpt>
      <trkpt lat="48.19925" lon="6.57509">
        <ele>409.1</ele>
        <time>2024-06-09T11:20:41Z</time>
      </trkpt>
      <trkpt lat="48.19919" lon="6.57522">
        <ele>409.6</ele>
        <time>2024-06-09T11:20:50Z</time>
      </trkpt>
      <trkpt lat="48.19911" lon="6.57528">
        <ele>409.8</ele>
        <time>2024-06-09T11:21:01Z</time>
      </trkpt>
      <trkpt lat="48.19902" lon="6.57528">
        <ele>410.1</ele>
        <time>2024-06-09T11:21:09Z</time>
      </trkpt>
      <trkpt lat="48.19893" lon="6.57533">
        <ele>410.5</ele>
        <time>2024-06-09T11:21:19Z</time>
      </trkpt>
      <trkpt lat="48.19886" lon="6.57543">
        <ele>411.1</ele>
        <time>2024-06-09T11:21:27Z</time>
      </trkpt>
      <trkpt lat="48.1988" lon="6.57555">
        <ele>411.8</ele>
        <time>2024-06-09T11:21:36Z</time>
      </trkpt>
      <trkpt lat="48.19875" lon="6.57567">
        <ele>412.6</ele>
        <time>2024-06-09T11:21:44Z</time>
      </trkpt>
      <trkpt lat="48.19869" lon="6.5758">
        <ele>413.4</ele>
        <time>2024-06-09T11:21:53Z</time>
      </trkpt>
      <trkpt lat="48.19863" lon="6.5759">
        <ele>414.2</ele>
        <time>2024-06-09T11:22:00Z</time>
      </trkpt>
      <trkpt lat="48.19857" lon="6.57601">
        <ele>415</ele>
        <time>2024-06-09T11:22:08Z</time>
      </trkpt>
      <trkpt lat="48.1985" lon="6.57611">
        <ele>415.8</ele>
        <time>2024-06-09T11:22:16Z</time>
      </trkpt>
      <trkpt lat="48.19843" lon="6.57621">
        <ele>416.7</ele>
        <time>2024-06-09T11:22:24Z</time>
      </trkpt>
      <trkpt lat="48.19837" lon="6.57633">
        <ele>417.8</ele>
        <time>2024-06-09T11:22:32Z</time>
      </trkpt>
      <trkpt lat="48.19832" lon="6.57644">
        <ele>418.8</ele>
        <time>2024-06-09T11:22:40Z</time>
      </trkpt>
      <trkpt lat="48.19824" lon="6.57653">
        <ele>420</ele>
        <time>2024-06-09T11:22:52Z</time>
      </trkpt>
      <trkpt lat="48.19815" lon="6.57659">
        <ele>421.1</ele>
        <time>2024-06-09T11:23:03Z</time>
      </trkpt>
      <trkpt lat="48.19806" lon="6.57665">
        <ele>422.1</ele>
        <time>2024-06-09T11:23:11Z</time>
      </trkpt>
      <trkpt lat="48.19798" lon="6.57669">
        <ele>423</ele>
        <time>2024-06-09T11:23:19Z</time>
      </trkpt>
      <trkpt lat="48.1979" lon="6.57675">
        <ele>423.8</ele>
        <time>2024-06-09T11:23:26Z</time>
      </trkpt>
      <trkpt lat="48.19783" lon="6.57685">
        <ele>424.5</ele>
        <time>2024-06-09T11:23:33Z</time>
      </trkpt>
      <trkpt lat="48.19775" lon="6.57692">
        <ele>425.2</ele>
        <time>2024-06-09T11:23:40Z</time>
      </trkpt>
      <trkpt lat="48.19766" lon="6.57699">
        <ele>425.8</ele>
        <time>2024-06-09T11:23:49Z</time>
      </trkpt>
      <trkpt lat="48.1976" lon="6.57709">
        <ele>426.5</ele>
        <time>2024-06-09T11:24:01Z</time>
      </trkpt>
      <trkpt lat="48.19754" lon="6.57718">
        <ele>427.2</ele>
        <time>2024-06-09T11:24:11Z</time>
      </trkpt>
      <trkpt lat="48.19746" lon="6.57726">
        <ele>428.2</ele>
        <time>2024-06-09T11:24:20Z</time>
      </trkpt>
      <trkpt lat="48.19739" lon="6.57737">
        <ele>429.3</ele>
        <time>2024-06-09T11:24:29Z</time>
      </trkpt>
      <trkpt lat="48.19733" lon="6.57746">
        <ele>430.2</ele>
        <time>2024-06-09T11:24:38Z</time>
      </trkpt>
      <trkpt lat="48.19727" lon="6.57758">
        <ele>430.9</ele>
        <time>2024-06-09T11:24:47Z</time>
      </trkpt>
      <trkpt lat="48.19723" lon="6.57772">
        <ele>431.7</ele>
        <time>2024-06-09T11:24:57Z</time>
      </trkpt>
      <trkpt lat="48.19719" lon="6.57785">
        <ele>432.5</ele>
        <time>2024-06-09T11:25:06Z</time>
      </trkpt>
      <trkpt lat="48.19716" lon="6.57799">
        <ele>433.4</ele>
        <time>2024-06-09T11:25:15Z</time>
      </trkpt>
      <trkpt lat="48.19712" lon="6.57812">
        <ele>434.3</ele>
        <time>2024-06-09T11:25:22Z</time>
      </trkpt>
      <trkpt lat="48.19711" lon="6.57826">
        <ele>435.3</ele>
        <time>2024-06-09T11:25:30Z</time>
      </trkpt>
      <trkpt lat="48.19707" lon="6.57839">
        <ele>436.3</ele>
        <time>2024-06-09T11:25:37Z</time>
      </trkpt>
      <trkpt lat="48.19704" lon="6.57852">
        <ele>437.3</ele>
        <time>2024-06-09T11:25:44Z</time>
      </trkpt>
      <trkpt lat="48.19703" lon="6.57867">
        <ele>438.4</ele>
        <time>2024-06-09T11:25:52Z</time>
      </trkpt>
      <trkpt lat="48.19701" lon="6.57882">
        <ele>439.4</ele>
        <time>2024-06-09T11:26:01Z</time>
      </trkpt>
      <trkpt lat="48.19698" lon="6.57895">
        <ele>440.2</ele>
        <time>2024-06-09T11:26:09Z</time>
      </trkpt>
      <trkpt lat="48.19694" lon="6.57908">
        <ele>440.9</ele>
        <time>2024-06-09T11:26:17Z</time>
      </trkpt>
      <trkpt lat="48.19691" lon="6.57921">
        <ele>441.7</ele>
        <time>2024-06-09T11:26:25Z</time>
      </trkpt>
      <trkpt lat="48.19691" lon="6.57935">
        <ele>442.4</ele>
        <time>2024-06-09T11:26:33Z</time>
      </trkpt>
      <trkpt lat="48.19692" lon="6.57949">
        <ele>443.4</ele>
        <time>2024-06-09T11:26:42Z</time>
      </trkpt>
      <trkpt lat="48.19691" lon="6.57964">
        <ele>444.5</ele>
        <time>2024-06-09T11:26:51Z</time>
      </trkpt>
      <trkpt lat="48.19692" lon="6.57978">
        <ele>445.6</ele>
        <time>2024-06-09T11:27:00Z</time>
      </trkpt>
      <trkpt lat="48.19693" lon="6.57992">
        <ele>446.7</ele>
        <time>2024-06-09T11:27:08Z</time>
      </trkpt>
      <trkpt lat="48.19694" lon="6.58006">
        <ele>447.6</ele>
        <time>2024-06-09T11:27:15Z</time>
      </trkpt>
      <trkpt lat="48.19696" lon="6.58019">
        <ele>448.5</ele>
        <time>2024-06-09T11:27:21Z</time>
      </trkpt>
      <trkpt lat="48.19697" lon="6.58033">
        <ele>449.3</ele>
        <time>2024-06-09T11:27:31Z</time>
      </trkpt>
      <trkpt lat="48.19695" lon="6.58048">
        <ele>450.2</ele>
        <time>2024-06-09T11:27:40Z</time>
      </trkpt>
      <trkpt lat="48.19693" lon="6.58062">
        <ele>451</ele>
        <time>2024-06-09T11:27:50Z</time>
      </trkpt>
      <trkpt lat="48.19688" lon="6.58075">
        <ele>451.8</ele>
        <time>2024-06-09T11:27:58Z</time>
      </trkpt>
      <trkpt lat="48.19683" lon="6.58086">
        <ele>452.7</ele>
        <time>2024-06-09T11:28:07Z</time>
      </trkpt>
      <trkpt lat="48.19681" lon="6.581">
        <ele>453.7</ele>
        <time>2024-06-09T11:28:16Z</time>
      </trkpt>
      <trkpt lat="48.19677" lon="6.58113">
        <ele>454.7</ele>
        <time>2024-06-09T11:28:25Z</time>
      </trkpt>
      <trkpt lat="48.19673" lon="6.58125">
        <ele>455.8</ele>
        <time>2024-06-09T11:28:33Z</time>
      </trkpt>
      <trkpt lat="48.19671" lon="6.58138">
        <ele>456.9</ele>
        <time>2024-06-09T11:28:42Z</time>
      </trkpt>
      <trkpt lat="48.19669" lon="6.58153">
        <ele>458.2</ele>
        <time>2024-06-09T11:28:52Z</time>
      </trkpt>
      <trkpt lat="48.19668" lon="6.58168">
        <ele>459.5</ele>
        <time>2024-06-09T11:28:59Z</time>
      </trkpt>
      <trkpt lat="48.19666" lon="6.58181">
        <ele>460.6</ele>
        <time>2024-06-09T11:29:07Z</time>
      </trkpt>
      <trkpt lat="48.19667" lon="6.58196">
        <ele>461.7</ele>
        <time>2024-06-09T11:29:14Z</time>
      </trkpt>
      <trkpt lat="48.19665" lon="6.58209">
        <ele>462.6</ele>
        <time>2024-06-09T11:29:21Z</time>
      </trkpt>
      <trkpt lat="48.19666" lon="6.58225">
        <ele>463.5</ele>
        <time>2024-06-09T11:29:29Z</time>
      </trkpt>
      <trkpt lat="48.19668" lon="6.58239">
        <ele>464.3</ele>
        <time>2024-06-09T11:29:37Z</time>
      </trkpt>
      <trkpt lat="48.19668" lon="6.58253">
        <ele>465.2</ele>
        <time>2024-06-09T11:29:46Z</time>
      </trkpt>
      <trkpt lat="48.19662" lon="6.58265">
        <ele>466</ele>
        <time>2024-06-09T11:29:55Z</time>
      </trkpt>
      <trkpt lat="48.19659" lon="6.58279">
        <ele>467</ele>
        <time>2024-06-09T11:30:06Z</time>
      </trkpt>
      <trkpt lat="48.19655" lon="6.58293">
        <ele>467.9</ele>
        <time>2024-06-09T11:30:15Z</time>
      </trkpt>
      <trkpt lat="48.19649" lon="6.58304">
        <ele>468.7</ele>
        <time>2024-06-09T11:30:23Z</time>
      </trkpt>
      <trkpt lat="48.19646" lon="6.58316">
        <ele>469.5</ele>
        <time>2024-06-09T11:30:32Z</time>
      </trkpt>
      <trkpt lat="48.19642" lon="6.58331">
        <ele>470.4</ele>
        <time>2024-06-09T11:30:41Z</time>
      </trkpt>
      <trkpt lat="48.19639" lon="6.58344">
        <ele>471.3</ele>
        <time>2024-06-09T11:30:50Z</time>
      </trkpt>
      <trkpt lat="48.19636" lon="6.58357">
        <ele>472.1</ele>
        <time>2024-06-09T11:30:58Z</time>
      </trkpt>
      <trkpt lat="48.19633" lon="6.58371">
        <ele>472.8</ele>
        <time>2024-06-09T11:31:07Z</time>
      </trkpt>
      <trkpt lat="48.19634" lon="6.58386">
        <ele>473.5</ele>
        <time>2024-06-09T11:31:14Z</time>
      </trkpt>
      <trkpt lat="48.19631" lon="6.58399">
        <ele>474</ele>
        <time>2024-06-09T11:31:21Z</time>
      </trkpt>
      <trkpt lat="48.19628" lon="6.58411">
        <ele>474.4</ele>
        <time>2024-06-09T11:31:28Z</time>
      </trkpt>
      <trkpt lat="48.19623" lon="6.58424">
        <ele>474.9</ele>
        <time>2024-06-09T11:31:37Z</time>
      </trkpt>
      <trkpt lat="48.19621" lon="6.58439">
        <ele>475.3</ele>
        <time>2024-06-09T11:31:45Z</time>
      </trkpt>
      <trkpt lat="48.19617" lon="6.58453">
        <ele>475.8</ele>
        <time>2024-06-09T11:31:53Z</time>
      </trkpt>
      <trkpt lat="48.19613" lon="6.58466">
        <ele>476.1</ele>
        <time>2024-06-09T11:32:00Z</time>
      </trkpt>
      <trkpt lat="48.19607" lon="6.58477">
        <ele>476.5</ele>
        <time>2024-06-09T11:32:08Z</time>
      </trkpt>
      <trkpt lat="48.19604" lon="6.5849">
        <ele>476.8</ele>
        <time>2024-06-09T11:32:16Z</time>
      </trkpt>
      <trkpt lat="48.196" lon="6.58503">
        <ele>477.1</ele>
        <time>2024-06-09T11:32:26Z</time>
      </trkpt>
      <trkpt lat="48.19593" lon="6.58513">
        <ele>477.5</ele>
        <time>2024-06-09T11:32:33Z</time>
      </trkpt>
      <trkpt lat="48.19587" lon="6.58524">
        <ele>477.8</ele>
        <time>2024-06-09T11:32:40Z</time>
      </trkpt>
      <trkpt lat="48.1958" lon="6.58534">
        <ele>478.1</ele>
        <time>2024-06-09T11:32:48Z</time>
      </trkpt>
      <trkpt lat="48.19574" lon="6.58545">
        <ele>478.4</ele>
        <time>2024-06-09T11:32:57Z</time>
      </trkpt>
      <trkpt lat="48.19567" lon="6.58554">
        <ele>478.8</ele>
        <time>2024-06-09T11:33:05Z</time>
      </trkpt>
      <trkpt lat="48.19561" lon="6.58564">
        <ele>479.2</ele>
        <time>2024-06-09T11:33:14Z</time>
      </trkpt>
      <trkpt lat="48.19552" lon="6.58568">
        <ele>479.6</ele>
        <time>2024-06-09T11:33:22Z</time>
      </trkpt>
      <trkpt lat="48.19543" lon="6.58573">
        <ele>480</ele>
        <time>2024-06-09T11:33:29Z</time>
      </trkpt>
      <trkpt lat="48.19534" lon="6.58579">
        <ele>480.4</ele>
        <time>2024-06-09T11:33:37Z</time>
      </trkpt>
      <trkpt lat="48.19524" lon="6.58584">
        <ele>480.8</ele>
        <time>2024-06-09T11:33:44Z</time>
      </trkpt>
      <trkpt lat="48.19518" lon="6.58595">
        <ele>481.2</ele>
        <time>2024-06-09T11:33:51Z</time>
      </trkpt>
      <trkpt lat="48.19512" lon="6.58606">
        <ele>481.5</ele>
        <time>2024-06-09T11:33:59Z</time>
      </trkpt>
      <trkpt lat="48.1951" lon="6.5862">
        <ele>481.8</ele>
        <time>2024-06-09T11:34:06Z</time>
      </trkpt>
      <trkpt lat="48.19504" lon="6.5863">
        <ele>482.1</ele>
        <time>2024-06-09T11:34:14Z</time>
      </trkpt>
      <trkpt lat="48.19498" lon="6.58642">
        <ele>482.4</ele>
        <time>2024-06-09T11:34:22Z</time>
      </trkpt>
      <trkpt lat="48.19497" lon="6.58656">
        <ele>482.6</ele>
        <time>2024-06-09T11:34:30Z</time>
      </trkpt>
      <trkpt lat="48.19497" lon="6.58671">
        <ele>482.8</ele>
        <time>2024-06-09T11:34:38Z</time>
      </trkpt>
      <trkpt lat="48.19498" lon="6.58687">
        <ele>482.9</ele>
        <time>2024-06-09T11:34:46Z</time>
      </trkpt>
      <trkpt lat="48.19501" lon="6.58701">
        <ele>483</ele>
        <time>2024-06-09T11:34:52Z</time>
      </trkpt>
      <trkpt lat="48.19502" lon="6.58716">
        <ele>483</ele>
        <time>2024-06-09T11:35:00Z</time>
      </trkpt>
      <trkpt lat="48.19504" lon="6.58731">
        <ele>483.1</ele>
        <time>2024-06-09T11:35:09Z</time>
      </trkpt>
      <trkpt lat="48.19504" lon="6.58744">
        <ele>483.1</ele>
        <time>2024-06-09T11:35:16Z</time>
      </trkpt>
      <trkpt lat="48.19502" lon="6.58759">
        <ele>483.2</ele>
        <time>2024-06-09T11:35:25Z</time>
      </trkpt>
      <trkpt lat="48.195" lon="6.58773">
        <ele>483.2</ele>
        <time>2024-06-09T11:35:33Z</time>
      </trkpt>
      <trkpt lat="48.19497" lon="6.58785">
        <ele>483.2</ele>
        <time>2024-06-09T11:35:41Z</time>
      </trkpt>
      <trkpt lat="48.19495" lon="6.58799">
        <ele>483.1</ele>
        <time>2024-06-09T11:35:48Z</time>
      </trkpt>
      <trkpt lat="48.19495" lon="6.58813">
        <ele>483.1</ele>
        <time>2024-06-09T11:35:56Z</time>
      </trkpt>
      <trkpt lat="48.19495" lon="6.58827">
        <ele>482.9</ele>
        <time>2024-06-09T11:36:05Z</time>
      </trkpt>
      <trkpt lat="48.19495" lon="6.58826">
        <ele>482.9</ele>
        <time>2024-06-09T11:36:16Z</time>
      </trkpt>
      <trkpt lat="48.19495" lon="6.58826">
        <ele>482.9</ele>
        <time>2024-06-09T11:36:17Z</time>
      </trkpt>
      <trkpt lat="48.19496" lon="6.58826">
        <ele>482.9</ele>
        <time>2024-06-09T11:36:21Z</time>
      </trkpt>
      <trkpt lat="48.19496" lon="6.58827">
        <ele>482.9</ele>
        <time>2024-06-09T11:36:22Z</time>
      </trkpt>
      <trkpt lat="48.19504" lon="6.58832">
        <ele>482.7</ele>
        <time>2024-06-09T11:36:38Z</time>
      </trkpt>
      <trkpt lat="48.19514" lon="6.58838">
        <ele>482.5</ele>
        <time>2024-06-09T11:36:44Z</time>
      </trkpt>
      <trkpt lat="48.19521" lon="6.58845">
        <ele>482.2</ele>
        <time>2024-06-09T11:36:52Z</time>
      </trkpt>
      <trkpt lat="48.19531" lon="6.58849">
        <ele>481.8</ele>
        <time>2024-06-09T11:37:00Z</time>
      </trkpt>
      <trkpt lat="48.19541" lon="6.58849">
        <ele>481.3</ele>
        <time>2024-06-09T11:37:08Z</time>
      </trkpt>
      <trkpt lat="48.1955" lon="6.5885">
        <ele>480.9</ele>
        <time>2024-06-09T11:37:15Z</time>
      </trkpt>
      <trkpt lat="48.19559" lon="6.58851">
        <ele>480.4</ele>
        <time>2024-06-09T11:37:24Z</time>
      </trkpt>
      <trkpt lat="48.19562" lon="6.58851">
        <ele>480.3</ele>
        <time>2024-06-09T11:37:31Z</time>
      </trkpt>
      <trkpt lat="48.19562" lon="6.58851">
        <ele>480.3</ele>
        <time>2024-06-09T11:37:32Z</time>
      </trkpt>
      <trkpt lat="48.19562" lon="6.58851">
        <ele>480.3</ele>
        <time>2024-06-09T11:37:33Z</time>
      </trkpt>
      <trkpt lat="48.19561" lon="6.58852">
        <ele>480.2</ele>
        <time>2024-06-09T11:37:46Z</time>
      </trkpt>
      <trkpt lat="48.19561" lon="6.58852">
        <ele>480.2</ele>
        <time>2024-06-09T11:37:47Z</time>
      </trkpt>
      <trkpt lat="48.19561" lon="6.58852">
        <ele>480.2</ele>
        <time>2024-06-09T11:37:48Z</time>
      </trkpt>
      <trkpt lat="48.19561" lon="6.58852">
        <ele>480.2</ele>
        <time>2024-06-09T11:37:49Z</time>
      </trkpt>
      <trkpt lat="48.19561" lon="6.58852">
        <ele>480.2</ele>
        <time>2024-06-09T11:37:50Z</time>
      </trkpt>
      <trkpt lat="48.19562" lon="6.58852">
        <ele>480.2</ele>
        <time>2024-06-09T11:37:56Z</time>
      </trkpt>
      <trkpt lat="48.19563" lon="6.58853">
        <ele>480.1</ele>
        <time>2024-06-09T11:37:57Z</time>
      </trkpt>
      <trkpt lat="48.19572" lon="6.58854">
        <ele>479.8</ele>
        <time>2024-06-09T11:38:06Z</time>
      </trkpt>
      <trkpt lat="48.1958" lon="6.5886">
        <ele>479.4</ele>
        <time>2024-06-09T11:38:15Z</time>
      </trkpt>
      <trkpt lat="48.19584" lon="6.5886">
        <ele>479.2</ele>
        <time>2024-06-09T11:38:27Z</time>
      </trkpt>
      <trkpt lat="48.19584" lon="6.5886">
        <ele>479.2</ele>
        <time>2024-06-09T11:38:28Z</time>
      </trkpt>
      <trkpt lat="48.19586" lon="6.58857">
        <ele>479</ele>
        <time>2024-06-09T11:39:41Z</time>
      </trkpt>
      <trkpt lat="48.19586" lon="6.58856">
        <ele>479</ele>
        <time>2024-06-09T11:39:42Z</time>
      </trkpt>
      <trkpt lat="48.19591" lon="6.58845">
        <ele>478.5</ele>
        <time>2024-06-09T11:39:57Z</time>
      </trkpt>
      <trkpt lat="48.19601" lon="6.58842">
        <ele>477.9</ele>
        <time>2024-06-09T11:40:05Z</time>
      </trkpt>
      <trkpt lat="48.1961" lon="6.58843">
        <ele>477.2</ele>
        <time>2024-06-09T11:40:15Z</time>
      </trkpt>
      <trkpt lat="48.19619" lon="6.58845">
        <ele>476.3</ele>
        <time>2024-06-09T11:40:25Z</time>
      </trkpt>
      <trkpt lat="48.19628" lon="6.58845">
        <ele>475.5</ele>
        <time>2024-06-09T11:40:34Z</time>
      </trkpt>
      <trkpt lat="48.19637" lon="6.58842">
        <ele>474.6</ele>
        <time>2024-06-09T11:40:41Z</time>
      </trkpt>
      <trkpt lat="48.19647" lon="6.58839">
        <ele>473.7</ele>
        <time>2024-06-09T11:40:49Z</time>
      </trkpt>
      <trkpt lat="48.19656" lon="6.58839">
        <ele>472.8</ele>
        <time>2024-06-09T11:40:56Z</time>
      </trkpt>
      <trkpt lat="48.19665" lon="6.58838">
        <ele>471.9</ele>
        <time>2024-06-09T11:41:02Z</time>
      </trkpt>
      <trkpt lat="48.19674" lon="6.58839">
        <ele>471</ele>
        <time>2024-06-09T11:41:11Z</time>
      </trkpt>
      <trkpt lat="48.19684" lon="6.58837">
        <ele>470</ele>
        <time>2024-06-09T11:41:19Z</time>
      </trkpt>
      <trkpt lat="48.19693" lon="6.58839">
        <ele>469</ele>
        <time>2024-06-09T11:41:27Z</time>
      </trkpt>
      <trkpt lat="48.19703" lon="6.58838">
        <ele>468</ele>
        <time>2024-06-09T11:41:35Z</time>
      </trkpt>
      <trkpt lat="48.19713" lon="6.58836">
        <ele>466.9</ele>
        <time>2024-06-09T11:41:44Z</time>
      </trkpt>
      <trkpt lat="48.19723" lon="6.58837">
        <ele>465.8</ele>
        <time>2024-06-09T11:41:53Z</time>
      </trkpt>
      <trkpt lat="48.19732" lon="6.58836">
        <ele>464.8</ele>
        <time>2024-06-09T11:42:02Z</time>
      </trkpt>
      <trkpt lat="48.19742" lon="6.58834">
        <ele>463.7</ele>
        <time>2024-06-09T11:42:10Z</time>
      </trkpt>
      <trkpt lat="48.19752" lon="6.58832">
        <ele>462.6</ele>
        <time>2024-06-09T11:42:18Z</time>
      </trkpt>
      <trkpt lat="48.19761" lon="6.58829">
        <ele>461.5</ele>
        <time>2024-06-09T11:42:25Z</time>
      </trkpt>
      <trkpt lat="48.19771" lon="6.58829">
        <ele>460.3</ele>
        <time>2024-06-09T11:42:32Z</time>
      </trkpt>
      <trkpt lat="48.19781" lon="6.58826">
        <ele>459.1</ele>
        <time>2024-06-09T11:42:43Z</time>
      </trkpt>
      <trkpt lat="48.1979" lon="6.58826">
        <ele>458.1</ele>
        <time>2024-06-09T11:42:50Z</time>
      </trkpt>
      <trkpt lat="48.198" lon="6.58824">
        <ele>457</ele>
        <time>2024-06-09T11:42:57Z</time>
      </trkpt>
      <trkpt lat="48.19808" lon="6.5882">
        <ele>456.1</ele>
        <time>2024-06-09T11:43:05Z</time>
      </trkpt>
      <trkpt lat="48.19818" lon="6.58817">
        <ele>455.2</ele>
        <time>2024-06-09T11:43:12Z</time>
      </trkpt>
      <trkpt lat="48.19827" lon="6.58815">
        <ele>454.3</ele>
        <time>2024-06-09T11:43:21Z</time>
      </trkpt>
      <trkpt lat="48.19837" lon="6.58813">
        <ele>453.4</ele>
        <time>2024-06-09T11:43:28Z</time>
      </trkpt>
      <trkpt lat="48.19846" lon="6.58809">
        <ele>452.5</ele>
        <time>2024-06-09T11:43:35Z</time>
      </trkpt>
      <trkpt lat="48.19856" lon="6.58808">
        <ele>451.4</ele>
        <time>2024-06-09T11:43:46Z</time>
      </trkpt>
      <trkpt lat="48.19865" lon="6.58811">
        <ele>450.5</ele>
        <time>2024-06-09T11:43:57Z</time>
      </trkpt>
      <trkpt lat="48.19875" lon="6.58808">
        <ele>449.6</ele>
        <time>2024-06-09T11:44:03Z</time>
      </trkpt>
      <trkpt lat="48.19884" lon="6.58802">
        <ele>448.8</ele>
        <time>2024-06-09T11:44:12Z</time>
      </trkpt>
      <trkpt lat="48.19893" lon="6.58796">
        <ele>448.1</ele>
        <time>2024-06-09T11:44:19Z</time>
      </trkpt>
      <trkpt lat="48.19901" lon="6.58789">
        <ele>447.2</ele>
        <time>2024-06-09T11:44:28Z</time>
      </trkpt>
      <trkpt lat="48.19911" lon="6.58786">
        <ele>446</ele>
        <time>2024-06-09T11:44:39Z</time>
      </trkpt>
      <trkpt lat="48.1992" lon="6.58783">
        <ele>444.9</ele>
        <time>2024-06-09T11:44:48Z</time>
      </trkpt>
      <trkpt lat="48.1993" lon="6.5878">
        <ele>443.7</ele>
        <time>2024-06-09T11:44:57Z</time>
      </trkpt>
      <trkpt lat="48.1994" lon="6.58782">
        <ele>442.6</ele>
        <time>2024-06-09T11:45:06Z</time>
      </trkpt>
      <trkpt lat="48.19949" lon="6.58785">
        <ele>441.5</ele>
        <time>2024-06-09T11:45:13Z</time>
      </trkpt>
      <trkpt lat="48.19958" lon="6.58785">
        <ele>440.4</ele>
        <time>2024-06-09T11:45:19Z</time>
      </trkpt>
      <trkpt lat="48.19968" lon="6.58786">
        <ele>439.3</ele>
        <time>2024-06-09T11:45:29Z</time>
      </trkpt>
      <trkpt lat="48.19978" lon="6.5879">
        <ele>438</ele>
        <time>2024-06-09T11:45:37Z</time>
      </trkpt>
      <trkpt lat="48.19987" lon="6.58793">
        <ele>436.9</ele>
        <time>2024-06-09T11:45:44Z</time>
      </trkpt>
      <trkpt lat="48.19996" lon="6.58798">
        <ele>435.8</ele>
        <time>2024-06-09T11:45:53Z</time>
      </trkpt>
      <trkpt lat="48.20004" lon="6.58802">
        <ele>435</ele>
        <time>2024-06-09T11:46:00Z</time>
      </trkpt>
      <trkpt lat="48.20014" lon="6.58803">
        <ele>434.2</ele>
        <time>2024-06-09T11:46:08Z</time>
      </trkpt>
      <trkpt lat="48.20023" lon="6.58801">
        <ele>433.4</ele>
        <time>2024-06-09T11:46:16Z</time>
      </trkpt>
      <trkpt lat="48.20032" lon="6.588">
        <ele>432.6</ele>
        <time>2024-06-09T11:46:23Z</time>
      </trkpt>
      <trkpt lat="48.20041" lon="6.58793">
        <ele>431.8</ele>
        <time>2024-06-09T11:46:31Z</time>
      </trkpt>
      <trkpt lat="48.2005" lon="6.58786">
        <ele>430.9</ele>
        <time>2024-06-09T11:46:40Z</time>
      </trkpt>
      <trkpt lat="48.20059" lon="6.5878">
        <ele>430</ele>
        <time>2024-06-09T11:46:48Z</time>
      </trkpt>
      <trkpt lat="48.20068" lon="6.58774">
        <ele>429.2</ele>
        <time>2024-06-09T11:46:56Z</time>
      </trkpt>
      <trkpt lat="48.20077" lon="6.58769">
        <ele>428.4</ele>
        <time>2024-06-09T11:47:05Z</time>
      </trkpt>
      <trkpt lat="48.20086" lon="6.58769">
        <ele>427.7</ele>
        <time>2024-06-09T11:47:18Z</time>
      </trkpt>
      <trkpt lat="48.20095" lon="6.58773">
        <ele>426.9</ele>
        <time>2024-06-09T11:47:24Z</time>
      </trkpt>
      <trkpt lat="48.20105" lon="6.58776">
        <ele>426.2</ele>
        <time>2024-06-09T11:47:33Z</time>
      </trkpt>
      <trkpt lat="48.20115" lon="6.58778">
        <ele>425.6</ele>
        <time>2024-06-09T11:47:40Z</time>
      </trkpt>
      <trkpt lat="48.20125" lon="6.58779">
        <ele>424.9</ele>
        <time>2024-06-09T11:47:49Z</time>
      </trkpt>
      <trkpt lat="48.20134" lon="6.58782">
        <ele>424.2</ele>
        <time>2024-06-09T11:47:56Z</time>
      </trkpt>
      <trkpt lat="48.20143" lon="6.58787">
        <ele>423.6</ele>
        <time>2024-06-09T11:48:04Z</time>
      </trkpt>
      <trkpt lat="48.20153" lon="6.5879">
        <ele>423</ele>
        <time>2024-06-09T11:48:13Z</time>
      </trkpt>
      <trkpt lat="48.20163" lon="6.58791">
        <ele>422.4</ele>
        <time>2024-06-09T11:48:20Z</time>
      </trkpt>
      <trkpt lat="48.20172" lon="6.58791">
        <ele>421.8</ele>
        <time>2024-06-09T11:48:26Z</time>
      </trkpt>
      <trkpt lat="48.20181" lon="6.5879">
        <ele>421.4</ele>
        <time>2024-06-09T11:48:33Z</time>
      </trkpt>
      <trkpt lat="48.2019" lon="6.58791">
        <ele>421</ele>
        <time>2024-06-09T11:48:42Z</time>
      </trkpt>
      <trkpt lat="48.20199" lon="6.58786">
        <ele>420.7</ele>
        <time>2024-06-09T11:48:50Z</time>
      </trkpt>
      <trkpt lat="48.20209" lon="6.5878">
        <ele>420.3</ele>
        <time>2024-06-09T11:48:57Z</time>
      </trkpt>
      <trkpt lat="48.20218" lon="6.58774">
        <ele>419.9</ele>
        <time>2024-06-09T11:49:07Z</time>
      </trkpt>
      <trkpt lat="48.20229" lon="6.5877">
        <ele>419.6</ele>
        <time>2024-06-09T11:49:12Z</time>
      </trkpt>
      <trkpt lat="48.20236" lon="6.58763">
        <ele>419.4</ele>
        <time>2024-06-09T11:49:18Z</time>
      </trkpt>
      <trkpt lat="48.20245" lon="6.58759">
        <ele>419.1</ele>
        <time>2024-06-09T11:49:26Z</time>
      </trkpt>
      <trkpt lat="48.20255" lon="6.58755">
        <ele>418.9</ele>
        <time>2024-06-09T11:49:33Z</time>
      </trkpt>
      <trkpt lat="48.20263" lon="6.5875">
        <ele>418.6</ele>
        <time>2024-06-09T11:49:43Z</time>
      </trkpt>
      <trkpt lat="48.20271" lon="6.58743">
        <ele>418.2</ele>
        <time>2024-06-09T11:49:50Z</time>
      </trkpt>
      <trkpt lat="48.2028" lon="6.58735">
        <ele>417.7</ele>
        <time>2024-06-09T11:49:59Z</time>
      </trkpt>
      <trkpt lat="48.20289" lon="6.58731">
        <ele>417</ele>
        <time>2024-06-09T11:50:06Z</time>
      </trkpt>
      <trkpt lat="48.20299" lon="6.58727">
        <ele>416.5</ele>
        <time>2024-06-09T11:50:15Z</time>
      </trkpt>
      <trkpt lat="48.20307" lon="6.58722">
        <ele>416</ele>
        <time>2024-06-09T11:50:23Z</time>
      </trkpt>
      <trkpt lat="48.20315" lon="6.58715">
        <ele>415.4</ele>
        <time>2024-06-09T11:50:30Z</time>
      </trkpt>
      <trkpt lat="48.20325" lon="6.58707">
        <ele>414.7</ele>
        <time>2024-06-09T11:50:37Z</time>
      </trkpt>
      <trkpt lat="48.20333" lon="6.58699">
        <ele>414</ele>
        <time>2024-06-09T11:50:46Z</time>
      </trkpt>
      <trkpt lat="48.20341" lon="6.58691">
        <ele>413.2</ele>
        <time>2024-06-09T11:50:54Z</time>
      </trkpt>
      <trkpt lat="48.20349" lon="6.58685">
        <ele>412.5</ele>
        <time>2024-06-09T11:51:01Z</time>
      </trkpt>
      <trkpt lat="48.20358" lon="6.58679">
        <ele>411.8</ele>
        <time>2024-06-09T11:51:10Z</time>
      </trkpt>
      <trkpt lat="48.20367" lon="6.58677">
        <ele>411.1</ele>
        <time>2024-06-09T11:51:19Z</time>
      </trkpt>
      <trkpt lat="48.20376" lon="6.58675">
        <ele>410.3</ele>
        <time>2024-06-09T11:51:29Z</time>
      </trkpt>
      <trkpt lat="48.20385" lon="6.5867">
        <ele>409.6</ele>
        <time>2024-06-09T11:51:35Z</time>
      </trkpt>
      <trkpt lat="48.20395" lon="6.58667">
        <ele>408.8</ele>
        <time>2024-06-09T11:51:44Z</time>
      </trkpt>
      <trkpt lat="48.20404" lon="6.58663">
        <ele>408.3</ele>
        <time>2024-06-09T11:51:51Z</time>
      </trkpt>
      <trkpt lat="48.20413" lon="6.5866">
        <ele>407.7</ele>
        <time>2024-06-09T11:51:59Z</time>
      </trkpt>
      <trkpt lat="48.20422" lon="6.58658">
        <ele>407.3</ele>
        <time>2024-06-09T11:52:06Z</time>
      </trkpt>
      <trkpt lat="48.20428" lon="6.58652">
        <ele>407</ele>
        <time>2024-06-09T11:52:17Z</time>
      </trkpt>
      <trkpt lat="48.20428" lon="6.58652">
        <ele>407</ele>
        <time>2024-06-09T11:52:18Z</time>
      </trkpt>
      <trkpt lat="48.20433" lon="6.58649">
        <ele>406.8</ele>
        <time>2024-06-09T11:52:26Z</time>
      </trkpt>
      <trkpt lat="48.20434" lon="6.5865">
        <ele>406.7</ele>
        <time>2024-06-09T11:52:27Z</time>
      </trkpt>
      <trkpt lat="48.20443" lon="6.58645">
        <ele>406.2</ele>
        <time>2024-06-09T11:52:37Z</time>
      </trkpt>
      <trkpt lat="48.20452" lon="6.58641">
        <ele>405.6</ele>
        <time>2024-06-09T11:52:50Z</time>
      </trkpt>
      <trkpt lat="48.20462" lon="6.58638">
        <ele>405</ele>
        <time>2024-06-09T11:52:57Z</time>
      </trkpt>
      <trkpt lat="48.20471" lon="6.58632">
        <ele>404.3</ele>
        <time>2024-06-09T11:53:05Z</time>
      </trkpt>
      <trkpt lat="48.20479" lon="6.58626">
        <ele>403.8</ele>
        <time>2024-06-09T11:53:13Z</time>
      </trkpt>
      <trkpt lat="48.20487" lon="6.5862">
        <ele>403.3</ele>
        <time>2024-06-09T11:53:20Z</time>
      </trkpt>
      <trkpt lat="48.20496" lon="6.58615">
        <ele>402.8</ele>
        <time>2024-06-09T11:53:29Z</time>
      </trkpt>
      <trkpt lat="48.20505" lon="6.5861">
        <ele>402.4</ele>
        <time>2024-06-09T11:53:37Z</time>
      </trkpt>
      <trkpt lat="48.20514" lon="6.58602">
        <ele>402</ele>
        <time>2024-06-09T11:53:46Z</time>
      </trkpt>
      <trkpt lat="48.20524" lon="6.58597">
        <ele>401.7</ele>
        <time>2024-06-09T11:53:53Z</time>
      </trkpt>
      <trkpt lat="48.20533" lon="6.58593">
        <ele>401.6</ele>
        <time>2024-06-09T11:54:01Z</time>
      </trkpt>
      <trkpt lat="48.20541" lon="6.58585">
        <ele>401.4</ele>
        <time>2024-06-09T11:54:09Z</time>
      </trkpt>
      <trkpt lat="48.2055" lon="6.5858">
        <ele>401.3</ele>
        <time>2024-06-09T11:54:17Z</time>
      </trkpt>
      <trkpt lat="48.20559" lon="6.58575">
        <ele>401.2</ele>
        <time>2024-06-09T11:54:24Z</time>
      </trkpt>
      <trkpt lat="48.20568" lon="6.58569">
        <ele>400.9</ele>
        <time>2024-06-09T11:54:32Z</time>
      </trkpt>
      <trkpt lat="48.20576" lon="6.58562">
        <ele>400.5</ele>
        <time>2024-06-09T11:54:41Z</time>
      </trkpt>
      <trkpt lat="48.20584" lon="6.58556">
        <ele>400.1</ele>
        <time>2024-06-09T11:54:50Z</time>
      </trkpt>
      <trkpt lat="48.20594" lon="6.58552">
        <ele>399.8</ele>
        <time>2024-06-09T11:54:59Z</time>
      </trkpt>
      <trkpt lat="48.20603" lon="6.58547">
        <ele>399.6</ele>
        <time>2024-06-09T11:55:08Z</time>
      </trkpt>
      <trkpt lat="48.20611" lon="6.58539">
        <ele>399.4</ele>
        <time>2024-06-09T11:55:16Z</time>
      </trkpt>
      <trkpt lat="48.20618" lon="6.58529">
        <ele>399.3</ele>
        <time>2024-06-09T11:55:24Z</time>
      </trkpt>
      <trkpt lat="48.20623" lon="6.58517">
        <ele>399.3</ele>
        <time>2024-06-09T11:55:32Z</time>
      </trkpt>
      <trkpt lat="48.20627" lon="6.58505">
        <ele>399.4</ele>
        <time>2024-06-09T11:55:40Z</time>
      </trkpt>
      <trkpt lat="48.2063" lon="6.5849">
        <ele>399.7</ele>
        <time>2024-06-09T11:55:49Z</time>
      </trkpt>
      <trkpt lat="48.20632" lon="6.58476">
        <ele>400.1</ele>
        <time>2024-06-09T11:55:58Z</time>
      </trkpt>
      <trkpt lat="48.20634" lon="6.58461">
        <ele>400.6</ele>
        <time>2024-06-09T11:56:07Z</time>
      </trkpt>
      <trkpt lat="48.20639" lon="6.58449">
        <ele>401.1</ele>
        <time>2024-06-09T11:56:16Z</time>
      </trkpt>
      <trkpt lat="48.20643" lon="6.58436">
        <ele>401.4</ele>
        <time>2024-06-09T11:56:24Z</time>
      </trkpt>
      <trkpt lat="48.20648" lon="6.58424">
        <ele>401.7</ele>
        <time>2024-06-09T11:56:32Z</time>
      </trkpt>
      <trkpt lat="48.20653" lon="6.58412">
        <ele>401.9</ele>
        <time>2024-06-09T11:56:39Z</time>
      </trkpt>
      <trkpt lat="48.20658" lon="6.58399">
        <ele>402</ele>
        <time>2024-06-09T11:56:47Z</time>
      </trkpt>
      <trkpt lat="48.20663" lon="6.58387">
        <ele>402</ele>
        <time>2024-06-09T11:56:55Z</time>
      </trkpt>
      <trkpt lat="48.20668" lon="6.58375">
        <ele>402</ele>
        <time>2024-06-09T11:57:03Z</time>
      </trkpt>
      <trkpt lat="48.2067" lon="6.58362">
        <ele>401.8</ele>
        <time>2024-06-09T11:57:12Z</time>
      </trkpt>
      <trkpt lat="48.20677" lon="6.5835">
        <ele>401.7</ele>
        <time>2024-06-09T11:57:21Z</time>
      </trkpt>
      <trkpt lat="48.20681" lon="6.58337">
        <ele>401.5</ele>
        <time>2024-06-09T11:57:29Z</time>
      </trkpt>
      <trkpt lat="48.20684" lon="6.58324">
        <ele>401.3</ele>
        <time>2024-06-09T11:57:37Z</time>
      </trkpt>
      <trkpt lat="48.2069" lon="6.58312">
        <ele>401.2</ele>
        <time>2024-06-09T11:57:45Z</time>
      </trkpt>
      <trkpt lat="48.20695" lon="6.583">
        <ele>401</ele>
        <time>2024-06-09T11:57:53Z</time>
      </trkpt>
      <trkpt lat="48.20701" lon="6.58288">
        <ele>400.7</ele>
        <time>2024-06-09T11:58:02Z</time>
      </trkpt>
      <trkpt lat="48.20706" lon="6.58276">
        <ele>400.5</ele>
        <time>2024-06-09T11:58:10Z</time>
      </trkpt>
      <trkpt lat="48.20714" lon="6.58267">
        <ele>400.2</ele>
        <time>2024-06-09T11:58:18Z</time>
      </trkpt>
      <trkpt lat="48.20719" lon="6.58256">
        <ele>399.9</ele>
        <time>2024-06-09T11:58:26Z</time>
      </trkpt>
      <trkpt lat="48.20725" lon="6.58244">
        <ele>399.5</ele>
        <time>2024-06-09T11:58:35Z</time>
      </trkpt>
      <trkpt lat="48.20731" lon="6.58232">
        <ele>399.2</ele>
        <time>2024-06-09T11:58:42Z</time>
      </trkpt>
      <trkpt lat="48.20734" lon="6.58218">
        <ele>398.8</ele>
        <time>2024-06-09T11:58:50Z</time>
      </trkpt>
      <trkpt lat="48.2074" lon="6.58208">
        <ele>398.6</ele>
        <time>2024-06-09T11:58:57Z</time>
      </trkpt>
      <trkpt lat="48.20747" lon="6.58197">
        <ele>398.3</ele>
        <time>2024-06-09T11:59:04Z</time>
      </trkpt>
      <trkpt lat="48.20752" lon="6.58185">
        <ele>397.9</ele>
        <time>2024-06-09T11:59:13Z</time>
      </trkpt>
      <trkpt lat="48.20757" lon="6.58172">
        <ele>397.6</ele>
        <time>2024-06-09T11:59:21Z</time>
      </trkpt>
      <trkpt lat="48.20764" lon="6.58162">
        <ele>397.1</ele>
        <time>2024-06-09T11:59:29Z</time>
      </trkpt>
      <trkpt lat="48.20772" lon="6.58152">
        <ele>396.6</ele>
        <time>2024-06-09T11:59:37Z</time>
      </trkpt>
      <trkpt lat="48.20778" lon="6.58141">
        <ele>395.9</ele>
        <time>2024-06-09T11:59:45Z</time>
      </trkpt>
      <trkpt lat="48.20783" lon="6.58128">
        <ele>395.2</ele>
        <time>2024-06-09T11:59:53Z</time>
      </trkpt>
      <trkpt lat="48.20791" lon="6.58118">
        <ele>394.6</ele>
        <time>2024-06-09T12:00:01Z</time>
      </trkpt>
      <trkpt lat="48.20798" lon="6.58108">
        <ele>394.2</ele>
        <time>2024-06-09T12:00:09Z</time>
      </trkpt>
      <trkpt lat="48.20804" lon="6.58097">
        <ele>393.7</ele>
        <time>2024-06-09T12:00:17Z</time>
      </trkpt>
      <trkpt lat="48.2081" lon="6.58087">
        <ele>393.4</ele>
        <time>2024-06-09T12:00:24Z</time>
      </trkpt>
      <trkpt lat="48.20817" lon="6.58075">
        <ele>393.2</ele>
        <time>2024-06-09T12:00:32Z</time>
      </trkpt>
      <trkpt lat="48.20821" lon="6.58061">
        <ele>393.1</ele>
        <time>2024-06-09T12:00:40Z</time>
      </trkpt>
      <trkpt lat="48.20826" lon="6.58049">
        <ele>393.1</ele>
        <time>2024-06-09T12:00:48Z</time>
      </trkpt>
      <trkpt lat="48.20831" lon="6.58037">
        <ele>393.4</ele>
        <time>2024-06-09T12:00:56Z</time>
      </trkpt>
      <trkpt lat="48.20836" lon="6.58024">
        <ele>393.7</ele>
        <time>2024-06-09T12:01:04Z</time>
      </trkpt>
      <trkpt lat="48.20841" lon="6.58011">
        <ele>394</ele>
        <time>2024-06-09T12:01:12Z</time>
      </trkpt>
      <trkpt lat="48.20845" lon="6.57997">
        <ele>394.3</ele>
        <time>2024-06-09T12:01:20Z</time>
      </trkpt>
      <trkpt lat="48.20848" lon="6.57983">
        <ele>394.6</ele>
        <time>2024-06-09T12:01:29Z</time>
      </trkpt>
      <trkpt lat="48.20851" lon="6.57969">
        <ele>394.8</ele>
        <time>2024-06-09T12:01:37Z</time>
      </trkpt>
      <trkpt lat="48.20855" lon="6.57957">
        <ele>395.1</ele>
        <time>2024-06-09T12:01:46Z</time>
      </trkpt>
      <trkpt lat="48.20861" lon="6.57946">
        <ele>395.3</ele>
        <time>2024-06-09T12:01:55Z</time>
      </trkpt>
      <trkpt lat="48.2087" lon="6.57938">
        <ele>395.1</ele>
        <time>2024-06-09T12:02:03Z</time>
      </trkpt>
      <trkpt lat="48.20878" lon="6.57931">
        <ele>394.8</ele>
        <time>2024-06-09T12:02:11Z</time>
      </trkpt>
      <trkpt lat="48.20886" lon="6.57923">
        <ele>394.4</ele>
        <time>2024-06-09T12:02:20Z</time>
      </trkpt>
      <trkpt lat="48.20892" lon="6.57913">
        <ele>394</ele>
        <time>2024-06-09T12:02:28Z</time>
      </trkpt>
      <trkpt lat="48.209" lon="6.57904">
        <ele>393.7</ele>
        <time>2024-06-09T12:02:37Z</time>
      </trkpt>
      <trkpt lat="48.20908" lon="6.57896">
        <ele>393.5</ele>
        <time>2024-06-09T12:02:45Z</time>
      </trkpt>
      <trkpt lat="48.20915" lon="6.57887">
        <ele>393.2</ele>
        <time>2024-06-09T12:02:53Z</time>
      </trkpt>
      <trkpt lat="48.20923" lon="6.57879">
        <ele>392.9</ele>
        <time>2024-06-09T12:03:01Z</time>
      </trkpt>
      <trkpt lat="48.20931" lon="6.57872">
        <ele>392.6</ele>
        <time>2024-06-09T12:03:09Z</time>
      </trkpt>
      <trkpt lat="48.20939" lon="6.57865">
        <ele>392.3</ele>
        <time>2024-06-09T12:03:17Z</time>
      </trkpt>
      <trkpt lat="48.20948" lon="6.57858">
        <ele>391.8</ele>
        <time>2024-06-09T12:03:25Z</time>
      </trkpt>
      <trkpt lat="48.20956" lon="6.5785">
        <ele>391.4</ele>
        <time>2024-06-09T12:03:34Z</time>
      </trkpt>
      <trkpt lat="48.20965" lon="6.57844">
        <ele>390.9</ele>
        <time>2024-06-09T12:03:41Z</time>
      </trkpt>
      <trkpt lat="48.20973" lon="6.57836">
        <ele>390.3</ele>
        <time>2024-06-09T12:03:49Z</time>
      </trkpt>
      <trkpt lat="48.2098" lon="6.57828">
        <ele>389.9</ele>
        <time>2024-06-09T12:03:57Z</time>
      </trkpt>
      <trkpt lat="48.20988" lon="6.5782">
        <ele>389.3</ele>
        <time>2024-06-09T12:04:05Z</time>
      </trkpt>
      <trkpt lat="48.20996" lon="6.57812">
        <ele>388.8</ele>
        <time>2024-06-09T12:04:13Z</time>
      </trkpt>
      <trkpt lat="48.21003" lon="6.57803">
        <ele>388.3</ele>
        <time>2024-06-09T12:04:21Z</time>
      </trkpt>
      <trkpt lat="48.21011" lon="6.57794">
        <ele>387.7</ele>
        <time>2024-06-09T12:04:29Z</time>
      </trkpt>
      <trkpt lat="48.21019" lon="6.57786">
        <ele>387</ele>
        <time>2024-06-09T12:04:36Z</time>
      </trkpt>
      <trkpt lat="48.21027" lon="6.57777">
        <ele>386.3</ele>
        <time>2024-06-09T12:04:43Z</time>
      </trkpt>
      <trkpt lat="48.21034" lon="6.57769">
        <ele>385.6</ele>
        <time>2024-06-09T12:04:50Z</time>
      </trkpt>
      <trkpt lat="48.21041" lon="6.5776">
        <ele>384.9</ele>
        <time>2024-06-09T12:04:57Z</time>
      </trkpt>
      <trkpt lat="48.21048" lon="6.57751">
        <ele>384.3</ele>
        <time>2024-06-09T12:05:04Z</time>
      </trkpt>
      <trkpt lat="48.21055" lon="6.57741">
        <ele>383.7</ele>
        <time>2024-06-09T12:05:12Z</time>
      </trkpt>
      <trkpt lat="48.21062" lon="6.5773">
        <ele>383</ele>
        <time>2024-06-09T12:05:20Z</time>
      </trkpt>
      <trkpt lat="48.2107" lon="6.57722">
        <ele>382.5</ele>
        <time>2024-06-09T12:05:27Z</time>
      </trkpt>
      <trkpt lat="48.21069" lon="6.57707">
        <ele>382.4</ele>
        <time>2024-06-09T12:05:36Z</time>
      </trkpt>
      <trkpt lat="48.21062" lon="6.57696">
        <ele>382.5</ele>
        <time>2024-06-09T12:05:43Z</time>
      </trkpt>
      <trkpt lat="48.21055" lon="6.57684">
        <ele>382.8</ele>
        <time>2024-06-09T12:05:50Z</time>
      </trkpt>
      <trkpt lat="48.21048" lon="6.57674">
        <ele>383.2</ele>
        <time>2024-06-09T12:05:57Z</time>
      </trkpt>
      <trkpt lat="48.21042" lon="6.57664">
        <ele>383.5</ele>
        <time>2024-06-09T12:06:04Z</time>
      </trkpt>
      <trkpt lat="48.21035" lon="6.57655">
        <ele>383.9</ele>
        <time>2024-06-09T12:06:11Z</time>
      </trkpt>
      <trkpt lat="48.21029" lon="6.57644">
        <ele>384.2</ele>
        <time>2024-06-09T12:06:18Z</time>
      </trkpt>
      <trkpt lat="48.21023" lon="6.57633">
        <ele>384.5</ele>
        <time>2024-06-09T12:06:25Z</time>
      </trkpt>
      <trkpt lat="48.21018" lon="6.57621">
        <ele>384.8</ele>
        <time>2024-06-09T12:06:36Z</time>
      </trkpt>
      <trkpt lat="48.21014" lon="6.57606">
        <ele>385</ele>
        <time>2024-06-09T12:06:43Z</time>
      </trkpt>
      <trkpt lat="48.2101" lon="6.57593">
        <ele>385</ele>
        <time>2024-06-09T12:06:50Z</time>
      </trkpt>
      <trkpt lat="48.21009" lon="6.57577">
        <ele>384.8</ele>
        <time>2024-06-09T12:06:58Z</time>
      </trkpt>
      <trkpt lat="48.2101" lon="6.57562">
        <ele>384.4</ele>
        <time>2024-06-09T12:07:06Z</time>
      </trkpt>
      <trkpt lat="48.2101" lon="6.57548">
        <ele>384</ele>
        <time>2024-06-09T12:07:14Z</time>
      </trkpt>
      <trkpt lat="48.21009" lon="6.57534">
        <ele>383.6</ele>
        <time>2024-06-09T12:07:21Z</time>
      </trkpt>
      <trkpt lat="48.21006" lon="6.5752">
        <ele>383.2</ele>
        <time>2024-06-09T12:07:28Z</time>
      </trkpt>
      <trkpt lat="48.21003" lon="6.57506">
        <ele>382.5</ele>
        <time>2024-06-09T12:07:36Z</time>
      </trkpt>
      <trkpt lat="48.21005" lon="6.57492">
        <ele>380.8</ele>
        <time>2024-06-09T12:07:44Z</time>
      </trkpt>
      <trkpt lat="48.21014" lon="6.57488">
        <ele>380.2</ele>
        <time>2024-06-09T12:07:53Z</time>
      </trkpt>
      <trkpt lat="48.21023" lon="6.57485">
        <ele>379.5</ele>
        <time>2024-06-09T12:08:01Z</time>
      </trkpt>
      <trkpt lat="48.21032" lon="6.57481">
        <ele>378.8</ele>
        <time>2024-06-09T12:08:09Z</time>
      </trkpt>
      <trkpt lat="48.21041" lon="6.5748">
        <ele>378.1</ele>
        <time>2024-06-09T12:08:17Z</time>
      </trkpt>
      <trkpt lat="48.2105" lon="6.57486">
        <ele>378.2</ele>
        <time>2024-06-09T12:08:24Z</time>
      </trkpt>
      <trkpt lat="48.21057" lon="6.57495">
        <ele>378.3</ele>
        <time>2024-06-09T12:08:31Z</time>
      </trkpt>
      <trkpt lat="48.21063" lon="6.57505">
        <ele>378.3</ele>
        <time>2024-06-09T12:08:39Z</time>
      </trkpt>
      <trkpt lat="48.2107" lon="6.57517">
        <ele>378.5</ele>
        <time>2024-06-09T12:08:47Z</time>
      </trkpt>
      <trkpt lat="48.21076" lon="6.57528">
        <ele>378.6</ele>
        <time>2024-06-09T12:08:55Z</time>
      </trkpt>
      <trkpt lat="48.2108" lon="6.57541">
        <ele>378.5</ele>
        <time>2024-06-09T12:09:04Z</time>
      </trkpt>
      <trkpt lat="48.21079" lon="6.57543">
        <ele>378.5</ele>
        <time>2024-06-09T12:09:09Z</time>
      </trkpt>
      <trkpt lat="48.21079" lon="6.57543">
        <ele>378.5</ele>
        <time>2024-06-09T12:09:10Z</time>
      </trkpt>
      <trkpt lat="48.21079" lon="6.57543">
        <ele>378.5</ele>
        <time>2024-06-09T12:09:11Z</time>
      </trkpt>
      <trkpt lat="48.21079" lon="6.57543">
        <ele>378.5</ele>
        <time>2024-06-09T12:09:19Z</time>
      </trkpt>
      <trkpt lat="48.21079" lon="6.57544">
        <ele>378.5</ele>
        <time>2024-06-09T12:09:20Z</time>
      </trkpt>
      <trkpt lat="48.2108" lon="6.57545">
        <ele>378.5</ele>
        <time>2024-06-09T12:09:21Z</time>
      </trkpt>
      <trkpt lat="48.21087" lon="6.57554">
        <ele>378.3</ele>
        <time>2024-06-09T12:09:27Z</time>
      </trkpt>
      <trkpt lat="48.21093" lon="6.57566">
        <ele>378.1</ele>
        <time>2024-06-09T12:09:36Z</time>
      </trkpt>
      <trkpt lat="48.211" lon="6.57575">
        <ele>378.1</ele>
        <time>2024-06-09T12:09:43Z</time>
      </trkpt>
      <trkpt lat="48.21109" lon="6.57583">
        <ele>377.9</ele>
        <time>2024-06-09T12:09:50Z</time>
      </trkpt>
      <trkpt lat="48.21118" lon="6.57589">
        <ele>377.7</ele>
        <time>2024-06-09T12:09:56Z</time>
      </trkpt>
      <trkpt lat="48.21125" lon="6.57598">
        <ele>377.4</ele>
        <time>2024-06-09T12:10:03Z</time>
      </trkpt>
      <trkpt lat="48.21132" lon="6.57608">
        <ele>377.1</ele>
        <time>2024-06-09T12:10:10Z</time>
      </trkpt>
      <trkpt lat="48.21141" lon="6.57616">
        <ele>377</ele>
        <time>2024-06-09T12:10:17Z</time>
      </trkpt>
      <trkpt lat="48.21149" lon="6.57623">
        <ele>377</ele>
        <time>2024-06-09T12:10:24Z</time>
      </trkpt>
      <trkpt lat="48.21158" lon="6.57617">
        <ele>376.9</ele>
        <time>2024-06-09T12:10:32Z</time>
      </trkpt>
      <trkpt lat="48.21164" lon="6.57606">
        <ele>376.7</ele>
        <time>2024-06-09T12:10:39Z</time>
      </trkpt>
      <trkpt lat="48.21168" lon="6.57593">
        <ele>376.6</ele>
        <time>2024-06-09T12:10:46Z</time>
      </trkpt>
      <trkpt lat="48.21174" lon="6.57582">
        <ele>376.6</ele>
        <time>2024-06-09T12:10:53Z</time>
      </trkpt>
      <trkpt lat="48.21179" lon="6.5757">
        <ele>376.6</ele>
        <time>2024-06-09T12:11:00Z</time>
      </trkpt>
      <trkpt lat="48.2118" lon="6.57557">
        <ele>376.9</ele>
        <time>2024-06-09T12:11:07Z</time>
      </trkpt>
      <trkpt lat="48.21183" lon="6.57542">
        <ele>377.1</ele>
        <time>2024-06-09T12:11:15Z</time>
      </trkpt>
      <trkpt lat="48.21186" lon="6.57528">
        <ele>377.3</ele>
        <time>2024-06-09T12:11:23Z</time>
      </trkpt>
      <trkpt lat="48.21193" lon="6.57519">
        <ele>377.7</ele>
        <time>2024-06-09T12:11:32Z</time>
      </trkpt>
      <trkpt lat="48.21202" lon="6.57512">
        <ele>378.4</ele>
        <time>2024-06-09T12:11:40Z</time>
      </trkpt>
      <trkpt lat="48.2121" lon="6.57505">
        <ele>379.2</ele>
        <time>2024-06-09T12:11:48Z</time>
      </trkpt>
      <trkpt lat="48.21218" lon="6.57498">
        <ele>380.1</ele>
        <time>2024-06-09T12:11:55Z</time>
      </trkpt>
      <trkpt lat="48.21226" lon="6.57492">
        <ele>380.7</ele>
        <time>2024-06-09T12:12:02Z</time>
      </trkpt>
      <trkpt lat="48.21232" lon="6.5748">
        <ele>381.1</ele>
        <time>2024-06-09T12:12:10Z</time>
      </trkpt>
      <trkpt lat="48.21232" lon="6.57465">
        <ele>381.3</ele>
        <time>2024-06-09T12:12:17Z</time>
      </trkpt>
      <trkpt lat="48.21232" lon="6.5745">
        <ele>381.5</ele>
        <time>2024-06-09T12:12:24Z</time>
      </trkpt>
      <trkpt lat="48.21231" lon="6.57435">
        <ele>381.7</ele>
        <time>2024-06-09T12:12:31Z</time>
      </trkpt>
      <trkpt lat="48.21229" lon="6.57421">
        <ele>382</ele>
        <time>2024-06-09T12:12:38Z</time>
      </trkpt>
      <trkpt lat="48.21225" lon="6.57407">
        <ele>382.2</ele>
        <time>2024-06-09T12:12:45Z</time>
      </trkpt>
      <trkpt lat="48.21219" lon="6.57395">
        <ele>382.2</ele>
        <time>2024-06-09T12:12:52Z</time>
      </trkpt>
      <trkpt lat="48.21213" lon="6.57383">
        <ele>382.3</ele>
        <time>2024-06-09T12:12:59Z</time>
      </trkpt>
      <trkpt lat="48.21209" lon="6.57371">
        <ele>382.3</ele>
        <time>2024-06-09T12:13:06Z</time>
      </trkpt>
      <trkpt lat="48.21204" lon="6.57358">
        <ele>382.3</ele>
        <time>2024-06-09T12:13:13Z</time>
      </trkpt>
      <trkpt lat="48.212" lon="6.57346">
        <ele>382.2</ele>
        <time>2024-06-09T12:13:20Z</time>
      </trkpt>
      <trkpt lat="48.21196" lon="6.57333">
        <ele>382.1</ele>
        <time>2024-06-09T12:13:27Z</time>
      </trkpt>
      <trkpt lat="48.21193" lon="6.5732">
        <ele>381.9</ele>
        <time>2024-06-09T12:13:34Z</time>
      </trkpt>
      <trkpt lat="48.21187" lon="6.57308">
        <ele>381.4</ele>
        <time>2024-06-09T12:13:42Z</time>
      </trkpt>
      <trkpt lat="48.21182" lon="6.57296">
        <ele>380.9</ele>
        <time>2024-06-09T12:13:50Z</time>
      </trkpt>
      <trkpt lat="48.21177" lon="6.57283">
        <ele>380.4</ele>
        <time>2024-06-09T12:13:57Z</time>
      </trkpt>
      <trkpt lat="48.21172" lon="6.57269">
        <ele>379.9</ele>
        <time>2024-06-09T12:14:07Z</time>
      </trkpt>
      <trkpt lat="48.21168" lon="6.57256">
        <ele>379.6</ele>
        <time>2024-06-09T12:14:13Z</time>
      </trkpt>
      <trkpt lat="48.2117" lon="6.57243">
        <ele>379.3</ele>
        <time>2024-06-09T12:14:20Z</time>
      </trkpt>
      <trkpt lat="48.21176" lon="6.57231">
        <ele>379.6</ele>
        <time>2024-06-09T12:14:27Z</time>
      </trkpt>
      <trkpt lat="48.21182" lon="6.5722">
        <ele>379.9</ele>
        <time>2024-06-09T12:14:34Z</time>
      </trkpt>
      <trkpt lat="48.21189" lon="6.5721">
        <ele>380.3</ele>
        <time>2024-06-09T12:14:42Z</time>
      </trkpt>
      <trkpt lat="48.21196" lon="6.572">
        <ele>380.7</ele>
        <time>2024-06-09T12:14:49Z</time>
      </trkpt>
      <trkpt lat="48.21203" lon="6.5719">
        <ele>381.1</ele>
        <time>2024-06-09T12:14:56Z</time>
      </trkpt>
      <trkpt lat="48.21211" lon="6.5718">
        <ele>381.5</ele>
        <time>2024-06-09T12:15:04Z</time>
      </trkpt>
      <trkpt lat="48.21218" lon="6.57169">
        <ele>381.9</ele>
        <time>2024-06-09T12:15:12Z</time>
      </trkpt>
      <trkpt lat="48.21225" lon="6.57161">
        <ele>382.1</ele>
        <time>2024-06-09T12:15:19Z</time>
      </trkpt>
      <trkpt lat="48.21233" lon="6.57152">
        <ele>382.4</ele>
        <time>2024-06-09T12:15:26Z</time>
      </trkpt>
      <trkpt lat="48.21241" lon="6.57145">
        <ele>382.8</ele>
        <time>2024-06-09T12:15:33Z</time>
      </trkpt>
      <trkpt lat="48.2125" lon="6.57139">
        <ele>383.5</ele>
        <time>2024-06-09T12:15:40Z</time>
      </trkpt>
      <trkpt lat="48.21259" lon="6.57131">
        <ele>384.3</ele>
        <time>2024-06-09T12:15:48Z</time>
      </trkpt>
      <trkpt lat="48.21267" lon="6.57123">
        <ele>385</ele>
        <time>2024-06-09T12:15:56Z</time>
      </trkpt>
      <trkpt lat="48.21274" lon="6.57113">
        <ele>385.7</ele>
        <time>2024-06-09T12:16:04Z</time>
      </trkpt>
      <trkpt lat="48.21282" lon="6.57103">
        <ele>386.1</ele>
        <time>2024-06-09T12:16:11Z</time>
      </trkpt>
      <trkpt lat="48.21287" lon="6.57093">
        <ele>386.5</ele>
        <time>2024-06-09T12:16:18Z</time>
      </trkpt>
      <trkpt lat="48.21294" lon="6.57082">
        <ele>386.9</ele>
        <time>2024-06-09T12:16:25Z</time>
      </trkpt>
      <trkpt lat="48.21301" lon="6.57071">
        <ele>387.3</ele>
        <time>2024-06-09T12:16:32Z</time>
      </trkpt>
      <trkpt lat="48.21308" lon="6.57061">
        <ele>387.6</ele>
        <time>2024-06-09T12:16:39Z</time>
      </trkpt>
      <trkpt lat="48.21311" lon="6.57048">
        <ele>387.7</ele>
        <time>2024-06-09T12:16:46Z</time>
      </trkpt>
      <trkpt lat="48.21314" lon="6.57034">
        <ele>387.7</ele>
        <time>2024-06-09T12:16:54Z</time>
      </trkpt>
      <trkpt lat="48.21323" lon="6.57028">
        <ele>387.5</ele>
        <time>2024-06-09T12:17:01Z</time>
      </trkpt>
      <trkpt lat="48.21328" lon="6.57016">
        <ele>387.3</ele>
        <time>2024-06-09T12:17:08Z</time>
      </trkpt>
      <trkpt lat="48.21332" lon="6.57004">
        <ele>387.1</ele>
        <time>2024-06-09T12:17:15Z</time>
      </trkpt>
      <trkpt lat="48.21337" lon="6.56992">
        <ele>386.8</ele>
        <time>2024-06-09T12:17:22Z</time>
      </trkpt>
      <trkpt lat="48.21341" lon="6.56979">
        <ele>386.6</ele>
        <time>2024-06-09T12:17:29Z</time>
      </trkpt>
      <trkpt lat="48.21346" lon="6.56966">
        <ele>386.4</ele>
        <time>2024-06-09T12:17:36Z</time>
      </trkpt>
      <trkpt lat="48.21351" lon="6.56955">
        <ele>386.2</ele>
        <time>2024-06-09T12:17:43Z</time>
      </trkpt>
      <trkpt lat="48.21356" lon="6.56943">
        <ele>386</ele>
        <time>2024-06-09T12:17:50Z</time>
      </trkpt>
      <trkpt lat="48.21362" lon="6.56932">
        <ele>385.8</ele>
        <time>2024-06-09T12:17:57Z</time>
      </trkpt>
      <trkpt lat="48.21368" lon="6.5692">
        <ele>385.7</ele>
        <time>2024-06-09T12:18:04Z</time>
      </trkpt>
      <trkpt lat="48.21373" lon="6.5691">
        <ele>385.5</ele>
        <time>2024-06-09T12:18:11Z</time>
      </trkpt>
      <trkpt lat="48.21378" lon="6.56898">
        <ele>385.3</ele>
        <time>2024-06-09T12:18:18Z</time>
      </trkpt>
      <trkpt lat="48.21384" lon="6.56886">
        <ele>385</ele>
        <time>2024-06-09T12:18:25Z</time>
      </trkpt>
      <trkpt lat="48.21389" lon="6.56875">
        <ele>384.8</ele>
        <time>2024-06-09T12:18:32Z</time>
      </trkpt>
      <trkpt lat="48.21395" lon="6.56863">
        <ele>384.6</ele>
        <time>2024-06-09T12:18:39Z</time>
      </trkpt>
      <trkpt lat="48.214" lon="6.56852">
        <ele>384.4</ele>
        <time>2024-06-09T12:18:46Z</time>
      </trkpt>
      <trkpt lat="48.21406" lon="6.5684">
        <ele>384.1</ele>
        <time>2024-06-09T12:18:53Z</time>
      </trkpt>
      <trkpt lat="48.21412" lon="6.56829">
        <ele>384</ele>
        <time>2024-06-09T12:18:59Z</time>
      </trkpt>
      <trkpt lat="48.21419" lon="6.56819">
        <ele>383.8</ele>
        <time>2024-06-09T12:19:06Z</time>
      </trkpt>
      <trkpt lat="48.21426" lon="6.5681">
        <ele>383.6</ele>
        <time>2024-06-09T12:19:14Z</time>
      </trkpt>
      <trkpt lat="48.21435" lon="6.56802">
        <ele>383.5</ele>
        <time>2024-06-09T12:19:22Z</time>
      </trkpt>
      <trkpt lat="48.21443" lon="6.56794">
        <ele>383.4</ele>
        <time>2024-06-09T12:19:30Z</time>
      </trkpt>
      <trkpt lat="48.21451" lon="6.56787">
        <ele>383.3</ele>
        <time>2024-06-09T12:19:37Z</time>
      </trkpt>
      <trkpt lat="48.21459" lon="6.56781">
        <ele>383.2</ele>
        <time>2024-06-09T12:19:44Z</time>
      </trkpt>
      <trkpt lat="48.21468" lon="6.56774">
        <ele>383.1</ele>
        <time>2024-06-09T12:19:52Z</time>
      </trkpt>
      <trkpt lat="48.21477" lon="6.56767">
        <ele>383.1</ele>
        <time>2024-06-09T12:19:59Z</time>
      </trkpt>
      <trkpt lat="48.21485" lon="6.56761">
        <ele>383</ele>
        <time>2024-06-09T12:20:06Z</time>
      </trkpt>
      <trkpt lat="48.21493" lon="6.56754">
        <ele>382.9</ele>
        <time>2024-06-09T12:20:13Z</time>
      </trkpt>
      <trkpt lat="48.21502" lon="6.56748">
        <ele>382.9</ele>
        <time>2024-06-09T12:20:20Z</time>
      </trkpt>
      <trkpt lat="48.2151" lon="6.56741">
        <ele>382.9</ele>
        <time>2024-06-09T12:20:27Z</time>
      </trkpt>
      <trkpt lat="48.21518" lon="6.56734">
        <ele>382.8</ele>
        <time>2024-06-09T12:20:35Z</time>
      </trkpt>
      <trkpt lat="48.21526" lon="6.56727">
        <ele>382.8</ele>
        <time>2024-06-09T12:20:42Z</time>
      </trkpt>
      <trkpt lat="48.21534" lon="6.5672">
        <ele>382.8</ele>
        <time>2024-06-09T12:20:49Z</time>
      </trkpt>
      <trkpt lat="48.21543" lon="6.56713">
        <ele>382.8</ele>
        <time>2024-06-09T12:20:56Z</time>
      </trkpt>
      <trkpt lat="48.21552" lon="6.56705">
        <ele>382.7</ele>
        <time>2024-06-09T12:21:03Z</time>
      </trkpt>
      <trkpt lat="48.2156" lon="6.56698">
        <ele>382.7</ele>
        <time>2024-06-09T12:21:10Z</time>
      </trkpt>
      <trkpt lat="48.21569" lon="6.56691">
        <ele>382.7</ele>
        <time>2024-06-09T12:21:17Z</time>
      </trkpt>
      <trkpt lat="48.21577" lon="6.56684">
        <ele>382.6</ele>
        <time>2024-06-09T12:21:24Z</time>
      </trkpt>
      <trkpt lat="48.21585" lon="6.56678">
        <ele>382.6</ele>
        <time>2024-06-09T12:21:31Z</time>
      </trkpt>
      <trkpt lat="48.21593" lon="6.56672">
        <ele>382.5</ele>
        <time>2024-06-09T12:21:38Z</time>
      </trkpt>
      <trkpt lat="48.21602" lon="6.56665">
        <ele>382.3</ele>
        <time>2024-06-09T12:21:46Z</time>
      </trkpt>
      <trkpt lat="48.2161" lon="6.56658">
        <ele>382.1</ele>
        <time>2024-06-09T12:21:55Z</time>
      </trkpt>
      <trkpt lat="48.21618" lon="6.5665">
        <ele>381.9</ele>
        <time>2024-06-09T12:22:03Z</time>
      </trkpt>
      <trkpt lat="48.21625" lon="6.56642">
        <ele>381.7</ele>
        <time>2024-06-09T12:22:12Z</time>
      </trkpt>
      <trkpt lat="48.21634" lon="6.56635">
        <ele>381.4</ele>
        <time>2024-06-09T12:22:18Z</time>
      </trkpt>
      <trkpt lat="48.21643" lon="6.56628">
        <ele>381</ele>
        <time>2024-06-09T12:22:26Z</time>
      </trkpt>
      <trkpt lat="48.21652" lon="6.56622">
        <ele>380.7</ele>
        <time>2024-06-09T12:22:34Z</time>
      </trkpt>
      <trkpt lat="48.21661" lon="6.56614">
        <ele>380.3</ele>
        <time>2024-06-09T12:22:43Z</time>
      </trkpt>
      <trkpt lat="48.2167" lon="6.56609">
        <ele>380</ele>
        <time>2024-06-09T12:22:49Z</time>
      </trkpt>
      <trkpt lat="48.21678" lon="6.56601">
        <ele>379.6</ele>
        <time>2024-06-09T12:22:56Z</time>
      </trkpt>
      <trkpt lat="48.21686" lon="6.56594">
        <ele>379.2</ele>
        <time>2024-06-09T12:23:03Z</time>
      </trkpt>
      <trkpt lat="48.21695" lon="6.56586">
        <ele>378.8</ele>
        <time>2024-06-09T12:23:10Z</time>
      </trkpt>
      <trkpt lat="48.21703" lon="6.56578">
        <ele>378.3</ele>
        <time>2024-06-09T12:23:16Z</time>
      </trkpt>
      <trkpt lat="48.21711" lon="6.5657">
        <ele>377.9</ele>
        <time>2024-06-09T12:23:23Z</time>
      </trkpt>
      <trkpt lat="48.21719" lon="6.56563">
        <ele>377.4</ele>
        <time>2024-06-09T12:23:31Z</time>
      </trkpt>
      <trkpt lat="48.21727" lon="6.56556">
        <ele>377</ele>
        <time>2024-06-09T12:23:39Z</time>
      </trkpt>
      <trkpt lat="48.21734" lon="6.56548">
        <ele>376.5</ele>
        <time>2024-06-09T12:23:47Z</time>
      </trkpt>
      <trkpt lat="48.21743" lon="6.56543">
        <ele>376</ele>
        <time>2024-06-09T12:23:52Z</time>
      </trkpt>
      <trkpt lat="48.21751" lon="6.56536">
        <ele>375.5</ele>
        <time>2024-06-09T12:23:58Z</time>
      </trkpt>
      <trkpt lat="48.21761" lon="6.56531">
        <ele>375</ele>
        <time>2024-06-09T12:24:05Z</time>
      </trkpt>
      <trkpt lat="48.21769" lon="6.56524">
        <ele>374.4</ele>
        <time>2024-06-09T12:24:15Z</time>
      </trkpt>
      <trkpt lat="48.21779" lon="6.5652">
        <ele>373.8</ele>
        <time>2024-06-09T12:24:23Z</time>
      </trkpt>
      <trkpt lat="48.21788" lon="6.56514">
        <ele>373.1</ele>
        <time>2024-06-09T12:24:29Z</time>
      </trkpt>
      <trkpt lat="48.21796" lon="6.56508">
        <ele>372.5</ele>
        <time>2024-06-09T12:24:35Z</time>
      </trkpt>
      <trkpt lat="48.21804" lon="6.56499">
        <ele>371.8</ele>
        <time>2024-06-09T12:24:44Z</time>
      </trkpt>
      <trkpt lat="48.21813" lon="6.56492">
        <ele>371.2</ele>
        <time>2024-06-09T12:24:50Z</time>
      </trkpt>
      <trkpt lat="48.21822" lon="6.56487">
        <ele>370.5</ele>
        <time>2024-06-09T12:24:56Z</time>
      </trkpt>
      <trkpt lat="48.2183" lon="6.5648">
        <ele>369.9</ele>
        <time>2024-06-09T12:25:03Z</time>
      </trkpt>
      <trkpt lat="48.21838" lon="6.56472">
        <ele>369.2</ele>
        <time>2024-06-09T12:25:13Z</time>
      </trkpt>
      <trkpt lat="48.21847" lon="6.56463">
        <ele>368.4</ele>
        <time>2024-06-09T12:25:21Z</time>
      </trkpt>
      <trkpt lat="48.21855" lon="6.56454">
        <ele>367.7</ele>
        <time>2024-06-09T12:25:28Z</time>
      </trkpt>
      <trkpt lat="48.21864" lon="6.56449">
        <ele>367</ele>
        <time>2024-06-09T12:25:38Z</time>
      </trkpt>
      <trkpt lat="48.21873" lon="6.56444">
        <ele>366.4</ele>
        <time>2024-06-09T12:25:43Z</time>
      </trkpt>
      <trkpt lat="48.21882" lon="6.56439">
        <ele>365.7</ele>
        <time>2024-06-09T12:25:52Z</time>
      </trkpt>
      <trkpt lat="48.21893" lon="6.56433">
        <ele>365</ele>
        <time>2024-06-09T12:25:59Z</time>
      </trkpt>
      <trkpt lat="48.21901" lon="6.56427">
        <ele>364.6</ele>
        <time>2024-06-09T12:26:06Z</time>
      </trkpt>
      <trkpt lat="48.21909" lon="6.5642">
        <ele>364.1</ele>
        <time>2024-06-09T12:26:12Z</time>
      </trkpt>
      <trkpt lat="48.21918" lon="6.56412">
        <ele>363.5</ele>
        <time>2024-06-09T12:26:19Z</time>
      </trkpt>
      <trkpt lat="48.21927" lon="6.56405">
        <ele>363</ele>
        <time>2024-06-09T12:26:26Z</time>
      </trkpt>
      <trkpt lat="48.21935" lon="6.56396">
        <ele>362.5</ele>
        <time>2024-06-09T12:26:34Z</time>
      </trkpt>
      <trkpt lat="48.21944" lon="6.5639">
        <ele>362</ele>
        <time>2024-06-09T12:26:40Z</time>
      </trkpt>
      <trkpt lat="48.21952" lon="6.56382">
        <ele>361.5</ele>
        <time>2024-06-09T12:26:48Z</time>
      </trkpt>
      <trkpt lat="48.21961" lon="6.56374">
        <ele>361.1</ele>
        <time>2024-06-09T12:26:56Z</time>
      </trkpt>
      <trkpt lat="48.21969" lon="6.56366">
        <ele>360.6</ele>
        <time>2024-06-09T12:27:04Z</time>
      </trkpt>
      <trkpt lat="48.21977" lon="6.56359">
        <ele>360.3</ele>
        <time>2024-06-09T12:27:12Z</time>
      </trkpt>
      <trkpt lat="48.21985" lon="6.56351">
        <ele>359.9</ele>
        <time>2024-06-09T12:27:19Z</time>
      </trkpt>
      <trkpt lat="48.21995" lon="6.56345">
        <ele>359.6</ele>
        <time>2024-06-09T12:27:26Z</time>
      </trkpt>
      <trkpt lat="48.22004" lon="6.56339">
        <ele>359.3</ele>
        <time>2024-06-09T12:27:33Z</time>
      </trkpt>
      <trkpt lat="48.22011" lon="6.56331">
        <ele>358.9</ele>
        <time>2024-06-09T12:27:41Z</time>
      </trkpt>
      <trkpt lat="48.2202" lon="6.56323">
        <ele>358.4</ele>
        <time>2024-06-09T12:27:48Z</time>
      </trkpt>
      <trkpt lat="48.22028" lon="6.56316">
        <ele>357.8</ele>
        <time>2024-06-09T12:27:56Z</time>
      </trkpt>
      <trkpt lat="48.22037" lon="6.5631">
        <ele>357.3</ele>
        <time>2024-06-09T12:28:03Z</time>
      </trkpt>
      <trkpt lat="48.22046" lon="6.56303">
        <ele>356.6</ele>
        <time>2024-06-09T12:28:09Z</time>
      </trkpt>
      <trkpt lat="48.22054" lon="6.56295">
        <ele>356</ele>
        <time>2024-06-09T12:28:16Z</time>
      </trkpt>
      <trkpt lat="48.22063" lon="6.56287">
        <ele>355.4</ele>
        <time>2024-06-09T12:28:24Z</time>
      </trkpt>
      <trkpt lat="48.22071" lon="6.56279">
        <ele>354.8</ele>
        <time>2024-06-09T12:28:31Z</time>
      </trkpt>
      <trkpt lat="48.2208" lon="6.56274">
        <ele>354.2</ele>
        <time>2024-06-09T12:28:38Z</time>
      </trkpt>
      <trkpt lat="48.22089" lon="6.56267">
        <ele>353.6</ele>
        <time>2024-06-09T12:28:46Z</time>
      </trkpt>
      <trkpt lat="48.22098" lon="6.5626">
        <ele>353.1</ele>
        <time>2024-06-09T12:28:53Z</time>
      </trkpt>
      <trkpt lat="48.22106" lon="6.56253">
        <ele>352.5</ele>
        <time>2024-06-09T12:29:00Z</time>
      </trkpt>
      <trkpt lat="48.22115" lon="6.56244">
        <ele>351.9</ele>
        <time>2024-06-09T12:29:09Z</time>
      </trkpt>
      <trkpt lat="48.22122" lon="6.56236">
        <ele>351.4</ele>
        <time>2024-06-09T12:29:15Z</time>
      </trkpt>
      <trkpt lat="48.22129" lon="6.56226">
        <ele>350.9</ele>
        <time>2024-06-09T12:29:23Z</time>
      </trkpt>
      <trkpt lat="48.22137" lon="6.56219">
        <ele>350.4</ele>
        <time>2024-06-09T12:29:30Z</time>
      </trkpt>
      <trkpt lat="48.22145" lon="6.56211">
        <ele>350</ele>
        <time>2024-06-09T12:29:36Z</time>
      </trkpt>
      <trkpt lat="48.22153" lon="6.56201">
        <ele>349.5</ele>
        <time>2024-06-09T12:29:43Z</time>
      </trkpt>
      <trkpt lat="48.2216" lon="6.56193">
        <ele>349.1</ele>
        <time>2024-06-09T12:29:51Z</time>
      </trkpt>
      <trkpt lat="48.22167" lon="6.56183">
        <ele>348.6</ele>
        <time>2024-06-09T12:29:59Z</time>
      </trkpt>
      <trkpt lat="48.22175" lon="6.56175">
        <ele>348.2</ele>
        <time>2024-06-09T12:30:05Z</time>
      </trkpt>
      <trkpt lat="48.22183" lon="6.56167">
        <ele>347.8</ele>
        <time>2024-06-09T12:30:11Z</time>
      </trkpt>
      <trkpt lat="48.22191" lon="6.56157">
        <ele>347.3</ele>
        <time>2024-06-09T12:30:20Z</time>
      </trkpt>
      <trkpt lat="48.22198" lon="6.56148">
        <ele>346.9</ele>
        <time>2024-06-09T12:30:28Z</time>
      </trkpt>
      <trkpt lat="48.22207" lon="6.56141">
        <ele>346.5</ele>
        <time>2024-06-09T12:30:35Z</time>
      </trkpt>
      <trkpt lat="48.22216" lon="6.56136">
        <ele>346.2</ele>
        <time>2024-06-09T12:30:42Z</time>
      </trkpt>
      <trkpt lat="48.22223" lon="6.56128">
        <ele>345.9</ele>
        <time>2024-06-09T12:30:49Z</time>
      </trkpt>
      <trkpt lat="48.22231" lon="6.56118">
        <ele>345.6</ele>
        <time>2024-06-09T12:30:58Z</time>
      </trkpt>
      <trkpt lat="48.22237" lon="6.56107">
        <ele>345.3</ele>
        <time>2024-06-09T12:31:07Z</time>
      </trkpt>
      <trkpt lat="48.22245" lon="6.56098">
        <ele>345.1</ele>
        <time>2024-06-09T12:31:14Z</time>
      </trkpt>
      <trkpt lat="48.22253" lon="6.56089">
        <ele>344.8</ele>
        <time>2024-06-09T12:31:21Z</time>
      </trkpt>
      <trkpt lat="48.22262" lon="6.56081">
        <ele>344.5</ele>
        <time>2024-06-09T12:31:27Z</time>
      </trkpt>
      <trkpt lat="48.22269" lon="6.56071">
        <ele>344.2</ele>
        <time>2024-06-09T12:31:33Z</time>
      </trkpt>
      <trkpt lat="48.22278" lon="6.56063">
        <ele>343.9</ele>
        <time>2024-06-09T12:31:39Z</time>
      </trkpt>
      <trkpt lat="48.22284" lon="6.56053">
        <ele>343.7</ele>
        <time>2024-06-09T12:31:46Z</time>
      </trkpt>
      <trkpt lat="48.2229" lon="6.56043">
        <ele>343.5</ele>
        <time>2024-06-09T12:31:55Z</time>
      </trkpt>
      <trkpt lat="48.22298" lon="6.56035">
        <ele>343.4</ele>
        <time>2024-06-09T12:32:02Z</time>
      </trkpt>
      <trkpt lat="48.22306" lon="6.56026">
        <ele>343.3</ele>
        <time>2024-06-09T12:32:08Z</time>
      </trkpt>
      <trkpt lat="48.22314" lon="6.56019">
        <ele>343.3</ele>
        <time>2024-06-09T12:32:14Z</time>
      </trkpt>
      <trkpt lat="48.22321" lon="6.5601">
        <ele>343.2</ele>
        <time>2024-06-09T12:32:21Z</time>
      </trkpt>
      <trkpt lat="48.22329" lon="6.56001">
        <ele>343.2</ele>
        <time>2024-06-09T12:32:28Z</time>
      </trkpt>
      <trkpt lat="48.22336" lon="6.55992">
        <ele>343.2</ele>
        <time>2024-06-09T12:32:35Z</time>
      </trkpt>
      <trkpt lat="48.22343" lon="6.55983">
        <ele>343.1</ele>
        <time>2024-06-09T12:32:42Z</time>
      </trkpt>
      <trkpt lat="48.22351" lon="6.55975">
        <ele>343</ele>
        <time>2024-06-09T12:32:49Z</time>
      </trkpt>
      <trkpt lat="48.22359" lon="6.55966">
        <ele>343</ele>
        <time>2024-06-09T12:32:56Z</time>
      </trkpt>
      <trkpt lat="48.22367" lon="6.55955">
        <ele>343.1</ele>
        <time>2024-06-09T12:33:03Z</time>
      </trkpt>
      <trkpt lat="48.22374" lon="6.55946">
        <ele>343.2</ele>
        <time>2024-06-09T12:33:10Z</time>
      </trkpt>
      <trkpt lat="48.22381" lon="6.55936">
        <ele>343.4</ele>
        <time>2024-06-09T12:33:17Z</time>
      </trkpt>
      <trkpt lat="48.22389" lon="6.55928">
        <ele>343.6</ele>
        <time>2024-06-09T12:33:24Z</time>
      </trkpt>
      <trkpt lat="48.22396" lon="6.55918">
        <ele>343.9</ele>
        <time>2024-06-09T12:33:31Z</time>
      </trkpt>
      <trkpt lat="48.22403" lon="6.55907">
        <ele>344.2</ele>
        <time>2024-06-09T12:33:38Z</time>
      </trkpt>
      <trkpt lat="48.2241" lon="6.55897">
        <ele>344.6</ele>
        <time>2024-06-09T12:33:45Z</time>
      </trkpt>
      <trkpt lat="48.22417" lon="6.55886">
        <ele>345</ele>
        <time>2024-06-09T12:33:52Z</time>
      </trkpt>
      <trkpt lat="48.22422" lon="6.55876">
        <ele>345.2</ele>
        <time>2024-06-09T12:33:58Z</time>
      </trkpt>
      <trkpt lat="48.22428" lon="6.55865">
        <ele>345.5</ele>
        <time>2024-06-09T12:34:04Z</time>
      </trkpt>
      <trkpt lat="48.22435" lon="6.55856">
        <ele>345.7</ele>
        <time>2024-06-09T12:34:10Z</time>
      </trkpt>
      <trkpt lat="48.22442" lon="6.55847">
        <ele>345.9</ele>
        <time>2024-06-09T12:34:16Z</time>
      </trkpt>
      <trkpt lat="48.22449" lon="6.55837">
        <ele>346.1</ele>
        <time>2024-06-09T12:34:22Z</time>
      </trkpt>
      <trkpt lat="48.22456" lon="6.55827">
        <ele>346.2</ele>
        <time>2024-06-09T12:34:29Z</time>
      </trkpt>
      <trkpt lat="48.22464" lon="6.55816">
        <ele>346.3</ele>
        <time>2024-06-09T12:34:36Z</time>
      </trkpt>
      <trkpt lat="48.22471" lon="6.55806">
        <ele>346.3</ele>
        <time>2024-06-09T12:34:43Z</time>
      </trkpt>
      <trkpt lat="48.22476" lon="6.55795">
        <ele>346.4</ele>
        <time>2024-06-09T12:34:50Z</time>
      </trkpt>
      <trkpt lat="48.22482" lon="6.55784">
        <ele>346.4</ele>
        <time>2024-06-09T12:34:57Z</time>
      </trkpt>
      <trkpt lat="48.22488" lon="6.55773">
        <ele>346.4</ele>
        <time>2024-06-09T12:35:04Z</time>
      </trkpt>
      <trkpt lat="48.22494" lon="6.55762">
        <ele>346.4</ele>
        <time>2024-06-09T12:35:11Z</time>
      </trkpt>
      <trkpt lat="48.225" lon="6.55751">
        <ele>346.4</ele>
        <time>2024-06-09T12:35:18Z</time>
      </trkpt>
      <trkpt lat="48.22507" lon="6.5574">
        <ele>346.4</ele>
        <time>2024-06-09T12:35:25Z</time>
      </trkpt>
      <trkpt lat="48.22513" lon="6.55729">
        <ele>346.4</ele>
        <time>2024-06-09T12:35:32Z</time>
      </trkpt>
      <trkpt lat="48.2252" lon="6.55718">
        <ele>346.4</ele>
        <time>2024-06-09T12:35:40Z</time>
      </trkpt>
      <trkpt lat="48.22527" lon="6.55708">
        <ele>346.4</ele>
        <time>2024-06-09T12:35:47Z</time>
      </trkpt>
      <trkpt lat="48.22534" lon="6.55697">
        <ele>345.9</ele>
        <time>2024-06-09T12:35:55Z</time>
      </trkpt>
      <trkpt lat="48.2254" lon="6.55685">
        <ele>345.4</ele>
        <time>2024-06-09T12:36:03Z</time>
      </trkpt>
      <trkpt lat="48.22546" lon="6.55674">
        <ele>344.8</ele>
        <time>2024-06-09T12:36:10Z</time>
      </trkpt>
      <trkpt lat="48.22552" lon="6.55663">
        <ele>344.2</ele>
        <time>2024-06-09T12:36:17Z</time>
      </trkpt>
      <trkpt lat="48.22559" lon="6.55651">
        <ele>343.6</ele>
        <time>2024-06-09T12:36:25Z</time>
      </trkpt>
      <trkpt lat="48.22565" lon="6.55641">
        <ele>343</ele>
        <time>2024-06-09T12:36:32Z</time>
      </trkpt>
      <trkpt lat="48.22571" lon="6.5563">
        <ele>342.4</ele>
        <time>2024-06-09T12:36:39Z</time>
      </trkpt>
      <trkpt lat="48.22577" lon="6.5562">
        <ele>341.9</ele>
        <time>2024-06-09T12:36:46Z</time>
      </trkpt>
      <trkpt lat="48.22583" lon="6.55609">
        <ele>341.4</ele>
        <time>2024-06-09T12:36:53Z</time>
      </trkpt>
      <trkpt lat="48.22589" lon="6.55597">
        <ele>340.9</ele>
        <time>2024-06-09T12:37:01Z</time>
      </trkpt>
      <trkpt lat="48.22595" lon="6.55587">
        <ele>340.3</ele>
        <time>2024-06-09T12:37:09Z</time>
      </trkpt>
      <trkpt lat="48.22602" lon="6.55575">
        <ele>339.8</ele>
        <time>2024-06-09T12:37:17Z</time>
      </trkpt>
      <trkpt lat="48.22609" lon="6.55564">
        <ele>339.2</ele>
        <time>2024-06-09T12:37:25Z</time>
      </trkpt>
      <trkpt lat="48.22614" lon="6.55553">
        <ele>338.7</ele>
        <time>2024-06-09T12:37:32Z</time>
      </trkpt>
      <trkpt lat="48.2262" lon="6.55541">
        <ele>338.2</ele>
        <time>2024-06-09T12:37:40Z</time>
      </trkpt>
      <trkpt lat="48.22628" lon="6.55533">
        <ele>337.8</ele>
        <time>2024-06-09T12:37:48Z</time>
      </trkpt>
      <trkpt lat="48.22637" lon="6.55525">
        <ele>337.4</ele>
        <time>2024-06-09T12:37:56Z</time>
      </trkpt>
      <trkpt lat="48.22646" lon="6.55521">
        <ele>337</ele>
        <time>2024-06-09T12:38:03Z</time>
      </trkpt>
      <trkpt lat="48.22655" lon="6.55515">
        <ele>336.7</ele>
        <time>2024-06-09T12:38:11Z</time>
      </trkpt>
      <trkpt lat="48.22664" lon="6.55509">
        <ele>336.4</ele>
        <time>2024-06-09T12:38:19Z</time>
      </trkpt>
      <trkpt lat="48.22673" lon="6.55504">
        <ele>336.1</ele>
        <time>2024-06-09T12:38:27Z</time>
      </trkpt>
      <trkpt lat="48.22683" lon="6.55498">
        <ele>335.8</ele>
        <time>2024-06-09T12:38:35Z</time>
      </trkpt>
      <trkpt lat="48.22691" lon="6.55493">
        <ele>335.4</ele>
        <time>2024-06-09T12:38:42Z</time>
      </trkpt>
      <trkpt lat="48.227" lon="6.55487">
        <ele>334.9</ele>
        <time>2024-06-09T12:38:49Z</time>
      </trkpt>
      <trkpt lat="48.22709" lon="6.55483">
        <ele>334.5</ele>
        <time>2024-06-09T12:38:56Z</time>
      </trkpt>
      <trkpt lat="48.22718" lon="6.55478">
        <ele>334.1</ele>
        <time>2024-06-09T12:39:03Z</time>
      </trkpt>
      <trkpt lat="48.22728" lon="6.55473">
        <ele>333.6</ele>
        <time>2024-06-09T12:39:10Z</time>
      </trkpt>
      <trkpt lat="48.22737" lon="6.55469">
        <ele>333.3</ele>
        <time>2024-06-09T12:39:17Z</time>
      </trkpt>
      <trkpt lat="48.22745" lon="6.55463">
        <ele>333</ele>
        <time>2024-06-09T12:39:24Z</time>
      </trkpt>
      <trkpt lat="48.22754" lon="6.55458">
        <ele>332.7</ele>
        <time>2024-06-09T12:39:31Z</time>
      </trkpt>
      <trkpt lat="48.22763" lon="6.55454">
        <ele>332.4</ele>
        <time>2024-06-09T12:39:38Z</time>
      </trkpt>
      <trkpt lat="48.22772" lon="6.55449">
        <ele>332.2</ele>
        <time>2024-06-09T12:39:45Z</time>
      </trkpt>
      <trkpt lat="48.2278" lon="6.55443">
        <ele>332.1</ele>
        <time>2024-06-09T12:39:52Z</time>
      </trkpt>
      <trkpt lat="48.22789" lon="6.55439">
        <ele>332.1</ele>
        <time>2024-06-09T12:39:59Z</time>
      </trkpt>
      <trkpt lat="48.22798" lon="6.55434">
        <ele>332.1</ele>
        <time>2024-06-09T12:40:06Z</time>
      </trkpt>
      <trkpt lat="48.22807" lon="6.55429">
        <ele>332.2</ele>
        <time>2024-06-09T12:40:13Z</time>
      </trkpt>
      <trkpt lat="48.22816" lon="6.55423">
        <ele>332.3</ele>
        <time>2024-06-09T12:40:20Z</time>
      </trkpt>
      <trkpt lat="48.22825" lon="6.55418">
        <ele>332.4</ele>
        <time>2024-06-09T12:40:27Z</time>
      </trkpt>
      <trkpt lat="48.22834" lon="6.55413">
        <ele>332.5</ele>
        <time>2024-06-09T12:40:34Z</time>
      </trkpt>
      <trkpt lat="48.22843" lon="6.55408">
        <ele>332.6</ele>
        <time>2024-06-09T12:40:41Z</time>
      </trkpt>
      <trkpt lat="48.22851" lon="6.55403">
        <ele>332.8</ele>
        <time>2024-06-09T12:40:48Z</time>
      </trkpt>
      <trkpt lat="48.2286" lon="6.55398">
        <ele>332.9</ele>
        <time>2024-06-09T12:40:55Z</time>
      </trkpt>
      <trkpt lat="48.22869" lon="6.55392">
        <ele>333</ele>
        <time>2024-06-09T12:41:02Z</time>
      </trkpt>
      <trkpt lat="48.22878" lon="6.55388">
        <ele>333.1</ele>
        <time>2024-06-09T12:41:09Z</time>
      </trkpt>
      <trkpt lat="48.22887" lon="6.55383">
        <ele>333.3</ele>
        <time>2024-06-09T12:41:16Z</time>
      </trkpt>
      <trkpt lat="48.22896" lon="6.55378">
        <ele>333.4</ele>
        <time>2024-06-09T12:41:23Z</time>
      </trkpt>
      <trkpt lat="48.22905" lon="6.55374">
        <ele>333.6</ele>
        <time>2024-06-09T12:41:30Z</time>
      </trkpt>
      <trkpt lat="48.22914" lon="6.55369">
        <ele>333.7</ele>
        <time>2024-06-09T12:41:37Z</time>
      </trkpt>
      <trkpt lat="48.22923" lon="6.55364">
        <ele>333.8</ele>
        <time>2024-06-09T12:41:44Z</time>
      </trkpt>
      <trkpt lat="48.22932" lon="6.55358">
        <ele>333.8</ele>
        <time>2024-06-09T12:41:52Z</time>
      </trkpt>
      <trkpt lat="48.22941" lon="6.55353">
        <ele>333.9</ele>
        <time>2024-06-09T12:41:59Z</time>
      </trkpt>
      <trkpt lat="48.22951" lon="6.55348">
        <ele>334</ele>
        <time>2024-06-09T12:42:06Z</time>
      </trkpt>
      <trkpt lat="48.22959" lon="6.55343">
        <ele>334.1</ele>
        <time>2024-06-09T12:42:13Z</time>
      </trkpt>
      <trkpt lat="48.22968" lon="6.55339">
        <ele>334.2</ele>
        <time>2024-06-09T12:42:20Z</time>
      </trkpt>
      <trkpt lat="48.22977" lon="6.55334">
        <ele>334.2</ele>
        <time>2024-06-09T12:42:27Z</time>
      </trkpt>
      <trkpt lat="48.22986" lon="6.55328">
        <ele>334.2</ele>
        <time>2024-06-09T12:42:34Z</time>
      </trkpt>
      <trkpt lat="48.22995" lon="6.55322">
        <ele>334.2</ele>
        <time>2024-06-09T12:42:41Z</time>
      </trkpt>
      <trkpt lat="48.23004" lon="6.55318">
        <ele>334.2</ele>
        <time>2024-06-09T12:42:48Z</time>
      </trkpt>
      <trkpt lat="48.23013" lon="6.55312">
        <ele>334.1</ele>
        <time>2024-06-09T12:42:55Z</time>
      </trkpt>
      <trkpt lat="48.23022" lon="6.55306">
        <ele>333.9</ele>
        <time>2024-06-09T12:43:02Z</time>
      </trkpt>
      <trkpt lat="48.23031" lon="6.55302">
        <ele>333.7</ele>
        <time>2024-06-09T12:43:08Z</time>
      </trkpt>
      <trkpt lat="48.2304" lon="6.55297">
        <ele>333.5</ele>
        <time>2024-06-09T12:43:15Z</time>
      </trkpt>
      <trkpt lat="48.23049" lon="6.55292">
        <ele>333.2</ele>
        <time>2024-06-09T12:43:22Z</time>
      </trkpt>
      <trkpt lat="48.23057" lon="6.55287">
        <ele>333</ele>
        <time>2024-06-09T12:43:29Z</time>
      </trkpt>
      <trkpt lat="48.23066" lon="6.55282">
        <ele>332.8</ele>
        <time>2024-06-09T12:43:36Z</time>
      </trkpt>
      <trkpt lat="48.23074" lon="6.55277">
        <ele>332.6</ele>
        <time>2024-06-09T12:43:43Z</time>
      </trkpt>
      <trkpt lat="48.23083" lon="6.55272">
        <ele>332.4</ele>
        <time>2024-06-09T12:43:50Z</time>
      </trkpt>
      <trkpt lat="48.23091" lon="6.55267">
        <ele>332.1</ele>
        <time>2024-06-09T12:43:57Z</time>
      </trkpt>
      <trkpt lat="48.231" lon="6.55262">
        <ele>331.9</ele>
        <time>2024-06-09T12:44:04Z</time>
      </trkpt>
      <trkpt lat="48.23109" lon="6.55256">
        <ele>331.6</ele>
        <time>2024-06-09T12:44:11Z</time>
      </trkpt>
      <trkpt lat="48.23118" lon="6.55251">
        <ele>331.3</ele>
        <time>2024-06-09T12:44:18Z</time>
      </trkpt>
      <trkpt lat="48.23127" lon="6.55247">
        <ele>331.1</ele>
        <time>2024-06-09T12:44:25Z</time>
      </trkpt>
      <trkpt lat="48.23136" lon="6.55243">
        <ele>330.9</ele>
        <time>2024-06-09T12:44:32Z</time>
      </trkpt>
      <trkpt lat="48.23145" lon="6.55237">
        <ele>330.7</ele>
        <time>2024-06-09T12:44:40Z</time>
      </trkpt>
      <trkpt lat="48.23153" lon="6.55232">
        <ele>330.5</ele>
        <time>2024-06-09T12:44:47Z</time>
      </trkpt>
      <trkpt lat="48.23163" lon="6.55227">
        <ele>330.4</ele>
        <time>2024-06-09T12:44:54Z</time>
      </trkpt>
      <trkpt lat="48.23172" lon="6.55223">
        <ele>330.4</ele>
        <time>2024-06-09T12:45:01Z</time>
      </trkpt>
      <trkpt lat="48.23181" lon="6.55217">
        <ele>330.5</ele>
        <time>2024-06-09T12:45:09Z</time>
      </trkpt>
      <trkpt lat="48.23189" lon="6.55212">
        <ele>330.6</ele>
        <time>2024-06-09T12:45:16Z</time>
      </trkpt>
      <trkpt lat="48.23199" lon="6.55206">
        <ele>330.7</ele>
        <time>2024-06-09T12:45:24Z</time>
      </trkpt>
      <trkpt lat="48.23207" lon="6.55201">
        <ele>330.8</ele>
        <time>2024-06-09T12:45:31Z</time>
      </trkpt>
      <trkpt lat="48.23215" lon="6.55194">
        <ele>330.9</ele>
        <time>2024-06-09T12:45:38Z</time>
      </trkpt>
      <trkpt lat="48.23225" lon="6.55187">
        <ele>330.9</ele>
        <time>2024-06-09T12:45:46Z</time>
      </trkpt>
      <trkpt lat="48.23234" lon="6.5518">
        <ele>331</ele>
        <time>2024-06-09T12:45:54Z</time>
      </trkpt>
      <trkpt lat="48.23242" lon="6.55173">
        <ele>331</ele>
        <time>2024-06-09T12:46:02Z</time>
      </trkpt>
      <trkpt lat="48.23251" lon="6.55166">
        <ele>331.1</ele>
        <time>2024-06-09T12:46:09Z</time>
      </trkpt>
      <trkpt lat="48.23259" lon="6.55161">
        <ele>331.2</ele>
        <time>2024-06-09T12:46:16Z</time>
      </trkpt>
      <trkpt lat="48.23268" lon="6.55155">
        <ele>331.4</ele>
        <time>2024-06-09T12:46:23Z</time>
      </trkpt>
      <trkpt lat="48.23277" lon="6.55149">
        <ele>331.7</ele>
        <time>2024-06-09T12:46:30Z</time>
      </trkpt>
      <trkpt lat="48.23285" lon="6.55142">
        <ele>331.9</ele>
        <time>2024-06-09T12:46:38Z</time>
      </trkpt>
      <trkpt lat="48.23293" lon="6.55135">
        <ele>332.2</ele>
        <time>2024-06-09T12:46:46Z</time>
      </trkpt>
      <trkpt lat="48.23302" lon="6.55129">
        <ele>332.6</ele>
        <time>2024-06-09T12:46:53Z</time>
      </trkpt>
      <trkpt lat="48.23312" lon="6.55123">
        <ele>333.1</ele>
        <time>2024-06-09T12:47:00Z</time>
      </trkpt>
      <trkpt lat="48.23321" lon="6.55116">
        <ele>333.6</ele>
        <time>2024-06-09T12:47:08Z</time>
      </trkpt>
      <trkpt lat="48.23329" lon="6.55109">
        <ele>334.1</ele>
        <time>2024-06-09T12:47:15Z</time>
      </trkpt>
      <trkpt lat="48.23337" lon="6.55102">
        <ele>334.7</ele>
        <time>2024-06-09T12:47:23Z</time>
      </trkpt>
      <trkpt lat="48.23346" lon="6.55097">
        <ele>335.4</ele>
        <time>2024-06-09T12:47:30Z</time>
      </trkpt>
      <trkpt lat="48.23354" lon="6.5509">
        <ele>335.9</ele>
        <time>2024-06-09T12:47:38Z</time>
      </trkpt>
      <trkpt lat="48.23363" lon="6.55084">
        <ele>336.5</ele>
        <time>2024-06-09T12:47:46Z</time>
      </trkpt>
      <trkpt lat="48.23371" lon="6.55076">
        <ele>337.1</ele>
        <time>2024-06-09T12:47:54Z</time>
      </trkpt>
      <trkpt lat="48.2338" lon="6.55069">
        <ele>337.6</ele>
        <time>2024-06-09T12:48:02Z</time>
      </trkpt>
      <trkpt lat="48.23389" lon="6.55062">
        <ele>338.1</ele>
        <time>2024-06-09T12:48:10Z</time>
      </trkpt>
      <trkpt lat="48.23398" lon="6.55056">
        <ele>338.6</ele>
        <time>2024-06-09T12:48:18Z</time>
      </trkpt>
      <trkpt lat="48.23406" lon="6.55051">
        <ele>339.1</ele>
        <time>2024-06-09T12:48:26Z</time>
      </trkpt>
      <trkpt lat="48.23415" lon="6.55044">
        <ele>339.7</ele>
        <time>2024-06-09T12:48:34Z</time>
      </trkpt>
      <trkpt lat="48.23423" lon="6.55038">
        <ele>340.2</ele>
        <time>2024-06-09T12:48:42Z</time>
      </trkpt>
      <trkpt lat="48.23432" lon="6.55031">
        <ele>340.7</ele>
        <time>2024-06-09T12:48:51Z</time>
      </trkpt>
      <trkpt lat="48.23433" lon="6.5503">
        <ele>340.8</ele>
        <time>2024-06-09T12:48:57Z</time>
      </trkpt>
      <trkpt lat="48.23433" lon="6.55029">
        <ele>340.8</ele>
        <time>2024-06-09T12:48:58Z</time>
      </trkpt>
      <trkpt lat="48.23434" lon="6.55028">
        <ele>340.9</ele>
        <time>2024-06-09T12:48:59Z</time>
      </trkpt>
      <trkpt lat="48.23435" lon="6.55028">
        <ele>341</ele>
        <time>2024-06-09T12:49:00Z</time>
      </trkpt>
      <trkpt lat="48.23436" lon="6.55027">
        <ele>341</ele>
        <time>2024-06-09T12:49:01Z</time>
      </trkpt>
      <trkpt lat="48.23445" lon="6.55019">
        <ele>341.6</ele>
        <time>2024-06-09T12:49:11Z</time>
      </trkpt>
      <trkpt lat="48.23441" lon="6.55007">
        <ele>341.8</ele>
        <time>2024-06-09T12:49:19Z</time>
      </trkpt>
      <trkpt lat="48.23434" lon="6.54997">
        <ele>342.1</ele>
        <time>2024-06-09T12:49:26Z</time>
      </trkpt>
      <trkpt lat="48.23428" lon="6.54985">
        <ele>342.3</ele>
        <time>2024-06-09T12:49:34Z</time>
      </trkpt>
      <trkpt lat="48.23425" lon="6.54972">
        <ele>342.6</ele>
        <time>2024-06-09T12:49:42Z</time>
      </trkpt>
      <trkpt lat="48.2342" lon="6.5496">
        <ele>342.7</ele>
        <time>2024-06-09T12:49:50Z</time>
      </trkpt>
      <trkpt lat="48.23415" lon="6.54947">
        <ele>342.9</ele>
        <time>2024-06-09T12:49:58Z</time>
      </trkpt>
      <trkpt lat="48.23411" lon="6.54934">
        <ele>343</ele>
        <time>2024-06-09T12:50:05Z</time>
      </trkpt>
      <trkpt lat="48.23406" lon="6.54922">
        <ele>343.1</ele>
        <time>2024-06-09T12:50:13Z</time>
      </trkpt>
      <trkpt lat="48.23401" lon="6.5491">
        <ele>343.1</ele>
        <time>2024-06-09T12:50:21Z</time>
      </trkpt>
      <trkpt lat="48.23396" lon="6.54898">
        <ele>343</ele>
        <time>2024-06-09T12:50:29Z</time>
      </trkpt>
      <trkpt lat="48.23391" lon="6.54885">
        <ele>342.9</ele>
        <time>2024-06-09T12:50:37Z</time>
      </trkpt>
      <trkpt lat="48.23387" lon="6.54873">
        <ele>342.7</ele>
        <time>2024-06-09T12:50:44Z</time>
      </trkpt>
      <trkpt lat="48.23381" lon="6.54862">
        <ele>342.5</ele>
        <time>2024-06-09T12:50:51Z</time>
      </trkpt>
      <trkpt lat="48.23377" lon="6.5485">
        <ele>342.3</ele>
        <time>2024-06-09T12:50:58Z</time>
      </trkpt>
      <trkpt lat="48.23372" lon="6.54836">
        <ele>342</ele>
        <time>2024-06-09T12:51:06Z</time>
      </trkpt>
      <trkpt lat="48.23366" lon="6.54824">
        <ele>341.7</ele>
        <time>2024-06-09T12:51:14Z</time>
      </trkpt>
      <trkpt lat="48.23361" lon="6.54812">
        <ele>341.4</ele>
        <time>2024-06-09T12:51:22Z</time>
      </trkpt>
      <trkpt lat="48.23356" lon="6.54801">
        <ele>341.1</ele>
        <time>2024-06-09T12:51:30Z</time>
      </trkpt>
      <trkpt lat="48.23356" lon="6.548">
        <ele>341.1</ele>
        <time>2024-06-09T12:51:34Z</time>
      </trkpt>
      <trkpt lat="48.23356" lon="6.548">
        <ele>341.1</ele>
        <time>2024-06-09T12:51:35Z</time>
      </trkpt>
      <trkpt lat="48.23356" lon="6.548">
        <ele>341.1</ele>
        <time>2024-06-09T12:51:36Z</time>
      </trkpt>
      <trkpt lat="48.23356" lon="6.548">
        <ele>341.1</ele>
        <time>2024-06-09T12:51:39Z</time>
      </trkpt>
      <trkpt lat="48.23356" lon="6.548">
        <ele>341.1</ele>
        <time>2024-06-09T12:51:40Z</time>
      </trkpt>
      <trkpt lat="48.23356" lon="6.548">
        <ele>341.1</ele>
        <time>2024-06-09T12:51:41Z</time>
      </trkpt>
      <trkpt lat="48.23356" lon="6.548">
        <ele>341.1</ele>
        <time>2024-06-09T12:51:42Z</time>
      </trkpt>
      <trkpt lat="48.23356" lon="6.548">
        <ele>341.1</ele>
        <time>2024-06-09T12:51:43Z</time>
      </trkpt>
      <trkpt lat="48.23356" lon="6.548">
        <ele>341.1</ele>
        <time>2024-06-09T12:51:46Z</time>
      </trkpt>
      <trkpt lat="48.23356" lon="6.548">
        <ele>341.1</ele>
        <time>2024-06-09T12:51:47Z</time>
      </trkpt>
      <trkpt lat="48.23356" lon="6.54799">
        <ele>341.1</ele>
        <time>2024-06-09T12:51:51Z</time>
      </trkpt>
      <trkpt lat="48.23356" lon="6.54799">
        <ele>341</ele>
        <time>2024-06-09T12:51:52Z</time>
      </trkpt>
      <trkpt lat="48.23355" lon="6.54798">
        <ele>341</ele>
        <time>2024-06-09T12:51:53Z</time>
      </trkpt>
      <trkpt lat="48.23354" lon="6.54797">
        <ele>341</ele>
        <time>2024-06-09T12:51:54Z</time>
      </trkpt>
      <trkpt lat="48.23354" lon="6.54795">
        <ele>340.9</ele>
        <time>2024-06-09T12:51:55Z</time>
      </trkpt>
      <trkpt lat="48.23349" lon="6.54782">
        <ele>340.7</ele>
        <time>2024-06-09T12:52:03Z</time>
      </trkpt>
      <trkpt lat="48.23344" lon="6.5477">
        <ele>340.4</ele>
        <time>2024-06-09T12:52:11Z</time>
      </trkpt>
      <trkpt lat="48.23338" lon="6.54757">
        <ele>340.3</ele>
        <time>2024-06-09T12:52:19Z</time>
      </trkpt>
      <trkpt lat="48.23332" lon="6.54745">
        <ele>340.2</ele>
        <time>2024-06-09T12:52:27Z</time>
      </trkpt>
      <trkpt lat="48.23326" lon="6.54733">
        <ele>340.1</ele>
        <time>2024-06-09T12:52:35Z</time>
      </trkpt>
      <trkpt lat="48.23322" lon="6.54721">
        <ele>340</ele>
        <time>2024-06-09T12:52:42Z</time>
      </trkpt>
      <trkpt lat="48.23316" lon="6.5471">
        <ele>339.8</ele>
        <time>2024-06-09T12:52:49Z</time>
      </trkpt>
      <trkpt lat="48.2331" lon="6.54699">
        <ele>339.7</ele>
        <time>2024-06-09T12:52:56Z</time>
      </trkpt>
      <trkpt lat="48.23304" lon="6.54689">
        <ele>339.7</ele>
        <time>2024-06-09T12:53:03Z</time>
      </trkpt>
      <trkpt lat="48.23298" lon="6.54678">
        <ele>339.6</ele>
        <time>2024-06-09T12:53:11Z</time>
      </trkpt>
      <trkpt lat="48.23291" lon="6.54667">
        <ele>339.6</ele>
        <time>2024-06-09T12:53:18Z</time>
      </trkpt>
      <trkpt lat="48.23284" lon="6.54658">
        <ele>339.6</ele>
        <time>2024-06-09T12:53:25Z</time>
      </trkpt>
      <trkpt lat="48.23277" lon="6.54648">
        <ele>339.6</ele>
        <time>2024-06-09T12:53:33Z</time>
      </trkpt>
      <trkpt lat="48.2327" lon="6.54639">
        <ele>339.5</ele>
        <time>2024-06-09T12:53:40Z</time>
      </trkpt>
      <trkpt lat="48.23263" lon="6.54629">
        <ele>339.5</ele>
        <time>2024-06-09T12:53:47Z</time>
      </trkpt>
      <trkpt lat="48.23257" lon="6.54617">
        <ele>339.5</ele>
        <time>2024-06-09T12:53:54Z</time>
      </trkpt>
      <trkpt lat="48.23251" lon="6.54607">
        <ele>339.5</ele>
        <time>2024-06-09T12:54:01Z</time>
      </trkpt>
      <trkpt lat="48.23246" lon="6.54596">
        <ele>339.5</ele>
        <time>2024-06-09T12:54:08Z</time>
      </trkpt>
      <trkpt lat="48.23241" lon="6.54584">
        <ele>339.5</ele>
        <time>2024-06-09T12:54:16Z</time>
      </trkpt>
      <trkpt lat="48.23236" lon="6.54571">
        <ele>339.5</ele>
        <time>2024-06-09T12:54:25Z</time>
      </trkpt>
      <trkpt lat="48.23232" lon="6.54558">
        <ele>339.5</ele>
        <time>2024-06-09T12:54:34Z</time>
      </trkpt>
      <trkpt lat="48.23228" lon="6.54544">
        <ele>339.6</ele>
        <time>2024-06-09T12:54:42Z</time>
      </trkpt>
      <trkpt lat="48.23224" lon="6.5453">
        <ele>339.6</ele>
        <time>2024-06-09T12:54:50Z</time>
      </trkpt>
      <trkpt lat="48.2322" lon="6.54517">
        <ele>339.8</ele>
        <time>2024-06-09T12:54:58Z</time>
      </trkpt>
      <trkpt lat="48.23216" lon="6.54504">
        <ele>339.9</ele>
        <time>2024-06-09T12:55:06Z</time>
      </trkpt>
      <trkpt lat="48.23212" lon="6.54491">
        <ele>340</ele>
        <time>2024-06-09T12:55:14Z</time>
      </trkpt>
      <trkpt lat="48.23207" lon="6.54478">
        <ele>340.2</ele>
        <time>2024-06-09T12:55:22Z</time>
      </trkpt>
      <trkpt lat="48.23201" lon="6.54466">
        <ele>340.4</ele>
        <time>2024-06-09T12:55:30Z</time>
      </trkpt>
      <trkpt lat="48.23194" lon="6.54455">
        <ele>340.5</ele>
        <time>2024-06-09T12:55:38Z</time>
      </trkpt>
      <trkpt lat="48.23188" lon="6.54445">
        <ele>340.7</ele>
        <time>2024-06-09T12:55:48Z</time>
      </trkpt>
      <trkpt lat="48.23181" lon="6.54435">
        <ele>340.8</ele>
        <time>2024-06-09T12:55:55Z</time>
      </trkpt>
      <trkpt lat="48.23173" lon="6.54424">
        <ele>340.9</ele>
        <time>2024-06-09T12:56:02Z</time>
      </trkpt>
      <trkpt lat="48.23166" lon="6.54415">
        <ele>340.9</ele>
        <time>2024-06-09T12:56:09Z</time>
      </trkpt>
      <trkpt lat="48.23158" lon="6.54406">
        <ele>340.9</ele>
        <time>2024-06-09T12:56:16Z</time>
      </trkpt>
      <trkpt lat="48.2315" lon="6.54399">
        <ele>340.8</ele>
        <time>2024-06-09T12:56:23Z</time>
      </trkpt>
      <trkpt lat="48.23143" lon="6.54389">
        <ele>340.8</ele>
        <time>2024-06-09T12:56:30Z</time>
      </trkpt>
      <trkpt lat="48.23135" lon="6.5438">
        <ele>340.8</ele>
        <time>2024-06-09T12:56:37Z</time>
      </trkpt>
      <trkpt lat="48.23127" lon="6.54372">
        <ele>340.7</ele>
        <time>2024-06-09T12:56:44Z</time>
      </trkpt>
      <trkpt lat="48.2312" lon="6.54364">
        <ele>340.6</ele>
        <time>2024-06-09T12:56:51Z</time>
      </trkpt>
      <trkpt lat="48.23112" lon="6.54354">
        <ele>340.6</ele>
        <time>2024-06-09T12:56:59Z</time>
      </trkpt>
      <trkpt lat="48.23104" lon="6.54345">
        <ele>340.5</ele>
        <time>2024-06-09T12:57:07Z</time>
      </trkpt>
      <trkpt lat="48.23097" lon="6.54336">
        <ele>340.3</ele>
        <time>2024-06-09T12:57:14Z</time>
      </trkpt>
      <trkpt lat="48.2309" lon="6.54327">
        <ele>340.1</ele>
        <time>2024-06-09T12:57:21Z</time>
      </trkpt>
      <trkpt lat="48.23081" lon="6.54319">
        <ele>339.8</ele>
        <time>2024-06-09T12:57:29Z</time>
      </trkpt>
      <trkpt lat="48.23074" lon="6.54311">
        <ele>339.5</ele>
        <time>2024-06-09T12:57:36Z</time>
      </trkpt>
      <trkpt lat="48.23066" lon="6.54301">
        <ele>339.2</ele>
        <time>2024-06-09T12:57:44Z</time>
      </trkpt>
      <trkpt lat="48.23058" lon="6.54292">
        <ele>338.9</ele>
        <time>2024-06-09T12:57:51Z</time>
      </trkpt>
      <trkpt lat="48.23051" lon="6.54283">
        <ele>338.7</ele>
        <time>2024-06-09T12:57:58Z</time>
      </trkpt>
      <trkpt lat="48.23043" lon="6.54275">
        <ele>338.5</ele>
        <time>2024-06-09T12:58:05Z</time>
      </trkpt>
      <trkpt lat="48.23036" lon="6.54266">
        <ele>338.4</ele>
        <time>2024-06-09T12:58:12Z</time>
      </trkpt>
      <trkpt lat="48.23027" lon="6.54259">
        <ele>338.3</ele>
        <time>2024-06-09T12:58:19Z</time>
      </trkpt>
      <trkpt lat="48.23018" lon="6.54266">
        <ele>338.1</ele>
        <time>2024-06-09T12:58:27Z</time>
      </trkpt>
      <trkpt lat="48.2301" lon="6.5427">
        <ele>338.1</ele>
        <time>2024-06-09T12:58:34Z</time>
      </trkpt>
      <trkpt lat="48.23" lon="6.54272">
        <ele>338.1</ele>
        <time>2024-06-09T12:58:41Z</time>
      </trkpt>
      <trkpt lat="48.22991" lon="6.54275">
        <ele>338.1</ele>
        <time>2024-06-09T12:58:48Z</time>
      </trkpt>
      <trkpt lat="48.22982" lon="6.54278">
        <ele>338.1</ele>
        <time>2024-06-09T12:58:55Z</time>
      </trkpt>
      <trkpt lat="48.22974" lon="6.54284">
        <ele>338.1</ele>
        <time>2024-06-09T12:59:02Z</time>
      </trkpt>
      <trkpt lat="48.22964" lon="6.54285">
        <ele>338.1</ele>
        <time>2024-06-09T12:59:10Z</time>
      </trkpt>
      <trkpt lat="48.22955" lon="6.54283">
        <ele>338.1</ele>
        <time>2024-06-09T12:59:15Z</time>
      </trkpt>
      <trkpt lat="48.22946" lon="6.54289">
        <ele>338.1</ele>
        <time>2024-06-09T12:59:22Z</time>
      </trkpt>
      <trkpt lat="48.22938" lon="6.543">
        <ele>338.2</ele>
        <time>2024-06-09T12:59:30Z</time>
      </trkpt>
      <trkpt lat="48.22929" lon="6.54305">
        <ele>338.2</ele>
        <time>2024-06-09T12:59:38Z</time>
      </trkpt>
      <trkpt lat="48.2292" lon="6.54308">
        <ele>338.3</ele>
        <time>2024-06-09T12:59:44Z</time>
      </trkpt>
      <trkpt lat="48.2291" lon="6.54311">
        <ele>338.4</ele>
        <time>2024-06-09T12:59:52Z</time>
      </trkpt>
      <trkpt lat="48.229" lon="6.54316">
        <ele>338.6</ele>
        <time>2024-06-09T13:00:00Z</time>
      </trkpt>
      <trkpt lat="48.22892" lon="6.54322">
        <ele>338.7</ele>
        <time>2024-06-09T13:00:07Z</time>
      </trkpt>
      <trkpt lat="48.22883" lon="6.54324">
        <ele>338.9</ele>
        <time>2024-06-09T13:00:14Z</time>
      </trkpt>
      <trkpt lat="48.22873" lon="6.5432">
        <ele>339.1</ele>
        <time>2024-06-09T13:00:22Z</time>
      </trkpt>
      <trkpt lat="48.22865" lon="6.54313">
        <ele>339.3</ele>
        <time>2024-06-09T13:00:29Z</time>
      </trkpt>
      <trkpt lat="48.22858" lon="6.54303">
        <ele>339.5</ele>
        <time>2024-06-09T13:00:36Z</time>
      </trkpt>
      <trkpt lat="48.2285" lon="6.54296">
        <ele>339.7</ele>
        <time>2024-06-09T13:00:42Z</time>
      </trkpt>
      <trkpt lat="48.22842" lon="6.54288">
        <ele>340</ele>
        <time>2024-06-09T13:00:49Z</time>
      </trkpt>
      <trkpt lat="48.22835" lon="6.54283">
        <ele>340.2</ele>
        <time>2024-06-09T13:01:01Z</time>
      </trkpt>
      <trkpt lat="48.22835" lon="6.54283">
        <ele>340.2</ele>
        <time>2024-06-09T13:01:02Z</time>
      </trkpt>
      <trkpt lat="48.22835" lon="6.54284">
        <ele>340.2</ele>
        <time>2024-06-09T13:01:03Z</time>
      </trkpt>
      <trkpt lat="48.22837" lon="6.54284">
        <ele>340.3</ele>
        <time>2024-06-09T13:01:06Z</time>
      </trkpt>
      <trkpt lat="48.22837" lon="6.54284">
        <ele>340.3</ele>
        <time>2024-06-09T13:01:07Z</time>
      </trkpt>
      <trkpt lat="48.22837" lon="6.54284">
        <ele>340.3</ele>
        <time>2024-06-09T13:01:11Z</time>
      </trkpt>
      <trkpt lat="48.22837" lon="6.54284">
        <ele>340.3</ele>
        <time>2024-06-09T13:01:12Z</time>
      </trkpt>
      <trkpt lat="48.22837" lon="6.54284">
        <ele>340.3</ele>
        <time>2024-06-09T13:01:13Z</time>
      </trkpt>
      <trkpt lat="48.22838" lon="6.54284">
        <ele>340.3</ele>
        <time>2024-06-09T13:01:16Z</time>
      </trkpt>
      <trkpt lat="48.22838" lon="6.54284">
        <ele>340.3</ele>
        <time>2024-06-09T13:01:17Z</time>
      </trkpt>
      <trkpt lat="48.22838" lon="6.54284">
        <ele>340.3</ele>
        <time>2024-06-09T13:01:18Z</time>
      </trkpt>
      <trkpt lat="48.22838" lon="6.54284">
        <ele>340.3</ele>
        <time>2024-06-09T13:01:19Z</time>
      </trkpt>
      <trkpt lat="48.22838" lon="6.54284">
        <ele>340.3</ele>
        <time>2024-06-09T13:01:20Z</time>
      </trkpt>
      <trkpt lat="48.22838" lon="6.54284">
        <ele>340.3</ele>
        <time>2024-06-09T13:01:33Z</time>
      </trkpt>
      <trkpt lat="48.22837" lon="6.54285">
        <ele>340.3</ele>
        <time>2024-06-09T13:01:34Z</time>
      </trkpt>
      <trkpt lat="48.22837" lon="6.54285">
        <ele>340.4</ele>
        <time>2024-06-09T13:01:35Z</time>
      </trkpt>
      <trkpt lat="48.22836" lon="6.54284">
        <ele>340.4</ele>
        <time>2024-06-09T13:01:43Z</time>
      </trkpt>
      <trkpt lat="48.22836" lon="6.54284">
        <ele>340.4</ele>
        <time>2024-06-09T13:01:44Z</time>
      </trkpt>
      <trkpt lat="48.22836" lon="6.54284">
        <ele>340.4</ele>
        <time>2024-06-09T13:01:45Z</time>
      </trkpt>
      <trkpt lat="48.22835" lon="6.54283">
        <ele>340.4</ele>
        <time>2024-06-09T13:01:48Z</time>
      </trkpt>
      <trkpt lat="48.22834" lon="6.54282">
        <ele>340.5</ele>
        <time>2024-06-09T13:01:49Z</time>
      </trkpt>
      <trkpt lat="48.22833" lon="6.54281">
        <ele>340.5</ele>
        <time>2024-06-09T13:01:50Z</time>
      </trkpt>
      <trkpt lat="48.22826" lon="6.54272">
        <ele>340.8</ele>
        <time>2024-06-09T13:01:57Z</time>
      </trkpt>
      <trkpt lat="48.22818" lon="6.54262">
        <ele>341.1</ele>
        <time>2024-06-09T13:02:04Z</time>
      </trkpt>
      <trkpt lat="48.22811" lon="6.54253">
        <ele>341.3</ele>
        <time>2024-06-09T13:02:13Z</time>
      </trkpt>
      <trkpt lat="48.22803" lon="6.54243">
        <ele>341.6</ele>
        <time>2024-06-09T13:02:21Z</time>
      </trkpt>
      <trkpt lat="48.22793" lon="6.54238">
        <ele>341.9</ele>
        <time>2024-06-09T13:02:27Z</time>
      </trkpt>
      <trkpt lat="48.22784" lon="6.5423">
        <ele>342.2</ele>
        <time>2024-06-09T13:02:34Z</time>
      </trkpt>
      <trkpt lat="48.22776" lon="6.54219">
        <ele>342.5</ele>
        <time>2024-06-09T13:02:40Z</time>
      </trkpt>
      <trkpt lat="48.22767" lon="6.54215">
        <ele>342.7</ele>
        <time>2024-06-09T13:02:47Z</time>
      </trkpt>
      <trkpt lat="48.22758" lon="6.54207">
        <ele>343</ele>
        <time>2024-06-09T13:02:54Z</time>
      </trkpt>
      <trkpt lat="48.22749" lon="6.54203">
        <ele>343.3</ele>
        <time>2024-06-09T13:03:01Z</time>
      </trkpt>
      <trkpt lat="48.22739" lon="6.54198">
        <ele>343.6</ele>
        <time>2024-06-09T13:03:08Z</time>
      </trkpt>
      <trkpt lat="48.2273" lon="6.54191">
        <ele>344</ele>
        <time>2024-06-09T13:03:15Z</time>
      </trkpt>
      <trkpt lat="48.22721" lon="6.54183">
        <ele>344.4</ele>
        <time>2024-06-09T13:03:22Z</time>
      </trkpt>
      <trkpt lat="48.22711" lon="6.54177">
        <ele>344.8</ele>
        <time>2024-06-09T13:03:29Z</time>
      </trkpt>
      <trkpt lat="48.22703" lon="6.5417">
        <ele>345.1</ele>
        <time>2024-06-09T13:03:36Z</time>
      </trkpt>
      <trkpt lat="48.22694" lon="6.54165">
        <ele>345.5</ele>
        <time>2024-06-09T13:03:43Z</time>
      </trkpt>
      <trkpt lat="48.22684" lon="6.5416">
        <ele>345.9</ele>
        <time>2024-06-09T13:03:51Z</time>
      </trkpt>
      <trkpt lat="48.22676" lon="6.54153">
        <ele>346.2</ele>
        <time>2024-06-09T13:03:58Z</time>
      </trkpt>
      <trkpt lat="48.22668" lon="6.54146">
        <ele>346.5</ele>
        <time>2024-06-09T13:04:05Z</time>
      </trkpt>
      <trkpt lat="48.22658" lon="6.54142">
        <ele>346.8</ele>
        <time>2024-06-09T13:04:12Z</time>
      </trkpt>
      <trkpt lat="48.2265" lon="6.54136">
        <ele>347.1</ele>
        <time>2024-06-09T13:04:19Z</time>
      </trkpt>
      <trkpt lat="48.2264" lon="6.54131">
        <ele>347.4</ele>
        <time>2024-06-09T13:04:27Z</time>
      </trkpt>
      <trkpt lat="48.22632" lon="6.54125">
        <ele>347.6</ele>
        <time>2024-06-09T13:04:34Z</time>
      </trkpt>
      <trkpt lat="48.22624" lon="6.54119">
        <ele>347.9</ele>
        <time>2024-06-09T13:04:41Z</time>
      </trkpt>
      <trkpt lat="48.22615" lon="6.54113">
        <ele>348.1</ele>
        <time>2024-06-09T13:04:48Z</time>
      </trkpt>
      <trkpt lat="48.22606" lon="6.54108">
        <ele>348.4</ele>
        <time>2024-06-09T13:04:56Z</time>
      </trkpt>
      <trkpt lat="48.22597" lon="6.54105">
        <ele>348.6</ele>
        <time>2024-06-09T13:05:06Z</time>
      </trkpt>
      <trkpt lat="48.22588" lon="6.54099">
        <ele>348.8</ele>
        <time>2024-06-09T13:05:13Z</time>
      </trkpt>
      <trkpt lat="48.22578" lon="6.54094">
        <ele>349.1</ele>
        <time>2024-06-09T13:05:20Z</time>
      </trkpt>
      <trkpt lat="48.2257" lon="6.54088">
        <ele>349.3</ele>
        <time>2024-06-09T13:05:27Z</time>
      </trkpt>
      <trkpt lat="48.22561" lon="6.54083">
        <ele>349.5</ele>
        <time>2024-06-09T13:05:36Z</time>
      </trkpt>
      <trkpt lat="48.22551" lon="6.54076">
        <ele>349.8</ele>
        <time>2024-06-09T13:05:43Z</time>
      </trkpt>
      <trkpt lat="48.22542" lon="6.54069">
        <ele>350</ele>
        <time>2024-06-09T13:05:50Z</time>
      </trkpt>
      <trkpt lat="48.22533" lon="6.54063">
        <ele>350.3</ele>
        <time>2024-06-09T13:05:57Z</time>
      </trkpt>
      <trkpt lat="48.22524" lon="6.54057">
        <ele>350.4</ele>
        <time>2024-06-09T13:06:04Z</time>
      </trkpt>
      <trkpt lat="48.22516" lon="6.54051">
        <ele>350.6</ele>
        <time>2024-06-09T13:06:11Z</time>
      </trkpt>
      <trkpt lat="48.22507" lon="6.54045">
        <ele>350.7</ele>
        <time>2024-06-09T13:06:18Z</time>
      </trkpt>
      <trkpt lat="48.22497" lon="6.5404">
        <ele>350.9</ele>
        <time>2024-06-09T13:06:26Z</time>
      </trkpt>
      <trkpt lat="48.22488" lon="6.54034">
        <ele>351</ele>
        <time>2024-06-09T13:06:34Z</time>
      </trkpt>
      <trkpt lat="48.22479" lon="6.54031">
        <ele>351</ele>
        <time>2024-06-09T13:06:41Z</time>
      </trkpt>
      <trkpt lat="48.22469" lon="6.54031">
        <ele>351.2</ele>
        <time>2024-06-09T13:06:49Z</time>
      </trkpt>
      <trkpt lat="48.2246" lon="6.54036">
        <ele>351.3</ele>
        <time>2024-06-09T13:06:57Z</time>
      </trkpt>
      <trkpt lat="48.22458" lon="6.54037">
        <ele>351.3</ele>
        <time>2024-06-09T13:07:03Z</time>
      </trkpt>
      <trkpt lat="48.22458" lon="6.54037">
        <ele>351.3</ele>
        <time>2024-06-09T13:07:04Z</time>
      </trkpt>
      <trkpt lat="48.22458" lon="6.54037">
        <ele>351.3</ele>
        <time>2024-06-09T13:07:05Z</time>
      </trkpt>
      <trkpt lat="48.22458" lon="6.54037">
        <ele>351.3</ele>
        <time>2024-06-09T13:07:06Z</time>
      </trkpt>
      <trkpt lat="48.22457" lon="6.54037">
        <ele>351.3</ele>
        <time>2024-06-09T13:07:07Z</time>
      </trkpt>
      <trkpt lat="48.22457" lon="6.54037">
        <ele>351.3</ele>
        <time>2024-06-09T13:07:08Z</time>
      </trkpt>
      <trkpt lat="48.22458" lon="6.54036">
        <ele>351.4</ele>
        <time>2024-06-09T13:07:14Z</time>
      </trkpt>
      <trkpt lat="48.22458" lon="6.54036">
        <ele>351.4</ele>
        <time>2024-06-09T13:07:15Z</time>
      </trkpt>
      <trkpt lat="48.22459" lon="6.54036">
        <ele>351.4</ele>
        <time>2024-06-09T13:07:18Z</time>
      </trkpt>
      <trkpt lat="48.2246" lon="6.54035">
        <ele>351.4</ele>
        <time>2024-06-09T13:07:19Z</time>
      </trkpt>
      <trkpt lat="48.2246" lon="6.54033">
        <ele>351.4</ele>
        <time>2024-06-09T13:07:20Z</time>
      </trkpt>
      <trkpt lat="48.22457" lon="6.5402">
        <ele>351.6</ele>
        <time>2024-06-09T13:07:28Z</time>
      </trkpt>
      <trkpt lat="48.22448" lon="6.54014">
        <ele>351.8</ele>
        <time>2024-06-09T13:07:35Z</time>
      </trkpt>
      <trkpt lat="48.2244" lon="6.54008">
        <ele>352</ele>
        <time>2024-06-09T13:07:42Z</time>
      </trkpt>
      <trkpt lat="48.22431" lon="6.54002">
        <ele>352.1</ele>
        <time>2024-06-09T13:07:50Z</time>
      </trkpt>
      <trkpt lat="48.22422" lon="6.53996">
        <ele>352.3</ele>
        <time>2024-06-09T13:07:57Z</time>
      </trkpt>
      <trkpt lat="48.22414" lon="6.53989">
        <ele>352.4</ele>
        <time>2024-06-09T13:08:04Z</time>
      </trkpt>
      <trkpt lat="48.22405" lon="6.53984">
        <ele>352.5</ele>
        <time>2024-06-09T13:08:11Z</time>
      </trkpt>
      <trkpt lat="48.22396" lon="6.53976">
        <ele>352.6</ele>
        <time>2024-06-09T13:08:18Z</time>
      </trkpt>
      <trkpt lat="48.22387" lon="6.53968">
        <ele>352.7</ele>
        <time>2024-06-09T13:08:25Z</time>
      </trkpt>
      <trkpt lat="48.22379" lon="6.53963">
        <ele>352.9</ele>
        <time>2024-06-09T13:08:32Z</time>
      </trkpt>
      <trkpt lat="48.2237" lon="6.53956">
        <ele>353</ele>
        <time>2024-06-09T13:08:39Z</time>
      </trkpt>
      <trkpt lat="48.22362" lon="6.5395">
        <ele>353</ele>
        <time>2024-06-09T13:08:46Z</time>
      </trkpt>
      <trkpt lat="48.22353" lon="6.53945">
        <ele>353.1</ele>
        <time>2024-06-09T13:08:53Z</time>
      </trkpt>
      <trkpt lat="48.22344" lon="6.5394">
        <ele>353.3</ele>
        <time>2024-06-09T13:09:00Z</time>
      </trkpt>
      <trkpt lat="48.22335" lon="6.53935">
        <ele>353.4</ele>
        <time>2024-06-09T13:09:07Z</time>
      </trkpt>
      <trkpt lat="48.22327" lon="6.5393">
        <ele>353.5</ele>
        <time>2024-06-09T13:09:15Z</time>
      </trkpt>
      <trkpt lat="48.22319" lon="6.53924">
        <ele>353.6</ele>
        <time>2024-06-09T13:09:23Z</time>
      </trkpt>
      <trkpt lat="48.2231" lon="6.53917">
        <ele>353.7</ele>
        <time>2024-06-09T13:09:30Z</time>
      </trkpt>
      <trkpt lat="48.22302" lon="6.5391">
        <ele>353.8</ele>
        <time>2024-06-09T13:09:36Z</time>
      </trkpt>
      <trkpt lat="48.22292" lon="6.53905">
        <ele>353.9</ele>
        <time>2024-06-09T13:09:44Z</time>
      </trkpt>
      <trkpt lat="48.22283" lon="6.53901">
        <ele>354.1</ele>
        <time>2024-06-09T13:09:51Z</time>
      </trkpt>
      <trkpt lat="48.22273" lon="6.53897">
        <ele>354.2</ele>
        <time>2024-06-09T13:09:59Z</time>
      </trkpt>
      <trkpt lat="48.22265" lon="6.5389">
        <ele>354.4</ele>
        <time>2024-06-09T13:10:06Z</time>
      </trkpt>
      <trkpt lat="48.22256" lon="6.53883">
        <ele>354.5</ele>
        <time>2024-06-09T13:10:14Z</time>
      </trkpt>
      <trkpt lat="48.22247" lon="6.53877">
        <ele>354.7</ele>
        <time>2024-06-09T13:10:21Z</time>
      </trkpt>
      <trkpt lat="48.22238" lon="6.53871">
        <ele>355</ele>
        <time>2024-06-09T13:10:28Z</time>
      </trkpt>
      <trkpt lat="48.2223" lon="6.53865">
        <ele>355.2</ele>
        <time>2024-06-09T13:10:34Z</time>
      </trkpt>
      <trkpt lat="48.2222" lon="6.5386">
        <ele>355.5</ele>
        <time>2024-06-09T13:10:43Z</time>
      </trkpt>
      <trkpt lat="48.22212" lon="6.53852">
        <ele>355.9</ele>
        <time>2024-06-09T13:10:51Z</time>
      </trkpt>
      <trkpt lat="48.22203" lon="6.53845">
        <ele>356.2</ele>
        <time>2024-06-09T13:10:58Z</time>
      </trkpt>
      <trkpt lat="48.22194" lon="6.53839">
        <ele>356.6</ele>
        <time>2024-06-09T13:11:05Z</time>
      </trkpt>
      <trkpt lat="48.22187" lon="6.53832">
        <ele>357</ele>
        <time>2024-06-09T13:11:11Z</time>
      </trkpt>
      <trkpt lat="48.22178" lon="6.53826">
        <ele>357.4</ele>
        <time>2024-06-09T13:11:20Z</time>
      </trkpt>
      <trkpt lat="48.22169" lon="6.53822">
        <ele>357.8</ele>
        <time>2024-06-09T13:11:26Z</time>
      </trkpt>
      <trkpt lat="48.22161" lon="6.53816">
        <ele>358.2</ele>
        <time>2024-06-09T13:11:33Z</time>
      </trkpt>
      <trkpt lat="48.22152" lon="6.53812">
        <ele>358.7</ele>
        <time>2024-06-09T13:11:41Z</time>
      </trkpt>
      <trkpt lat="48.22144" lon="6.53805">
        <ele>359.2</ele>
        <time>2024-06-09T13:11:49Z</time>
      </trkpt>
      <trkpt lat="48.22135" lon="6.53799">
        <ele>359.6</ele>
        <time>2024-06-09T13:11:56Z</time>
      </trkpt>
      <trkpt lat="48.22127" lon="6.53794">
        <ele>360.1</ele>
        <time>2024-06-09T13:12:05Z</time>
      </trkpt>
      <trkpt lat="48.22118" lon="6.53787">
        <ele>360.6</ele>
        <time>2024-06-09T13:12:13Z</time>
      </trkpt>
      <trkpt lat="48.2211" lon="6.5378">
        <ele>361.1</ele>
        <time>2024-06-09T13:12:21Z</time>
      </trkpt>
      <trkpt lat="48.22101" lon="6.53774">
        <ele>361.6</ele>
        <time>2024-06-09T13:12:29Z</time>
      </trkpt>
      <trkpt lat="48.22096" lon="6.53773">
        <ele>361.9</ele>
        <time>2024-06-09T13:12:38Z</time>
      </trkpt>
      <trkpt lat="48.22096" lon="6.53773">
        <ele>361.9</ele>
        <time>2024-06-09T13:12:39Z</time>
      </trkpt>
      <trkpt lat="48.22096" lon="6.53773">
        <ele>361.9</ele>
        <time>2024-06-09T13:12:40Z</time>
      </trkpt>
      <trkpt lat="48.22096" lon="6.53774">
        <ele>361.9</ele>
        <time>2024-06-09T13:12:51Z</time>
      </trkpt>
      <trkpt lat="48.22096" lon="6.53775">
        <ele>361.9</ele>
        <time>2024-06-09T13:12:52Z</time>
      </trkpt>
      <trkpt lat="48.22096" lon="6.53775">
        <ele>361.9</ele>
        <time>2024-06-09T13:12:53Z</time>
      </trkpt>
      <trkpt lat="48.22096" lon="6.53775">
        <ele>361.9</ele>
        <time>2024-06-09T13:12:54Z</time>
      </trkpt>
      <trkpt lat="48.22096" lon="6.53775">
        <ele>361.9</ele>
        <time>2024-06-09T13:12:55Z</time>
      </trkpt>
      <trkpt lat="48.22095" lon="6.53776">
        <ele>362</ele>
        <time>2024-06-09T13:14:23Z</time>
      </trkpt>
      <trkpt lat="48.22095" lon="6.53776">
        <ele>362</ele>
        <time>2024-06-09T13:14:24Z</time>
      </trkpt>
      <trkpt lat="48.22094" lon="6.53776">
        <ele>362.1</ele>
        <time>2024-06-09T13:14:25Z</time>
      </trkpt>
      <trkpt lat="48.22084" lon="6.53771">
        <ele>362.6</ele>
        <time>2024-06-09T13:14:33Z</time>
      </trkpt>
      <trkpt lat="48.22076" lon="6.53763">
        <ele>363</ele>
        <time>2024-06-09T13:14:41Z</time>
      </trkpt>
      <trkpt lat="48.22067" lon="6.5376">
        <ele>363.4</ele>
        <time>2024-06-09T13:14:50Z</time>
      </trkpt>
      <trkpt lat="48.22059" lon="6.53753">
        <ele>363.6</ele>
        <time>2024-06-09T13:14:58Z</time>
      </trkpt>
      <trkpt lat="48.22053" lon="6.53742">
        <ele>363.9</ele>
        <time>2024-06-09T13:15:06Z</time>
      </trkpt>
      <trkpt lat="48.22047" lon="6.5373">
        <ele>364</ele>
        <time>2024-06-09T13:15:14Z</time>
      </trkpt>
      <trkpt lat="48.2204" lon="6.5372">
        <ele>364.1</ele>
        <time>2024-06-09T13:15:22Z</time>
      </trkpt>
      <trkpt lat="48.22034" lon="6.5371">
        <ele>364.2</ele>
        <time>2024-06-09T13:15:30Z</time>
      </trkpt>
      <trkpt lat="48.22028" lon="6.53698">
        <ele>364.3</ele>
        <time>2024-06-09T13:15:38Z</time>
      </trkpt>
      <trkpt lat="48.22022" lon="6.53687">
        <ele>364.3</ele>
        <time>2024-06-09T13:15:46Z</time>
      </trkpt>
      <trkpt lat="48.22017" lon="6.53675">
        <ele>364.3</ele>
        <time>2024-06-09T13:15:55Z</time>
      </trkpt>
      <trkpt lat="48.2201" lon="6.53664">
        <ele>364.2</ele>
        <time>2024-06-09T13:16:03Z</time>
      </trkpt>
      <trkpt lat="48.22004" lon="6.53653">
        <ele>364.2</ele>
        <time>2024-06-09T13:16:11Z</time>
      </trkpt>
      <trkpt lat="48.21998" lon="6.53641">
        <ele>364.1</ele>
        <time>2024-06-09T13:16:20Z</time>
      </trkpt>
      <trkpt lat="48.21992" lon="6.53629">
        <ele>364</ele>
        <time>2024-06-09T13:16:29Z</time>
      </trkpt>
      <trkpt lat="48.21986" lon="6.53617">
        <ele>364</ele>
        <time>2024-06-09T13:16:38Z</time>
      </trkpt>
      <trkpt lat="48.21979" lon="6.53607">
        <ele>363.9</ele>
        <time>2024-06-09T13:16:47Z</time>
      </trkpt>
      <trkpt lat="48.21973" lon="6.53594">
        <ele>363.9</ele>
        <time>2024-06-09T13:16:56Z</time>
      </trkpt>
      <trkpt lat="48.21967" lon="6.53582">
        <ele>363.9</ele>
        <time>2024-06-09T13:17:05Z</time>
      </trkpt>
      <trkpt lat="48.21961" lon="6.53573">
        <ele>363.8</ele>
        <time>2024-06-09T13:17:13Z</time>
      </trkpt>
      <trkpt lat="48.21956" lon="6.5356">
        <ele>363.8</ele>
        <time>2024-06-09T13:17:22Z</time>
      </trkpt>
      <trkpt lat="48.2195" lon="6.53549">
        <ele>363.8</ele>
        <time>2024-06-09T13:17:31Z</time>
      </trkpt>
      <trkpt lat="48.21944" lon="6.53536">
        <ele>363.8</ele>
        <time>2024-06-09T13:17:40Z</time>
      </trkpt>
      <trkpt lat="48.21937" lon="6.53526">
        <ele>363.8</ele>
        <time>2024-06-09T13:17:48Z</time>
      </trkpt>
      <trkpt lat="48.21931" lon="6.53515">
        <ele>363.8</ele>
        <time>2024-06-09T13:17:56Z</time>
      </trkpt>
      <trkpt lat="48.21926" lon="6.53503">
        <ele>363.9</ele>
        <time>2024-06-09T13:18:05Z</time>
      </trkpt>
      <trkpt lat="48.2192" lon="6.53492">
        <ele>363.9</ele>
        <time>2024-06-09T13:18:14Z</time>
      </trkpt>
      <trkpt lat="48.21915" lon="6.53481">
        <ele>363.9</ele>
        <time>2024-06-09T13:18:22Z</time>
      </trkpt>
      <trkpt lat="48.2191" lon="6.53468">
        <ele>363.9</ele>
        <time>2024-06-09T13:18:30Z</time>
      </trkpt>
      <trkpt lat="48.21903" lon="6.53457">
        <ele>363.9</ele>
        <time>2024-06-09T13:18:38Z</time>
      </trkpt>
      <trkpt lat="48.21898" lon="6.53446">
        <ele>364</ele>
        <time>2024-06-09T13:18:46Z</time>
      </trkpt>
      <trkpt lat="48.21892" lon="6.53435">
        <ele>364.1</ele>
        <time>2024-06-09T13:18:54Z</time>
      </trkpt>
      <trkpt lat="48.21886" lon="6.53423">
        <ele>364.1</ele>
        <time>2024-06-09T13:19:02Z</time>
      </trkpt>
      <trkpt lat="48.2188" lon="6.53413">
        <ele>364.2</ele>
        <time>2024-06-09T13:19:10Z</time>
      </trkpt>
      <trkpt lat="48.21874" lon="6.53402">
        <ele>364.3</ele>
        <time>2024-06-09T13:19:18Z</time>
      </trkpt>
      <trkpt lat="48.21868" lon="6.5339">
        <ele>364.5</ele>
        <time>2024-06-09T13:19:27Z</time>
      </trkpt>
      <trkpt lat="48.21862" lon="6.53379">
        <ele>364.6</ele>
        <time>2024-06-09T13:19:36Z</time>
      </trkpt>
      <trkpt lat="48.21857" lon="6.53367">
        <ele>364.8</ele>
        <time>2024-06-09T13:19:45Z</time>
      </trkpt>
      <trkpt lat="48.21851" lon="6.53356">
        <ele>364.9</ele>
        <time>2024-06-09T13:19:55Z</time>
      </trkpt>
      <trkpt lat="48.21846" lon="6.53347">
        <ele>365</ele>
        <time>2024-06-09T13:20:08Z</time>
      </trkpt>
      <trkpt lat="48.21846" lon="6.53347">
        <ele>365</ele>
        <time>2024-06-09T13:20:09Z</time>
      </trkpt>
      <trkpt lat="48.21846" lon="6.53347">
        <ele>365</ele>
        <time>2024-06-09T13:20:10Z</time>
      </trkpt>
      <trkpt lat="48.21845" lon="6.53345">
        <ele>365</ele>
        <time>2024-06-09T13:20:19Z</time>
      </trkpt>
      <trkpt lat="48.21844" lon="6.53343">
        <ele>365.1</ele>
        <time>2024-06-09T13:20:20Z</time>
      </trkpt>
      <trkpt lat="48.21844" lon="6.53342">
        <ele>365.1</ele>
        <time>2024-06-09T13:20:21Z</time>
      </trkpt>
      <trkpt lat="48.21838" lon="6.5333">
        <ele>365.2</ele>
        <time>2024-06-09T13:20:31Z</time>
      </trkpt>
      <trkpt lat="48.21832" lon="6.53319">
        <ele>365.3</ele>
        <time>2024-06-09T13:20:41Z</time>
      </trkpt>
      <trkpt lat="48.21826" lon="6.53307">
        <ele>365.4</ele>
        <time>2024-06-09T13:20:50Z</time>
      </trkpt>
      <trkpt lat="48.21821" lon="6.53296">
        <ele>365.5</ele>
        <time>2024-06-09T13:21:00Z</time>
      </trkpt>
      <trkpt lat="48.21818" lon="6.53282">
        <ele>365.5</ele>
        <time>2024-06-09T13:21:11Z</time>
      </trkpt>
      <trkpt lat="48.21813" lon="6.5327">
        <ele>365.6</ele>
        <time>2024-06-09T13:21:21Z</time>
      </trkpt>
      <trkpt lat="48.2181" lon="6.53257">
        <ele>365.7</ele>
        <time>2024-06-09T13:21:30Z</time>
      </trkpt>
      <trkpt lat="48.21809" lon="6.53243">
        <ele>365.8</ele>
        <time>2024-06-09T13:21:40Z</time>
      </trkpt>
      <trkpt lat="48.21807" lon="6.5323">
        <ele>365.9</ele>
        <time>2024-06-09T13:21:50Z</time>
      </trkpt>
      <trkpt lat="48.21805" lon="6.53215">
        <ele>366</ele>
        <time>2024-06-09T13:22:01Z</time>
      </trkpt>
      <trkpt lat="48.21803" lon="6.53201">
        <ele>366.2</ele>
        <time>2024-06-09T13:22:12Z</time>
      </trkpt>
      <trkpt lat="48.21802" lon="6.53187">
        <ele>366.4</ele>
        <time>2024-06-09T13:22:21Z</time>
      </trkpt>
      <trkpt lat="48.21801" lon="6.53177">
        <ele>366.6</ele>
        <time>2024-06-09T13:22:31Z</time>
      </trkpt>
      <trkpt lat="48.21801" lon="6.53177">
        <ele>366.6</ele>
        <time>2024-06-09T13:22:32Z</time>
      </trkpt>
      <trkpt lat="48.21801" lon="6.53177">
        <ele>366.6</ele>
        <time>2024-06-09T13:22:33Z</time>
      </trkpt>
      <trkpt lat="48.21801" lon="6.53175">
        <ele>366.6</ele>
        <time>2024-06-09T13:22:39Z</time>
      </trkpt>
      <trkpt lat="48.21801" lon="6.53174">
        <ele>366.6</ele>
        <time>2024-06-09T13:22:40Z</time>
      </trkpt>
      <trkpt lat="48.21799" lon="6.5316">
        <ele>366.9</ele>
        <time>2024-06-09T13:22:49Z</time>
      </trkpt>
      <trkpt lat="48.21798" lon="6.53145">
        <ele>367.2</ele>
        <time>2024-06-09T13:22:58Z</time>
      </trkpt>
      <trkpt lat="48.21798" lon="6.53131">
        <ele>367.5</ele>
        <time>2024-06-09T13:23:07Z</time>
      </trkpt>
      <trkpt lat="48.21795" lon="6.53117">
        <ele>367.7</ele>
        <time>2024-06-09T13:23:17Z</time>
      </trkpt>
      <trkpt lat="48.21793" lon="6.53103">
        <ele>368</ele>
        <time>2024-06-09T13:23:28Z</time>
      </trkpt>
      <trkpt lat="48.2179" lon="6.5309">
        <ele>368.2</ele>
        <time>2024-06-09T13:23:37Z</time>
      </trkpt>
      <trkpt lat="48.21789" lon="6.53076">
        <ele>368.4</ele>
        <time>2024-06-09T13:23:47Z</time>
      </trkpt>
      <trkpt lat="48.21787" lon="6.53062">
        <ele>368.7</ele>
        <time>2024-06-09T13:23:58Z</time>
      </trkpt>
      <trkpt lat="48.21787" lon="6.53048">
        <ele>368.9</ele>
        <time>2024-06-09T13:24:08Z</time>
      </trkpt>
      <trkpt lat="48.21785" lon="6.53034">
        <ele>369.1</ele>
        <time>2024-06-09T13:24:19Z</time>
      </trkpt>
      <trkpt lat="48.21784" lon="6.53034">
        <ele>369.1</ele>
        <time>2024-06-09T13:24:21Z</time>
      </trkpt>
      <trkpt lat="48.21784" lon="6.53034">
        <ele>369.1</ele>
        <time>2024-06-09T13:24:22Z</time>
      </trkpt>
      <trkpt lat="48.21784" lon="6.53033">
        <ele>369.1</ele>
        <time>2024-06-09T13:24:31Z</time>
      </trkpt>
      <trkpt lat="48.21784" lon="6.53032">
        <ele>369.2</ele>
        <time>2024-06-09T13:24:32Z</time>
      </trkpt>
      <trkpt lat="48.21783" lon="6.53018">
        <ele>369.3</ele>
        <time>2024-06-09T13:24:43Z</time>
      </trkpt>
      <trkpt lat="48.21782" lon="6.53004">
        <ele>369.5</ele>
        <time>2024-06-09T13:24:53Z</time>
      </trkpt>
      <trkpt lat="48.21781" lon="6.53003">
        <ele>369.5</ele>
        <time>2024-06-09T13:24:58Z</time>
      </trkpt>
      <trkpt lat="48.21781" lon="6.53003">
        <ele>369.5</ele>
        <time>2024-06-09T13:24:59Z</time>
      </trkpt>
      <trkpt lat="48.21781" lon="6.53003">
        <ele>369.5</ele>
        <time>2024-06-09T13:25:00Z</time>
      </trkpt>
      <trkpt lat="48.21782" lon="6.52999">
        <ele>369.5</ele>
        <time>2024-06-09T13:25:09Z</time>
      </trkpt>
      <trkpt lat="48.21782" lon="6.52997">
        <ele>369.5</ele>
        <time>2024-06-09T13:25:10Z</time>
      </trkpt>
      <trkpt lat="48.21782" lon="6.52982">
        <ele>369.7</ele>
        <time>2024-06-09T13:25:19Z</time>
      </trkpt>
      <trkpt lat="48.21777" lon="6.52969">
        <ele>369.8</ele>
        <time>2024-06-09T13:25:28Z</time>
      </trkpt>
      <trkpt lat="48.21774" lon="6.52955">
        <ele>369.8</ele>
        <time>2024-06-09T13:25:37Z</time>
      </trkpt>
      <trkpt lat="48.21774" lon="6.5294">
        <ele>369.9</ele>
        <time>2024-06-09T13:25:46Z</time>
      </trkpt>
      <trkpt lat="48.21772" lon="6.52927">
        <ele>370</ele>
        <time>2024-06-09T13:25:54Z</time>
      </trkpt>
      <trkpt lat="48.21772" lon="6.52913">
        <ele>370.1</ele>
        <time>2024-06-09T13:26:04Z</time>
      </trkpt>
      <trkpt lat="48.21771" lon="6.52899">
        <ele>370.1</ele>
        <time>2024-06-09T13:26:14Z</time>
      </trkpt>
      <trkpt lat="48.21767" lon="6.52886">
        <ele>370.1</ele>
        <time>2024-06-09T13:26:24Z</time>
      </trkpt>
      <trkpt lat="48.21763" lon="6.52874">
        <ele>370.2</ele>
        <time>2024-06-09T13:26:35Z</time>
      </trkpt>
      <trkpt lat="48.21758" lon="6.52862">
        <ele>370.2</ele>
        <time>2024-06-09T13:26:45Z</time>
      </trkpt>
      <trkpt lat="48.21754" lon="6.52854">
        <ele>370.2</ele>
        <time>2024-06-09T13:26:53Z</time>
      </trkpt>
      <trkpt lat="48.21754" lon="6.52854">
        <ele>370.2</ele>
        <time>2024-06-09T13:26:54Z</time>
      </trkpt>
      <trkpt lat="48.21754" lon="6.52854">
        <ele>370.2</ele>
        <time>2024-06-09T13:26:55Z</time>
      </trkpt>
      <trkpt lat="48.21752" lon="6.52853">
        <ele>370.2</ele>
        <time>2024-06-09T13:26:58Z</time>
      </trkpt>
      <trkpt lat="48.21752" lon="6.52852">
        <ele>370.2</ele>
        <time>2024-06-09T13:26:59Z</time>
      </trkpt>
      <trkpt lat="48.21751" lon="6.52851">
        <ele>370.2</ele>
        <time>2024-06-09T13:27:00Z</time>
      </trkpt>
      <trkpt lat="48.21745" lon="6.52839">
        <ele>370.2</ele>
        <time>2024-06-09T13:27:10Z</time>
      </trkpt>
      <trkpt lat="48.21743" lon="6.52832">
        <ele>370.3</ele>
        <time>2024-06-09T13:27:18Z</time>
      </trkpt>
      <trkpt lat="48.21743" lon="6.52832">
        <ele>370.3</ele>
        <time>2024-06-09T13:27:19Z</time>
      </trkpt>
      <trkpt lat="48.21743" lon="6.52832">
        <ele>370.3</ele>
        <time>2024-06-09T13:27:20Z</time>
      </trkpt>
      <trkpt lat="48.21743" lon="6.5283">
        <ele>370.3</ele>
        <time>2024-06-09T13:27:23Z</time>
      </trkpt>
      <trkpt lat="48.21742" lon="6.52829">
        <ele>370.3</ele>
        <time>2024-06-09T13:27:24Z</time>
      </trkpt>
      <trkpt lat="48.21742" lon="6.52827">
        <ele>370.3</ele>
        <time>2024-06-09T13:27:25Z</time>
      </trkpt>
      <trkpt lat="48.21735" lon="6.52818">
        <ele>370.3</ele>
        <time>2024-06-09T13:27:34Z</time>
      </trkpt>
      <trkpt lat="48.21729" lon="6.52806">
        <ele>370.4</ele>
        <time>2024-06-09T13:27:45Z</time>
      </trkpt>
      <trkpt lat="48.21724" lon="6.52793">
        <ele>370.5</ele>
        <time>2024-06-09T13:27:56Z</time>
      </trkpt>
      <trkpt lat="48.21718" lon="6.52781">
        <ele>370.7</ele>
        <time>2024-06-09T13:28:07Z</time>
      </trkpt>
      <trkpt lat="48.21713" lon="6.52769">
        <ele>370.8</ele>
        <time>2024-06-09T13:28:19Z</time>
      </trkpt>
      <trkpt lat="48.21712" lon="6.5277">
        <ele>370.8</ele>
        <time>2024-06-09T13:28:32Z</time>
      </trkpt>
      <trkpt lat="48.21712" lon="6.5277">
        <ele>370.8</ele>
        <time>2024-06-09T13:28:33Z</time>
      </trkpt>
      <trkpt lat="48.21712" lon="6.52771">
        <ele>370.8</ele>
        <time>2024-06-09T13:32:38Z</time>
      </trkpt>
      <trkpt lat="48.21713" lon="6.52769">
        <ele>370.8</ele>
        <time>2024-06-09T13:32:39Z</time>
      </trkpt>
      <trkpt lat="48.21713" lon="6.52767">
        <ele>370.8</ele>
        <time>2024-06-09T13:32:40Z</time>
      </trkpt>
      <trkpt lat="48.21713" lon="6.52766">
        <ele>370.8</ele>
        <time>2024-06-09T13:32:43Z</time>
      </trkpt>
      <trkpt lat="48.21713" lon="6.52766">
        <ele>370.8</ele>
        <time>2024-06-09T13:32:44Z</time>
      </trkpt>
      <trkpt lat="48.21713" lon="6.52766">
        <ele>370.8</ele>
        <time>2024-06-09T13:32:45Z</time>
      </trkpt>
      <trkpt lat="48.21711" lon="6.52767">
        <ele>370.8</ele>
        <time>2024-06-09T13:37:44Z</time>
      </trkpt>
      <trkpt lat="48.21711" lon="6.52767">
        <ele>370.8</ele>
        <time>2024-06-09T13:37:45Z</time>
      </trkpt>
      <trkpt lat="48.21711" lon="6.52767">
        <ele>370.8</ele>
        <time>2024-06-09T13:37:46Z</time>
      </trkpt>
      <trkpt lat="48.21711" lon="6.52767">
        <ele>370.8</ele>
        <time>2024-06-09T13:37:47Z</time>
      </trkpt>
      <trkpt lat="48.21709" lon="6.52769">
        <ele>370.9</ele>
        <time>2024-06-09T13:40:08Z</time>
      </trkpt>
      <trkpt lat="48.21709" lon="6.52769">
        <ele>370.9</ele>
        <time>2024-06-09T13:40:09Z</time>
      </trkpt>
      <trkpt lat="48.21709" lon="6.52769">
        <ele>370.9</ele>
        <time>2024-06-09T13:40:10Z</time>
      </trkpt>
      <trkpt lat="48.21705" lon="6.52757">
        <ele>371</ele>
        <time>2024-06-09T13:40:32Z</time>
      </trkpt>
      <trkpt lat="48.217" lon="6.52745">
        <ele>371.2</ele>
        <time>2024-06-09T13:40:43Z</time>
      </trkpt>
      <trkpt lat="48.21696" lon="6.52731">
        <ele>371.4</ele>
        <time>2024-06-09T13:40:54Z</time>
      </trkpt>
      <trkpt lat="48.21692" lon="6.52718">
        <ele>371.5</ele>
        <time>2024-06-09T13:41:07Z</time>
      </trkpt>
      <trkpt lat="48.21685" lon="6.5271">
        <ele>371.8</ele>
        <time>2024-06-09T13:41:18Z</time>
      </trkpt>
      <trkpt lat="48.21677" lon="6.52701">
        <ele>372</ele>
        <time>2024-06-09T13:41:26Z</time>
      </trkpt>
      <trkpt lat="48.21675" lon="6.52687">
        <ele>372.2</ele>
        <time>2024-06-09T13:41:36Z</time>
      </trkpt>
      <trkpt lat="48.21671" lon="6.52674">
        <ele>372.4</ele>
        <time>2024-06-09T13:41:46Z</time>
      </trkpt>
      <trkpt lat="48.21665" lon="6.52662">
        <ele>372.7</ele>
        <time>2024-06-09T13:41:57Z</time>
      </trkpt>
      <trkpt lat="48.2166" lon="6.5265">
        <ele>372.9</ele>
        <time>2024-06-09T13:42:07Z</time>
      </trkpt>
      <trkpt lat="48.21654" lon="6.52638">
        <ele>373</ele>
        <time>2024-06-09T13:42:16Z</time>
      </trkpt>
      <trkpt lat="48.21646" lon="6.5263">
        <ele>373.2</ele>
        <time>2024-06-09T13:42:25Z</time>
      </trkpt>
      <trkpt lat="48.21638" lon="6.52623">
        <ele>373.2</ele>
        <time>2024-06-09T13:42:36Z</time>
      </trkpt>
      <trkpt lat="48.21629" lon="6.52619">
        <ele>373.3</ele>
        <time>2024-06-09T13:42:46Z</time>
      </trkpt>
      <trkpt lat="48.2162" lon="6.52612">
        <ele>373.3</ele>
        <time>2024-06-09T13:42:55Z</time>
      </trkpt>
      <trkpt lat="48.21612" lon="6.52605">
        <ele>373.3</ele>
        <time>2024-06-09T13:43:06Z</time>
      </trkpt>
      <trkpt lat="48.21603" lon="6.52599">
        <ele>373.2</ele>
        <time>2024-06-09T13:43:15Z</time>
      </trkpt>
      <trkpt lat="48.21595" lon="6.52594">
        <ele>373.1</ele>
        <time>2024-06-09T13:43:25Z</time>
      </trkpt>
      <trkpt lat="48.21588" lon="6.52588">
        <ele>373</ele>
        <time>2024-06-09T13:43:39Z</time>
      </trkpt>
      <trkpt lat="48.21588" lon="6.52588">
        <ele>373</ele>
        <time>2024-06-09T13:43:40Z</time>
      </trkpt>
      <trkpt lat="48.21585" lon="6.5259">
        <ele>373</ele>
        <time>2024-06-09T13:43:56Z</time>
      </trkpt>
      <trkpt lat="48.21585" lon="6.5259">
        <ele>373</ele>
        <time>2024-06-09T13:43:57Z</time>
      </trkpt>
      <trkpt lat="48.21583" lon="6.52593">
        <ele>373</ele>
        <time>2024-06-09T13:44:04Z</time>
      </trkpt>
      <trkpt lat="48.21583" lon="6.52593">
        <ele>373</ele>
        <time>2024-06-09T13:44:05Z</time>
      </trkpt>
      <trkpt lat="48.21583" lon="6.52593">
        <ele>373</ele>
        <time>2024-06-09T13:44:06Z</time>
      </trkpt>
      <trkpt lat="48.21582" lon="6.52593">
        <ele>373</ele>
        <time>2024-06-09T13:44:31Z</time>
      </trkpt>
      <trkpt lat="48.21582" lon="6.52592">
        <ele>373</ele>
        <time>2024-06-09T13:44:32Z</time>
      </trkpt>
      <trkpt lat="48.21583" lon="6.52592">
        <ele>373</ele>
        <time>2024-06-09T13:44:33Z</time>
      </trkpt>
      <trkpt lat="48.21584" lon="6.52592">
        <ele>372.9</ele>
        <time>2024-06-09T13:44:39Z</time>
      </trkpt>
      <trkpt lat="48.21584" lon="6.52592">
        <ele>372.9</ele>
        <time>2024-06-09T13:44:40Z</time>
      </trkpt>
      <trkpt lat="48.21583" lon="6.52591">
        <ele>372.9</ele>
        <time>2024-06-09T13:45:01Z</time>
      </trkpt>
      <trkpt lat="48.21583" lon="6.52589">
        <ele>372.9</ele>
        <time>2024-06-09T13:45:02Z</time>
      </trkpt>
      <trkpt lat="48.21583" lon="6.52589">
        <ele>372.9</ele>
        <time>2024-06-09T13:45:03Z</time>
      </trkpt>
      <trkpt lat="48.21583" lon="6.52589">
        <ele>372.9</ele>
        <time>2024-06-09T13:45:07Z</time>
      </trkpt>
      <trkpt lat="48.21583" lon="6.52589">
        <ele>372.9</ele>
        <time>2024-06-09T13:45:08Z</time>
      </trkpt>
      <trkpt lat="48.21583" lon="6.52589">
        <ele>372.9</ele>
        <time>2024-06-09T13:45:26Z</time>
      </trkpt>
      <trkpt lat="48.21583" lon="6.52589">
        <ele>372.9</ele>
        <time>2024-06-09T13:45:27Z</time>
      </trkpt>
      <trkpt lat="48.21583" lon="6.52589">
        <ele>372.9</ele>
        <time>2024-06-09T13:45:28Z</time>
      </trkpt>
      <trkpt lat="48.21583" lon="6.52589">
        <ele>372.9</ele>
        <time>2024-06-09T13:45:29Z</time>
      </trkpt>
      <trkpt lat="48.21583" lon="6.52589">
        <ele>372.9</ele>
        <time>2024-06-09T13:45:30Z</time>
      </trkpt>
      <trkpt lat="48.21582" lon="6.52588">
        <ele>372.9</ele>
        <time>2024-06-09T13:45:37Z</time>
      </trkpt>
      <trkpt lat="48.21581" lon="6.52588">
        <ele>372.9</ele>
        <time>2024-06-09T13:45:38Z</time>
      </trkpt>
      <trkpt lat="48.21575" lon="6.52578">
        <ele>372.9</ele>
        <time>2024-06-09T13:45:54Z</time>
      </trkpt>
      <trkpt lat="48.2157" lon="6.52574">
        <ele>372.8</ele>
        <time>2024-06-09T13:46:04Z</time>
      </trkpt>
      <trkpt lat="48.2157" lon="6.52574">
        <ele>372.8</ele>
        <time>2024-06-09T13:46:05Z</time>
      </trkpt>
      <trkpt lat="48.21571" lon="6.52576">
        <ele>372.8</ele>
        <time>2024-06-09T13:46:21Z</time>
      </trkpt>
      <trkpt lat="48.2157" lon="6.52576">
        <ele>372.8</ele>
        <time>2024-06-09T13:46:22Z</time>
      </trkpt>
      <trkpt lat="48.2157" lon="6.52575">
        <ele>372.8</ele>
        <time>2024-06-09T13:46:23Z</time>
      </trkpt>
      <trkpt lat="48.21561" lon="6.52571">
        <ele>372.8</ele>
        <time>2024-06-09T13:46:31Z</time>
      </trkpt>
      <trkpt lat="48.21552" lon="6.52565">
        <ele>372.7</ele>
        <time>2024-06-09T13:46:39Z</time>
      </trkpt>
      <trkpt lat="48.21544" lon="6.52558">
        <ele>372.5</ele>
        <time>2024-06-09T13:46:50Z</time>
      </trkpt>
      <trkpt lat="48.21535" lon="6.52552">
        <ele>372.4</ele>
        <time>2024-06-09T13:46:58Z</time>
      </trkpt>
      <trkpt lat="48.21526" lon="6.52546">
        <ele>372.3</ele>
        <time>2024-06-09T13:47:06Z</time>
      </trkpt>
      <trkpt lat="48.21518" lon="6.52541">
        <ele>372.2</ele>
        <time>2024-06-09T13:47:15Z</time>
      </trkpt>
      <trkpt lat="48.21509" lon="6.52535">
        <ele>372.1</ele>
        <time>2024-06-09T13:47:23Z</time>
      </trkpt>
      <trkpt lat="48.215" lon="6.52531">
        <ele>372.1</ele>
        <time>2024-06-09T13:47:32Z</time>
      </trkpt>
      <trkpt lat="48.21491" lon="6.52523">
        <ele>372</ele>
        <time>2024-06-09T13:47:44Z</time>
      </trkpt>
      <trkpt lat="48.21483" lon="6.52517">
        <ele>372</ele>
        <time>2024-06-09T13:47:52Z</time>
      </trkpt>
      <trkpt lat="48.21475" lon="6.52511">
        <ele>371.9</ele>
        <time>2024-06-09T13:47:59Z</time>
      </trkpt>
      <trkpt lat="48.21467" lon="6.52502">
        <ele>371.8</ele>
        <time>2024-06-09T13:48:09Z</time>
      </trkpt>
      <trkpt lat="48.21468" lon="6.525">
        <ele>371.8</ele>
        <time>2024-06-09T13:48:14Z</time>
      </trkpt>
      <trkpt lat="48.21468" lon="6.525">
        <ele>371.8</ele>
        <time>2024-06-09T13:48:15Z</time>
      </trkpt>
      <trkpt lat="48.21468" lon="6.525">
        <ele>371.8</ele>
        <time>2024-06-09T13:48:16Z</time>
      </trkpt>
      <trkpt lat="48.21468" lon="6.52501">
        <ele>371.8</ele>
        <time>2024-06-09T13:48:17Z</time>
      </trkpt>
      <trkpt lat="48.21468" lon="6.52501">
        <ele>371.8</ele>
        <time>2024-06-09T13:48:18Z</time>
      </trkpt>
      <trkpt lat="48.21458" lon="6.52504">
        <ele>371.8</ele>
        <time>2024-06-09T13:48:26Z</time>
      </trkpt>
      <trkpt lat="48.21451" lon="6.52495">
        <ele>371.8</ele>
        <time>2024-06-09T13:48:35Z</time>
      </trkpt>
      <trkpt lat="48.21442" lon="6.52488">
        <ele>371.8</ele>
        <time>2024-06-09T13:48:45Z</time>
      </trkpt>
      <trkpt lat="48.21434" lon="6.52482">
        <ele>371.7</ele>
        <time>2024-06-09T13:48:55Z</time>
      </trkpt>
      <trkpt lat="48.21425" lon="6.52475">
        <ele>371.7</ele>
        <time>2024-06-09T13:49:04Z</time>
      </trkpt>
      <trkpt lat="48.21416" lon="6.52471">
        <ele>371.6</ele>
        <time>2024-06-09T13:49:13Z</time>
      </trkpt>
      <trkpt lat="48.21407" lon="6.52467">
        <ele>371.6</ele>
        <time>2024-06-09T13:49:22Z</time>
      </trkpt>
      <trkpt lat="48.21399" lon="6.52459">
        <ele>371.6</ele>
        <time>2024-06-09T13:49:33Z</time>
      </trkpt>
      <trkpt lat="48.2139" lon="6.52458">
        <ele>371.6</ele>
        <time>2024-06-09T13:49:46Z</time>
      </trkpt>
      <trkpt lat="48.2139" lon="6.5246">
        <ele>371.6</ele>
        <time>2024-06-09T13:49:51Z</time>
      </trkpt>
      <trkpt lat="48.2139" lon="6.5246">
        <ele>371.6</ele>
        <time>2024-06-09T13:49:52Z</time>
      </trkpt>
      <trkpt lat="48.21389" lon="6.52458">
        <ele>371.6</ele>
        <time>2024-06-09T13:49:56Z</time>
      </trkpt>
      <trkpt lat="48.21388" lon="6.52458">
        <ele>371.6</ele>
        <time>2024-06-09T13:49:57Z</time>
      </trkpt>
      <trkpt lat="48.2138" lon="6.5245">
        <ele>371.5</ele>
        <time>2024-06-09T13:50:08Z</time>
      </trkpt>
      <trkpt lat="48.21371" lon="6.52444">
        <ele>371.5</ele>
        <time>2024-06-09T13:50:17Z</time>
      </trkpt>
      <trkpt lat="48.21363" lon="6.52439">
        <ele>371.5</ele>
        <time>2024-06-09T13:50:27Z</time>
      </trkpt>
      <trkpt lat="48.21355" lon="6.5243">
        <ele>371.4</ele>
        <time>2024-06-09T13:50:37Z</time>
      </trkpt>
      <trkpt lat="48.21347" lon="6.52423">
        <ele>371.4</ele>
        <time>2024-06-09T13:50:46Z</time>
      </trkpt>
      <trkpt lat="48.21338" lon="6.52419">
        <ele>371.3</ele>
        <time>2024-06-09T13:50:55Z</time>
      </trkpt>
      <trkpt lat="48.21328" lon="6.52415">
        <ele>371.3</ele>
        <time>2024-06-09T13:51:05Z</time>
      </trkpt>
      <trkpt lat="48.2132" lon="6.52408">
        <ele>371.3</ele>
        <time>2024-06-09T13:51:13Z</time>
      </trkpt>
      <trkpt lat="48.21311" lon="6.52401">
        <ele>371.2</ele>
        <time>2024-06-09T13:51:24Z</time>
      </trkpt>
      <trkpt lat="48.21303" lon="6.52394">
        <ele>371.2</ele>
        <time>2024-06-09T13:51:33Z</time>
      </trkpt>
      <trkpt lat="48.21293" lon="6.52388">
        <ele>371.1</ele>
        <time>2024-06-09T13:51:43Z</time>
      </trkpt>
      <trkpt lat="48.21285" lon="6.5238">
        <ele>371</ele>
        <time>2024-06-09T13:51:52Z</time>
      </trkpt>
      <trkpt lat="48.21278" lon="6.52372">
        <ele>371</ele>
        <time>2024-06-09T13:52:04Z</time>
      </trkpt>
      <trkpt lat="48.21269" lon="6.52367">
        <ele>370.9</ele>
        <time>2024-06-09T13:52:15Z</time>
      </trkpt>
      <trkpt lat="48.2126" lon="6.52362">
        <ele>370.9</ele>
        <time>2024-06-09T13:52:24Z</time>
      </trkpt>
      <trkpt lat="48.21251" lon="6.52358">
        <ele>370.8</ele>
        <time>2024-06-09T13:52:33Z</time>
      </trkpt>
      <trkpt lat="48.21242" lon="6.52352">
        <ele>370.7</ele>
        <time>2024-06-09T13:52:41Z</time>
      </trkpt>
      <trkpt lat="48.21233" lon="6.52348">
        <ele>370.6</ele>
        <time>2024-06-09T13:52:51Z</time>
      </trkpt>
      <trkpt lat="48.21227" lon="6.52337">
        <ele>370.4</ele>
        <time>2024-06-09T13:53:02Z</time>
      </trkpt>
      <trkpt lat="48.2122" lon="6.52327">
        <ele>370.2</ele>
        <time>2024-06-09T13:53:14Z</time>
      </trkpt>
      <trkpt lat="48.21214" lon="6.52314">
        <ele>370</ele>
        <time>2024-06-09T13:53:27Z</time>
      </trkpt>
      <trkpt lat="48.21211" lon="6.52301">
        <ele>369.8</ele>
        <time>2024-06-09T13:53:38Z</time>
      </trkpt>
      <trkpt lat="48.21203" lon="6.52292">
        <ele>369.7</ele>
        <time>2024-06-09T13:53:44Z</time>
      </trkpt>
      <trkpt lat="48.21198" lon="6.52281">
        <ele>369.5</ele>
        <time>2024-06-09T13:53:51Z</time>
      </trkpt>
      <trkpt lat="48.21192" lon="6.5227">
        <ele>369.3</ele>
        <time>2024-06-09T13:53:59Z</time>
      </trkpt>
      <trkpt lat="48.21185" lon="6.5226">
        <ele>369.1</ele>
        <time>2024-06-09T13:54:07Z</time>
      </trkpt>
      <trkpt lat="48.21179" lon="6.52248">
        <ele>368.9</ele>
        <time>2024-06-09T13:54:16Z</time>
      </trkpt>
      <trkpt lat="48.21173" lon="6.52237">
        <ele>368.8</ele>
        <time>2024-06-09T13:54:24Z</time>
      </trkpt>
      <trkpt lat="48.21166" lon="6.52228">
        <ele>368.6</ele>
        <time>2024-06-09T13:54:35Z</time>
      </trkpt>
      <trkpt lat="48.21158" lon="6.52236">
        <ele>368.7</ele>
        <time>2024-06-09T13:54:42Z</time>
      </trkpt>
      <trkpt lat="48.21151" lon="6.52247">
        <ele>368.8</ele>
        <time>2024-06-09T13:54:49Z</time>
      </trkpt>
      <trkpt lat="48.21148" lon="6.5226">
        <ele>368.9</ele>
        <time>2024-06-09T13:54:59Z</time>
      </trkpt>
      <trkpt lat="48.21141" lon="6.52271">
        <ele>369</ele>
        <time>2024-06-09T13:55:08Z</time>
      </trkpt>
      <trkpt lat="48.21133" lon="6.52279">
        <ele>369</ele>
        <time>2024-06-09T13:55:17Z</time>
      </trkpt>
      <trkpt lat="48.21126" lon="6.52287">
        <ele>369</ele>
        <time>2024-06-09T13:55:25Z</time>
      </trkpt>
      <trkpt lat="48.21119" lon="6.52296">
        <ele>369.1</ele>
        <time>2024-06-09T13:55:31Z</time>
      </trkpt>
      <trkpt lat="48.21119" lon="6.52297">
        <ele>369.1</ele>
        <time>2024-06-09T13:55:36Z</time>
      </trkpt>
      <trkpt lat="48.21118" lon="6.52296">
        <ele>369.1</ele>
        <time>2024-06-09T13:55:37Z</time>
      </trkpt>
      <trkpt lat="48.21126" lon="6.52303">
        <ele>369.1</ele>
        <time>2024-06-09T13:56:11Z</time>
      </trkpt>
      <trkpt lat="48.21124" lon="6.52303">
        <ele>369.2</ele>
        <time>2024-06-09T13:56:14Z</time>
      </trkpt>
      <trkpt lat="48.21122" lon="6.52303">
        <ele>369.2</ele>
        <time>2024-06-09T13:56:15Z</time>
      </trkpt>
      <trkpt lat="48.21119" lon="6.52302">
        <ele>369.3</ele>
        <time>2024-06-09T13:56:16Z</time>
      </trkpt>
      <trkpt lat="48.21113" lon="6.52311">
        <ele>369.3</ele>
        <time>2024-06-09T13:56:25Z</time>
      </trkpt>
      <trkpt lat="48.21107" lon="6.52322">
        <ele>369.3</ele>
        <time>2024-06-09T13:56:41Z</time>
      </trkpt>
      <trkpt lat="48.21103" lon="6.52334">
        <ele>369.3</ele>
        <time>2024-06-09T13:56:51Z</time>
      </trkpt>
      <trkpt lat="48.21094" lon="6.52341">
        <ele>369.3</ele>
        <time>2024-06-09T13:56:58Z</time>
      </trkpt>
      <trkpt lat="48.21088" lon="6.52353">
        <ele>369.1</ele>
        <time>2024-06-09T13:57:06Z</time>
      </trkpt>
      <trkpt lat="48.21083" lon="6.52365">
        <ele>368.8</ele>
        <time>2024-06-09T13:57:16Z</time>
      </trkpt>
      <trkpt lat="48.21075" lon="6.52372">
        <ele>368.7</ele>
        <time>2024-06-09T13:57:26Z</time>
      </trkpt>
      <trkpt lat="48.21066" lon="6.5238">
        <ele>368.5</ele>
        <time>2024-06-09T13:57:38Z</time>
      </trkpt>
      <trkpt lat="48.2106" lon="6.52393">
        <ele>368.2</ele>
        <time>2024-06-09T13:57:45Z</time>
      </trkpt>
      <trkpt lat="48.21055" lon="6.52396">
        <ele>368.1</ele>
        <time>2024-06-09T13:57:54Z</time>
      </trkpt>
      <trkpt lat="48.21055" lon="6.52396">
        <ele>368.1</ele>
        <time>2024-06-09T13:57:55Z</time>
      </trkpt>
      <trkpt lat="48.21054" lon="6.52396">
        <ele>368.2</ele>
        <time>2024-06-09T13:57:56Z</time>
      </trkpt>
      <trkpt lat="48.21054" lon="6.52397">
        <ele>368.2</ele>
        <time>2024-06-09T13:57:57Z</time>
      </trkpt>
      <trkpt lat="48.21054" lon="6.52399">
        <ele>368.2</ele>
        <time>2024-06-09T13:57:58Z</time>
      </trkpt>
      <trkpt lat="48.21047" lon="6.52408">
        <ele>367.8</ele>
        <time>2024-06-09T13:58:10Z</time>
      </trkpt>
      <trkpt lat="48.21042" lon="6.52422">
        <ele>367.3</ele>
        <time>2024-06-09T13:58:20Z</time>
      </trkpt>
      <trkpt lat="48.21038" lon="6.52434">
        <ele>366.7</ele>
        <time>2024-06-09T13:58:27Z</time>
      </trkpt>
      <trkpt lat="48.21035" lon="6.52448">
        <ele>366</ele>
        <time>2024-06-09T13:58:35Z</time>
      </trkpt>
      <trkpt lat="48.21033" lon="6.52462">
        <ele>365.2</ele>
        <time>2024-06-09T13:58:43Z</time>
      </trkpt>
      <trkpt lat="48.21029" lon="6.52475">
        <ele>364.3</ele>
        <time>2024-06-09T13:58:53Z</time>
      </trkpt>
      <trkpt lat="48.21025" lon="6.52488">
        <ele>363.4</ele>
        <time>2024-06-09T13:59:07Z</time>
      </trkpt>
      <trkpt lat="48.21018" lon="6.52496">
        <ele>362.7</ele>
        <time>2024-06-09T13:59:14Z</time>
      </trkpt>
      <trkpt lat="48.21011" lon="6.52507">
        <ele>362</ele>
        <time>2024-06-09T13:59:24Z</time>
      </trkpt>
      <trkpt lat="48.21003" lon="6.52514">
        <ele>362</ele>
        <time>2024-06-09T13:59:36Z</time>
      </trkpt>
      <trkpt lat="48.20995" lon="6.52522">
        <ele>361.8</ele>
        <time>2024-06-09T13:59:45Z</time>
      </trkpt>
      <trkpt lat="48.20988" lon="6.52531">
        <ele>361.7</ele>
        <time>2024-06-09T13:59:55Z</time>
      </trkpt>
      <trkpt lat="48.2098" lon="6.52541">
        <ele>361.6</ele>
        <time>2024-06-09T14:00:04Z</time>
      </trkpt>
      <trkpt lat="48.20973" lon="6.5255">
        <ele>361.4</ele>
        <time>2024-06-09T14:00:16Z</time>
      </trkpt>
      <trkpt lat="48.2097" lon="6.52563">
        <ele>361.2</ele>
        <time>2024-06-09T14:00:25Z</time>
      </trkpt>
      <trkpt lat="48.20963" lon="6.52572">
        <ele>361.3</ele>
        <time>2024-06-09T14:00:34Z</time>
      </trkpt>
      <trkpt lat="48.20956" lon="6.52584">
        <ele>361.1</ele>
        <time>2024-06-09T14:00:44Z</time>
      </trkpt>
      <trkpt lat="48.20949" lon="6.52594">
        <ele>360.8</ele>
        <time>2024-06-09T14:00:52Z</time>
      </trkpt>
      <trkpt lat="48.20948" lon="6.52595">
        <ele>360.9</ele>
        <time>2024-06-09T14:00:57Z</time>
      </trkpt>
      <trkpt lat="48.20948" lon="6.52595">
        <ele>360.9</ele>
        <time>2024-06-09T14:00:58Z</time>
      </trkpt>
      <trkpt lat="48.20945" lon="6.52601">
        <ele>360.7</ele>
        <time>2024-06-09T14:01:24Z</time>
      </trkpt>
      <trkpt lat="48.20944" lon="6.52603">
        <ele>360.7</ele>
        <time>2024-06-09T14:01:25Z</time>
      </trkpt>
      <trkpt lat="48.20944" lon="6.52604">
        <ele>360.7</ele>
        <time>2024-06-09T14:01:28Z</time>
      </trkpt>
      <trkpt lat="48.20944" lon="6.52604">
        <ele>360.8</ele>
        <time>2024-06-09T14:01:29Z</time>
      </trkpt>
      <trkpt lat="48.20944" lon="6.52604">
        <ele>360.8</ele>
        <time>2024-06-09T14:01:30Z</time>
      </trkpt>
      <trkpt lat="48.20944" lon="6.52606">
        <ele>360.7</ele>
        <time>2024-06-09T14:01:56Z</time>
      </trkpt>
      <trkpt lat="48.20944" lon="6.52607">
        <ele>360.7</ele>
        <time>2024-06-09T14:01:57Z</time>
      </trkpt>
      <trkpt lat="48.20944" lon="6.52607">
        <ele>360.8</ele>
        <time>2024-06-09T14:01:58Z</time>
      </trkpt>
      <trkpt lat="48.20937" lon="6.52617">
        <ele>360.5</ele>
        <time>2024-06-09T14:02:08Z</time>
      </trkpt>
      <trkpt lat="48.20933" lon="6.52626">
        <ele>360.2</ele>
        <time>2024-06-09T14:02:21Z</time>
      </trkpt>
      <trkpt lat="48.20933" lon="6.52626">
        <ele>360.2</ele>
        <time>2024-06-09T14:02:22Z</time>
      </trkpt>
      <trkpt lat="48.20933" lon="6.52626">
        <ele>360.3</ele>
        <time>2024-06-09T14:02:23Z</time>
      </trkpt>
      <trkpt lat="48.20931" lon="6.5263">
        <ele>360.1</ele>
        <time>2024-06-09T14:02:34Z</time>
      </trkpt>
      <trkpt lat="48.2093" lon="6.5263">
        <ele>360.1</ele>
        <time>2024-06-09T14:02:35Z</time>
      </trkpt>
      <trkpt lat="48.2093" lon="6.52631">
        <ele>359.9</ele>
        <time>2024-06-09T14:02:36Z</time>
      </trkpt>
      <trkpt lat="48.20923" lon="6.52642">
        <ele>359.5</ele>
        <time>2024-06-09T14:02:46Z</time>
      </trkpt>
      <trkpt lat="48.20915" lon="6.5265">
        <ele>359</ele>
        <time>2024-06-09T14:02:53Z</time>
      </trkpt>
      <trkpt lat="48.20907" lon="6.52657">
        <ele>358.5</ele>
        <time>2024-06-09T14:02:59Z</time>
      </trkpt>
      <trkpt lat="48.20899" lon="6.52665">
        <ele>358.1</ele>
        <time>2024-06-09T14:03:08Z</time>
      </trkpt>
      <trkpt lat="48.20891" lon="6.52672">
        <ele>358</ele>
        <time>2024-06-09T14:03:15Z</time>
      </trkpt>
      <trkpt lat="48.20885" lon="6.52684">
        <ele>357.2</ele>
        <time>2024-06-09T14:03:23Z</time>
      </trkpt>
      <trkpt lat="48.20879" lon="6.52696">
        <ele>356.5</ele>
        <time>2024-06-09T14:03:33Z</time>
      </trkpt>
      <trkpt lat="48.20874" lon="6.52708">
        <ele>355.9</ele>
        <time>2024-06-09T14:03:42Z</time>
      </trkpt>
      <trkpt lat="48.20866" lon="6.52716">
        <ele>355.2</ele>
        <time>2024-06-09T14:03:52Z</time>
      </trkpt>
      <trkpt lat="48.20859" lon="6.52725">
        <ele>353.8</ele>
        <time>2024-06-09T14:04:00Z</time>
      </trkpt>
      <trkpt lat="48.20851" lon="6.52734">
        <ele>352.4</ele>
        <time>2024-06-09T14:04:11Z</time>
      </trkpt>
      <trkpt lat="48.20844" lon="6.52744">
        <ele>351.4</ele>
        <time>2024-06-09T14:04:22Z</time>
      </trkpt>
      <trkpt lat="48.20837" lon="6.52753">
        <ele>350.2</ele>
        <time>2024-06-09T14:04:33Z</time>
      </trkpt>
      <trkpt lat="48.2083" lon="6.52764">
        <ele>349.1</ele>
        <time>2024-06-09T14:04:41Z</time>
      </trkpt>
      <trkpt lat="48.20822" lon="6.52772">
        <ele>347.9</ele>
        <time>2024-06-09T14:04:49Z</time>
      </trkpt>
      <trkpt lat="48.20816" lon="6.52783">
        <ele>347.1</ele>
        <time>2024-06-09T14:04:57Z</time>
      </trkpt>
      <trkpt lat="48.20811" lon="6.52795">
        <ele>346.5</ele>
        <time>2024-06-09T14:05:06Z</time>
      </trkpt>
      <trkpt lat="48.20803" lon="6.52804">
        <ele>346</ele>
        <time>2024-06-09T14:05:16Z</time>
      </trkpt>
      <trkpt lat="48.208" lon="6.52817">
        <ele>346.2</ele>
        <time>2024-06-09T14:05:25Z</time>
      </trkpt>
      <trkpt lat="48.20793" lon="6.52825">
        <ele>346.2</ele>
        <time>2024-06-09T14:05:35Z</time>
      </trkpt>
      <trkpt lat="48.20785" lon="6.52833">
        <ele>346</ele>
        <time>2024-06-09T14:05:47Z</time>
      </trkpt>
      <trkpt lat="48.20779" lon="6.52843">
        <ele>346</ele>
        <time>2024-06-09T14:05:58Z</time>
      </trkpt>
      <trkpt lat="48.20774" lon="6.52856">
        <ele>346.2</ele>
        <time>2024-06-09T14:06:07Z</time>
      </trkpt>
      <trkpt lat="48.20775" lon="6.5287">
        <ele>346.9</ele>
        <time>2024-06-09T14:06:16Z</time>
      </trkpt>
      <trkpt lat="48.20776" lon="6.52877">
        <ele>347.2</ele>
        <time>2024-06-09T14:06:24Z</time>
      </trkpt>
      <trkpt lat="48.20776" lon="6.52877">
        <ele>347.2</ele>
        <time>2024-06-09T14:06:25Z</time>
      </trkpt>
      <trkpt lat="48.20776" lon="6.52877">
        <ele>347.3</ele>
        <time>2024-06-09T14:06:26Z</time>
      </trkpt>
      <trkpt lat="48.20776" lon="6.52878">
        <ele>347.3</ele>
        <time>2024-06-09T14:06:49Z</time>
      </trkpt>
      <trkpt lat="48.20776" lon="6.52878">
        <ele>347.4</ele>
        <time>2024-06-09T14:06:50Z</time>
      </trkpt>
      <trkpt lat="48.20776" lon="6.52879">
        <ele>347.4</ele>
        <time>2024-06-09T14:06:53Z</time>
      </trkpt>
      <trkpt lat="48.20776" lon="6.52879">
        <ele>347.4</ele>
        <time>2024-06-09T14:06:54Z</time>
      </trkpt>
      <trkpt lat="48.20775" lon="6.52879">
        <ele>347.5</ele>
        <time>2024-06-09T14:06:55Z</time>
      </trkpt>
      <trkpt lat="48.20775" lon="6.52879">
        <ele>347.5</ele>
        <time>2024-06-09T14:07:14Z</time>
      </trkpt>
      <trkpt lat="48.20775" lon="6.52878">
        <ele>347.6</ele>
        <time>2024-06-09T14:07:15Z</time>
      </trkpt>
      <trkpt lat="48.20775" lon="6.52876">
        <ele>347.6</ele>
        <time>2024-06-09T14:07:16Z</time>
      </trkpt>
      <trkpt lat="48.20775" lon="6.52862">
        <ele>347</ele>
        <time>2024-06-09T14:07:27Z</time>
      </trkpt>
      <trkpt lat="48.2077" lon="6.5285">
        <ele>346.3</ele>
        <time>2024-06-09T14:07:37Z</time>
      </trkpt>
      <trkpt lat="48.20765" lon="6.52838">
        <ele>345.9</ele>
        <time>2024-06-09T14:07:47Z</time>
      </trkpt>
      <trkpt lat="48.2076" lon="6.52826">
        <ele>345.5</ele>
        <time>2024-06-09T14:07:59Z</time>
      </trkpt>
      <trkpt lat="48.20754" lon="6.52816">
        <ele>345</ele>
        <time>2024-06-09T14:08:07Z</time>
      </trkpt>
      <trkpt lat="48.20748" lon="6.52804">
        <ele>344.5</ele>
        <time>2024-06-09T14:08:15Z</time>
      </trkpt>
      <trkpt lat="48.20742" lon="6.52793">
        <ele>344.1</ele>
        <time>2024-06-09T14:08:28Z</time>
      </trkpt>
      <trkpt lat="48.20735" lon="6.52784">
        <ele>343.9</ele>
        <time>2024-06-09T14:08:37Z</time>
      </trkpt>
      <trkpt lat="48.20732" lon="6.5277">
        <ele>343.8</ele>
        <time>2024-06-09T14:08:50Z</time>
      </trkpt>
      <trkpt lat="48.20732" lon="6.5277">
        <ele>343.8</ele>
        <time>2024-06-09T14:08:54Z</time>
      </trkpt>
      <trkpt lat="48.20732" lon="6.5277">
        <ele>343.8</ele>
        <time>2024-06-09T14:08:55Z</time>
      </trkpt>
      <trkpt lat="48.20731" lon="6.52767">
        <ele>343.8</ele>
        <time>2024-06-09T14:08:58Z</time>
      </trkpt>
      <trkpt lat="48.20731" lon="6.52766">
        <ele>343.8</ele>
        <time>2024-06-09T14:08:59Z</time>
      </trkpt>
      <trkpt lat="48.2073" lon="6.52765">
        <ele>343.8</ele>
        <time>2024-06-09T14:09:00Z</time>
      </trkpt>
      <trkpt lat="48.20726" lon="6.52752">
        <ele>343.7</ele>
        <time>2024-06-09T14:09:10Z</time>
      </trkpt>
      <trkpt lat="48.2072" lon="6.52742">
        <ele>343.6</ele>
        <time>2024-06-09T14:09:18Z</time>
      </trkpt>
      <trkpt lat="48.20714" lon="6.52731">
        <ele>343.3</ele>
        <time>2024-06-09T14:09:27Z</time>
      </trkpt>
      <trkpt lat="48.20707" lon="6.52722">
        <ele>343.1</ele>
        <time>2024-06-09T14:09:36Z</time>
      </trkpt>
      <trkpt lat="48.20701" lon="6.52712">
        <ele>342.9</ele>
        <time>2024-06-09T14:09:45Z</time>
      </trkpt>
      <trkpt lat="48.20701" lon="6.52712">
        <ele>342.9</ele>
        <time>2024-06-09T14:09:49Z</time>
      </trkpt>
      <trkpt lat="48.20701" lon="6.52712">
        <ele>342.9</ele>
        <time>2024-06-09T14:09:50Z</time>
      </trkpt>
      <trkpt lat="48.20701" lon="6.52712">
        <ele>342.9</ele>
        <time>2024-06-09T14:09:51Z</time>
      </trkpt>
      <trkpt lat="48.20701" lon="6.52711">
        <ele>342.9</ele>
        <time>2024-06-09T14:09:52Z</time>
      </trkpt>
      <trkpt lat="48.20701" lon="6.52709">
        <ele>342.8</ele>
        <time>2024-06-09T14:09:53Z</time>
      </trkpt>
      <trkpt lat="48.20698" lon="6.52704">
        <ele>342.8</ele>
        <time>2024-06-09T14:09:59Z</time>
      </trkpt>
      <trkpt lat="48.20698" lon="6.52704">
        <ele>342.8</ele>
        <time>2024-06-09T14:10:00Z</time>
      </trkpt>
      <trkpt lat="48.20698" lon="6.52702">
        <ele>342.8</ele>
        <time>2024-06-09T14:10:04Z</time>
      </trkpt>
      <trkpt lat="48.20697" lon="6.52702">
        <ele>342.7</ele>
        <time>2024-06-09T14:10:05Z</time>
      </trkpt>
      <trkpt lat="48.20697" lon="6.52701">
        <ele>342.7</ele>
        <time>2024-06-09T14:10:06Z</time>
      </trkpt>
      <trkpt lat="48.20692" lon="6.5269">
        <ele>342.6</ele>
        <time>2024-06-09T14:10:15Z</time>
      </trkpt>
      <trkpt lat="48.20685" lon="6.5268">
        <ele>342.5</ele>
        <time>2024-06-09T14:10:23Z</time>
      </trkpt>
      <trkpt lat="48.2068" lon="6.52669">
        <ele>342.4</ele>
        <time>2024-06-09T14:10:34Z</time>
      </trkpt>
      <trkpt lat="48.20676" lon="6.52656">
        <ele>342.1</ele>
        <time>2024-06-09T14:10:42Z</time>
      </trkpt>
      <trkpt lat="48.20672" lon="6.52644">
        <ele>341.8</ele>
        <time>2024-06-09T14:10:50Z</time>
      </trkpt>
      <trkpt lat="48.20668" lon="6.52631">
        <ele>341.5</ele>
        <time>2024-06-09T14:10:59Z</time>
      </trkpt>
      <trkpt lat="48.20661" lon="6.5262">
        <ele>341.3</ele>
        <time>2024-06-09T14:11:09Z</time>
      </trkpt>
      <trkpt lat="48.2066" lon="6.52619">
        <ele>341.3</ele>
        <time>2024-06-09T14:11:14Z</time>
      </trkpt>
      <trkpt lat="48.2066" lon="6.52619">
        <ele>341.3</ele>
        <time>2024-06-09T14:11:15Z</time>
      </trkpt>
      <trkpt lat="48.2066" lon="6.52619">
        <ele>341.2</ele>
        <time>2024-06-09T14:11:16Z</time>
      </trkpt>
      <trkpt lat="48.2066" lon="6.52618">
        <ele>341.2</ele>
        <time>2024-06-09T14:11:17Z</time>
      </trkpt>
      <trkpt lat="48.20659" lon="6.52617">
        <ele>341.2</ele>
        <time>2024-06-09T14:11:18Z</time>
      </trkpt>
      <trkpt lat="48.20651" lon="6.5261">
        <ele>341.2</ele>
        <time>2024-06-09T14:11:28Z</time>
      </trkpt>
      <trkpt lat="48.20643" lon="6.52601">
        <ele>341.3</ele>
        <time>2024-06-09T14:11:36Z</time>
      </trkpt>
      <trkpt lat="48.20635" lon="6.52596">
        <ele>341.5</ele>
        <time>2024-06-09T14:11:46Z</time>
      </trkpt>
      <trkpt lat="48.20626" lon="6.5259">
        <ele>341.9</ele>
        <time>2024-06-09T14:11:55Z</time>
      </trkpt>
      <trkpt lat="48.20618" lon="6.52584">
        <ele>342.3</ele>
        <time>2024-06-09T14:12:04Z</time>
      </trkpt>
      <trkpt lat="48.20609" lon="6.52579">
        <ele>342.6</ele>
        <time>2024-06-09T14:12:13Z</time>
      </trkpt>
      <trkpt lat="48.206" lon="6.52573">
        <ele>342.9</ele>
        <time>2024-06-09T14:12:22Z</time>
      </trkpt>
      <trkpt lat="48.20592" lon="6.52567">
        <ele>343.1</ele>
        <time>2024-06-09T14:12:31Z</time>
      </trkpt>
      <trkpt lat="48.20584" lon="6.52559">
        <ele>343.3</ele>
        <time>2024-06-09T14:12:40Z</time>
      </trkpt>
      <trkpt lat="48.20576" lon="6.52551">
        <ele>343.6</ele>
        <time>2024-06-09T14:12:49Z</time>
      </trkpt>
      <trkpt lat="48.20569" lon="6.52543">
        <ele>343.7</ele>
        <time>2024-06-09T14:12:58Z</time>
      </trkpt>
      <trkpt lat="48.20562" lon="6.52533">
        <ele>343.8</ele>
        <time>2024-06-09T14:13:08Z</time>
      </trkpt>
      <trkpt lat="48.20554" lon="6.52523">
        <ele>343.9</ele>
        <time>2024-06-09T14:13:18Z</time>
      </trkpt>
      <trkpt lat="48.20548" lon="6.52513">
        <ele>344</ele>
        <time>2024-06-09T14:13:27Z</time>
      </trkpt>
      <trkpt lat="48.20546" lon="6.52509">
        <ele>344</ele>
        <time>2024-06-09T14:13:34Z</time>
      </trkpt>
      <trkpt lat="48.20546" lon="6.52509">
        <ele>344</ele>
        <time>2024-06-09T14:13:35Z</time>
      </trkpt>
      <trkpt lat="48.20546" lon="6.52508">
        <ele>344</ele>
        <time>2024-06-09T14:13:38Z</time>
      </trkpt>
      <trkpt lat="48.20546" lon="6.52508">
        <ele>344</ele>
        <time>2024-06-09T14:13:39Z</time>
      </trkpt>
      <trkpt lat="48.20546" lon="6.52508">
        <ele>344</ele>
        <time>2024-06-09T14:13:40Z</time>
      </trkpt>
      <trkpt lat="48.20545" lon="6.52508">
        <ele>344</ele>
        <time>2024-06-09T14:13:44Z</time>
      </trkpt>
      <trkpt lat="48.20545" lon="6.52508">
        <ele>344</ele>
        <time>2024-06-09T14:13:45Z</time>
      </trkpt>
      <trkpt lat="48.20545" lon="6.52507">
        <ele>344</ele>
        <time>2024-06-09T14:13:48Z</time>
      </trkpt>
      <trkpt lat="48.20546" lon="6.52507">
        <ele>344</ele>
        <time>2024-06-09T14:13:49Z</time>
      </trkpt>
      <trkpt lat="48.20546" lon="6.52507">
        <ele>344</ele>
        <time>2024-06-09T14:13:50Z</time>
      </trkpt>
      <trkpt lat="48.20539" lon="6.52496">
        <ele>344</ele>
        <time>2024-06-09T14:14:02Z</time>
      </trkpt>
      <trkpt lat="48.2054" lon="6.52496">
        <ele>344</ele>
        <time>2024-06-09T14:14:04Z</time>
      </trkpt>
      <trkpt lat="48.2054" lon="6.52496">
        <ele>344</ele>
        <time>2024-06-09T14:14:05Z</time>
      </trkpt>
      <trkpt lat="48.2054" lon="6.52496">
        <ele>344</ele>
        <time>2024-06-09T14:14:06Z</time>
      </trkpt>
      <trkpt lat="48.20539" lon="6.52495">
        <ele>344</ele>
        <time>2024-06-09T14:14:07Z</time>
      </trkpt>
      <trkpt lat="48.20539" lon="6.52493">
        <ele>344</ele>
        <time>2024-06-09T14:14:08Z</time>
      </trkpt>
      <trkpt lat="48.20536" lon="6.52486">
        <ele>343.9</ele>
        <time>2024-06-09T14:14:19Z</time>
      </trkpt>
      <trkpt lat="48.20536" lon="6.52486">
        <ele>343.9</ele>
        <time>2024-06-09T14:14:20Z</time>
      </trkpt>
      <trkpt lat="48.20536" lon="6.52484">
        <ele>343.9</ele>
        <time>2024-06-09T14:14:26Z</time>
      </trkpt>
      <trkpt lat="48.20535" lon="6.52483">
        <ele>343.9</ele>
        <time>2024-06-09T14:14:27Z</time>
      </trkpt>
      <trkpt lat="48.2053" lon="6.52471">
        <ele>343.9</ele>
        <time>2024-06-09T14:14:35Z</time>
      </trkpt>
      <trkpt lat="48.20526" lon="6.52459">
        <ele>343.9</ele>
        <time>2024-06-09T14:14:44Z</time>
      </trkpt>
      <trkpt lat="48.20521" lon="6.52447">
        <ele>343.8</ele>
        <time>2024-06-09T14:14:54Z</time>
      </trkpt>
      <trkpt lat="48.20517" lon="6.52435">
        <ele>343.7</ele>
        <time>2024-06-09T14:15:03Z</time>
      </trkpt>
      <trkpt lat="48.20511" lon="6.52423">
        <ele>343.4</ele>
        <time>2024-06-09T14:15:13Z</time>
      </trkpt>
      <trkpt lat="48.20506" lon="6.52412">
        <ele>343.1</ele>
        <time>2024-06-09T14:15:23Z</time>
      </trkpt>
      <trkpt lat="48.20502" lon="6.52404">
        <ele>342.9</ele>
        <time>2024-06-09T14:15:34Z</time>
      </trkpt>
      <trkpt lat="48.20502" lon="6.52404">
        <ele>342.9</ele>
        <time>2024-06-09T14:15:35Z</time>
      </trkpt>
      <trkpt lat="48.20502" lon="6.52402">
        <ele>342.9</ele>
        <time>2024-06-09T14:15:43Z</time>
      </trkpt>
      <trkpt lat="48.20502" lon="6.52401">
        <ele>342.9</ele>
        <time>2024-06-09T14:15:44Z</time>
      </trkpt>
      <trkpt lat="48.20501" lon="6.52399">
        <ele>342.9</ele>
        <time>2024-06-09T14:15:45Z</time>
      </trkpt>
      <trkpt lat="48.20497" lon="6.52387">
        <ele>342.6</ele>
        <time>2024-06-09T14:15:54Z</time>
      </trkpt>
      <trkpt lat="48.20492" lon="6.52375">
        <ele>342.4</ele>
        <time>2024-06-09T14:16:03Z</time>
      </trkpt>
      <trkpt lat="48.20488" lon="6.52361">
        <ele>342.2</ele>
        <time>2024-06-09T14:16:12Z</time>
      </trkpt>
      <trkpt lat="48.20485" lon="6.52347">
        <ele>341.9</ele>
        <time>2024-06-09T14:16:21Z</time>
      </trkpt>
      <trkpt lat="48.20482" lon="6.52334">
        <ele>341.7</ele>
        <time>2024-06-09T14:16:30Z</time>
      </trkpt>
      <trkpt lat="48.20478" lon="6.5232">
        <ele>341.4</ele>
        <time>2024-06-09T14:16:39Z</time>
      </trkpt>
      <trkpt lat="48.20475" lon="6.52306">
        <ele>341.3</ele>
        <time>2024-06-09T14:16:48Z</time>
      </trkpt>
      <trkpt lat="48.20472" lon="6.52293">
        <ele>341.2</ele>
        <time>2024-06-09T14:16:57Z</time>
      </trkpt>
      <trkpt lat="48.20468" lon="6.5228">
        <ele>341.1</ele>
        <time>2024-06-09T14:17:05Z</time>
      </trkpt>
      <trkpt lat="48.20464" lon="6.52268">
        <ele>341.1</ele>
        <time>2024-06-09T14:17:13Z</time>
      </trkpt>
      <trkpt lat="48.2046" lon="6.52256">
        <ele>341.2</ele>
        <time>2024-06-09T14:17:21Z</time>
      </trkpt>
      <trkpt lat="48.20455" lon="6.52246">
        <ele>341.4</ele>
        <time>2024-06-09T14:17:34Z</time>
      </trkpt>
      <trkpt lat="48.20455" lon="6.52246">
        <ele>341.4</ele>
        <time>2024-06-09T14:17:35Z</time>
      </trkpt>
      <trkpt lat="48.20455" lon="6.52246">
        <ele>341.4</ele>
        <time>2024-06-09T14:17:36Z</time>
      </trkpt>
      <trkpt lat="48.20455" lon="6.52246">
        <ele>341.4</ele>
        <time>2024-06-09T14:17:37Z</time>
      </trkpt>
      <trkpt lat="48.20454" lon="6.52244">
        <ele>341.5</ele>
        <time>2024-06-09T14:17:51Z</time>
      </trkpt>
      <trkpt lat="48.20454" lon="6.52244">
        <ele>341.5</ele>
        <time>2024-06-09T14:17:52Z</time>
      </trkpt>
      <trkpt lat="48.20454" lon="6.52244">
        <ele>341.5</ele>
        <time>2024-06-09T14:17:53Z</time>
      </trkpt>
      <trkpt lat="48.20454" lon="6.52244">
        <ele>341.5</ele>
        <time>2024-06-09T14:17:54Z</time>
      </trkpt>
      <trkpt lat="48.20454" lon="6.52244">
        <ele>341.5</ele>
        <time>2024-06-09T14:17:55Z</time>
      </trkpt>
      <trkpt lat="48.20448" lon="6.52233">
        <ele>341.7</ele>
        <time>2024-06-09T14:18:05Z</time>
      </trkpt>
      <trkpt lat="48.2044" lon="6.52224">
        <ele>342</ele>
        <time>2024-06-09T14:18:13Z</time>
      </trkpt>
      <trkpt lat="48.20432" lon="6.52215">
        <ele>342.1</ele>
        <time>2024-06-09T14:18:21Z</time>
      </trkpt>
      <trkpt lat="48.20424" lon="6.52206">
        <ele>342.1</ele>
        <time>2024-06-09T14:18:29Z</time>
      </trkpt>
      <trkpt lat="48.20417" lon="6.52196">
        <ele>342</ele>
        <time>2024-06-09T14:18:38Z</time>
      </trkpt>
      <trkpt lat="48.20411" lon="6.52186">
        <ele>341.9</ele>
        <time>2024-06-09T14:18:47Z</time>
      </trkpt>
      <trkpt lat="48.20404" lon="6.52176">
        <ele>341.9</ele>
        <time>2024-06-09T14:18:56Z</time>
      </trkpt>
      <trkpt lat="48.20397" lon="6.52166">
        <ele>341.9</ele>
        <time>2024-06-09T14:19:04Z</time>
      </trkpt>
      <trkpt lat="48.2039" lon="6.52157">
        <ele>342.1</ele>
        <time>2024-06-09T14:19:12Z</time>
      </trkpt>
      <trkpt lat="48.20383" lon="6.52148">
        <ele>342.2</ele>
        <time>2024-06-09T14:19:20Z</time>
      </trkpt>
      <trkpt lat="48.20376" lon="6.52139">
        <ele>342.2</ele>
        <time>2024-06-09T14:19:28Z</time>
      </trkpt>
      <trkpt lat="48.20369" lon="6.52129">
        <ele>342.1</ele>
        <time>2024-06-09T14:19:36Z</time>
      </trkpt>
      <trkpt lat="48.20364" lon="6.52117">
        <ele>341.9</ele>
        <time>2024-06-09T14:19:45Z</time>
      </trkpt>
      <trkpt lat="48.20358" lon="6.52105">
        <ele>341.7</ele>
        <time>2024-06-09T14:19:54Z</time>
      </trkpt>
      <trkpt lat="48.20353" lon="6.52093">
        <ele>341.6</ele>
        <time>2024-06-09T14:20:03Z</time>
      </trkpt>
      <trkpt lat="48.20353" lon="6.52092">
        <ele>341.6</ele>
        <time>2024-06-09T14:20:07Z</time>
      </trkpt>
      <trkpt lat="48.20353" lon="6.52092">
        <ele>341.6</ele>
        <time>2024-06-09T14:20:08Z</time>
      </trkpt>
      <trkpt lat="48.20352" lon="6.52089">
        <ele>341.5</ele>
        <time>2024-06-09T14:20:19Z</time>
      </trkpt>
      <trkpt lat="48.20351" lon="6.52087">
        <ele>341.5</ele>
        <time>2024-06-09T14:20:20Z</time>
      </trkpt>
      <trkpt lat="48.2035" lon="6.52085">
        <ele>341.5</ele>
        <time>2024-06-09T14:20:21Z</time>
      </trkpt>
      <trkpt lat="48.20345" lon="6.52073">
        <ele>341.3</ele>
        <time>2024-06-09T14:20:28Z</time>
      </trkpt>
      <trkpt lat="48.2034" lon="6.52061">
        <ele>341.2</ele>
        <time>2024-06-09T14:20:35Z</time>
      </trkpt>
      <trkpt lat="48.20335" lon="6.52048">
        <ele>341.1</ele>
        <time>2024-06-09T14:20:43Z</time>
      </trkpt>
      <trkpt lat="48.20332" lon="6.52035">
        <ele>341.1</ele>
        <time>2024-06-09T14:20:51Z</time>
      </trkpt>
      <trkpt lat="48.20328" lon="6.52022">
        <ele>340.9</ele>
        <time>2024-06-09T14:20:59Z</time>
      </trkpt>
      <trkpt lat="48.20327" lon="6.52008">
        <ele>340.8</ele>
        <time>2024-06-09T14:21:07Z</time>
      </trkpt>
      <trkpt lat="48.20324" lon="6.51995">
        <ele>340.7</ele>
        <time>2024-06-09T14:21:15Z</time>
      </trkpt>
      <trkpt lat="48.20321" lon="6.51981">
        <ele>340.5</ele>
        <time>2024-06-09T14:21:23Z</time>
      </trkpt>
      <trkpt lat="48.20317" lon="6.51968">
        <ele>340.3</ele>
        <time>2024-06-09T14:21:31Z</time>
      </trkpt>
      <trkpt lat="48.20315" lon="6.51954">
        <ele>340</ele>
        <time>2024-06-09T14:21:39Z</time>
      </trkpt>
      <trkpt lat="48.20312" lon="6.51941">
        <ele>339.7</ele>
        <time>2024-06-09T14:21:47Z</time>
      </trkpt>
      <trkpt lat="48.20309" lon="6.51928">
        <ele>339.3</ele>
        <time>2024-06-09T14:21:55Z</time>
      </trkpt>
      <trkpt lat="48.20305" lon="6.51914">
        <ele>339</ele>
        <time>2024-06-09T14:22:03Z</time>
      </trkpt>
      <trkpt lat="48.20302" lon="6.51901">
        <ele>338.6</ele>
        <time>2024-06-09T14:22:11Z</time>
      </trkpt>
      <trkpt lat="48.20299" lon="6.51888">
        <ele>338.3</ele>
        <time>2024-06-09T14:22:19Z</time>
      </trkpt>
      <trkpt lat="48.20299" lon="6.51884">
        <ele>338.2</ele>
        <time>2024-06-09T14:22:26Z</time>
      </trkpt>
      <trkpt lat="48.20299" lon="6.51884">
        <ele>338.2</ele>
        <time>2024-06-09T14:22:27Z</time>
      </trkpt>
      <trkpt lat="48.20299" lon="6.51884">
        <ele>338.2</ele>
        <time>2024-06-09T14:22:28Z</time>
      </trkpt>
      <trkpt lat="48.20299" lon="6.51884">
        <ele>338.2</ele>
        <time>2024-06-09T14:23:14Z</time>
      </trkpt>
      <trkpt lat="48.20299" lon="6.51883">
        <ele>338.2</ele>
        <time>2024-06-09T14:23:15Z</time>
      </trkpt>
      <trkpt lat="48.20299" lon="6.51881">
        <ele>338.2</ele>
        <time>2024-06-09T14:23:16Z</time>
      </trkpt>
      <trkpt lat="48.20297" lon="6.51874">
        <ele>338</ele>
        <time>2024-06-09T14:23:26Z</time>
      </trkpt>
      <trkpt lat="48.20297" lon="6.51874">
        <ele>338</ele>
        <time>2024-06-09T14:23:27Z</time>
      </trkpt>
      <trkpt lat="48.20297" lon="6.51874">
        <ele>338</ele>
        <time>2024-06-09T14:23:28Z</time>
      </trkpt>
      <trkpt lat="48.20297" lon="6.51872">
        <ele>337.9</ele>
        <time>2024-06-09T14:23:32Z</time>
      </trkpt>
      <trkpt lat="48.20297" lon="6.51871">
        <ele>337.9</ele>
        <time>2024-06-09T14:23:33Z</time>
      </trkpt>
      <trkpt lat="48.20295" lon="6.51857">
        <ele>337.5</ele>
        <time>2024-06-09T14:23:43Z</time>
      </trkpt>
      <trkpt lat="48.20292" lon="6.51842">
        <ele>337.1</ele>
        <time>2024-06-09T14:23:52Z</time>
      </trkpt>
      <trkpt lat="48.2029" lon="6.51829">
        <ele>336.7</ele>
        <time>2024-06-09T14:24:00Z</time>
      </trkpt>
      <trkpt lat="48.20288" lon="6.51815">
        <ele>336.2</ele>
        <time>2024-06-09T14:24:08Z</time>
      </trkpt>
      <trkpt lat="48.20285" lon="6.518">
        <ele>335.5</ele>
        <time>2024-06-09T14:24:16Z</time>
      </trkpt>
      <trkpt lat="48.2028" lon="6.51788">
        <ele>334.8</ele>
        <time>2024-06-09T14:24:24Z</time>
      </trkpt>
      <trkpt lat="48.20278" lon="6.51773">
        <ele>334.1</ele>
        <time>2024-06-09T14:24:32Z</time>
      </trkpt>
      <trkpt lat="48.20274" lon="6.51761">
        <ele>333.6</ele>
        <time>2024-06-09T14:24:40Z</time>
      </trkpt>
      <trkpt lat="48.20271" lon="6.51747">
        <ele>333.1</ele>
        <time>2024-06-09T14:24:48Z</time>
      </trkpt>
      <trkpt lat="48.20269" lon="6.51733">
        <ele>332.6</ele>
        <time>2024-06-09T14:24:56Z</time>
      </trkpt>
      <trkpt lat="48.20267" lon="6.5172">
        <ele>332.3</ele>
        <time>2024-06-09T14:25:04Z</time>
      </trkpt>
      <trkpt lat="48.20265" lon="6.51706">
        <ele>332</ele>
        <time>2024-06-09T14:25:12Z</time>
      </trkpt>
      <trkpt lat="48.20265" lon="6.51692">
        <ele>331.7</ele>
        <time>2024-06-09T14:25:20Z</time>
      </trkpt>
      <trkpt lat="48.20265" lon="6.51678">
        <ele>331.5</ele>
        <time>2024-06-09T14:25:28Z</time>
      </trkpt>
      <trkpt lat="48.20265" lon="6.51665">
        <ele>331.3</ele>
        <time>2024-06-09T14:25:36Z</time>
      </trkpt>
      <trkpt lat="48.20266" lon="6.5165">
        <ele>331.1</ele>
        <time>2024-06-09T14:25:44Z</time>
      </trkpt>
      <trkpt lat="48.20269" lon="6.51636">
        <ele>331</ele>
        <time>2024-06-09T14:25:53Z</time>
      </trkpt>
      <trkpt lat="48.2027" lon="6.51622">
        <ele>330.9</ele>
        <time>2024-06-09T14:26:01Z</time>
      </trkpt>
      <trkpt lat="48.2027" lon="6.51608">
        <ele>330.9</ele>
        <time>2024-06-09T14:26:09Z</time>
      </trkpt>
      <trkpt lat="48.2027" lon="6.51593">
        <ele>330.9</ele>
        <time>2024-06-09T14:26:17Z</time>
      </trkpt>
      <trkpt lat="48.20272" lon="6.51579">
        <ele>331</ele>
        <time>2024-06-09T14:26:25Z</time>
      </trkpt>
      <trkpt lat="48.20271" lon="6.51565">
        <ele>331.1</ele>
        <time>2024-06-09T14:26:33Z</time>
      </trkpt>
      <trkpt lat="48.20271" lon="6.51551">
        <ele>331.3</ele>
        <time>2024-06-09T14:26:41Z</time>
      </trkpt>
      <trkpt lat="48.20268" lon="6.51538">
        <ele>331.5</ele>
        <time>2024-06-09T14:26:49Z</time>
      </trkpt>
      <trkpt lat="48.20262" lon="6.51526">
        <ele>331.7</ele>
        <time>2024-06-09T14:26:57Z</time>
      </trkpt>
      <trkpt lat="48.20253" lon="6.51523">
        <ele>331.7</ele>
        <time>2024-06-09T14:27:04Z</time>
      </trkpt>
      <trkpt lat="48.20244" lon="6.51521">
        <ele>331.8</ele>
        <time>2024-06-09T14:27:11Z</time>
      </trkpt>
      <trkpt lat="48.20235" lon="6.51519">
        <ele>332</ele>
        <time>2024-06-09T14:27:18Z</time>
      </trkpt>
      <trkpt lat="48.20225" lon="6.51518">
        <ele>332.1</ele>
        <time>2024-06-09T14:27:26Z</time>
      </trkpt>
      <trkpt lat="48.20216" lon="6.51517">
        <ele>332.2</ele>
        <time>2024-06-09T14:27:34Z</time>
      </trkpt>
      <trkpt lat="48.20206" lon="6.51518">
        <ele>332.5</ele>
        <time>2024-06-09T14:27:42Z</time>
      </trkpt>
      <trkpt lat="48.20196" lon="6.51519">
        <ele>333</ele>
        <time>2024-06-09T14:27:50Z</time>
      </trkpt>
      <trkpt lat="48.20186" lon="6.51522">
        <ele>333.6</ele>
        <time>2024-06-09T14:27:58Z</time>
      </trkpt>
      <trkpt lat="48.20176" lon="6.51524">
        <ele>334.2</ele>
        <time>2024-06-09T14:28:06Z</time>
      </trkpt>
      <trkpt lat="48.20166" lon="6.51527">
        <ele>334.7</ele>
        <time>2024-06-09T14:28:14Z</time>
      </trkpt>
      <trkpt lat="48.20157" lon="6.51531">
        <ele>335.3</ele>
        <time>2024-06-09T14:28:22Z</time>
      </trkpt>
      <trkpt lat="48.20149" lon="6.51541">
        <ele>335.5</ele>
        <time>2024-06-09T14:28:30Z</time>
      </trkpt>
      <trkpt lat="48.20142" lon="6.5155">
        <ele>335.6</ele>
        <time>2024-06-09T14:28:38Z</time>
      </trkpt>
      <trkpt lat="48.20134" lon="6.51558">
        <ele>335.8</ele>
        <time>2024-06-09T14:28:46Z</time>
      </trkpt>
      <trkpt lat="48.20125" lon="6.51565">
        <ele>335.9</ele>
        <time>2024-06-09T14:28:54Z</time>
      </trkpt>
      <trkpt lat="48.20117" lon="6.51572">
        <ele>336.1</ele>
        <time>2024-06-09T14:29:03Z</time>
      </trkpt>
      <trkpt lat="48.20108" lon="6.51576">
        <ele>336.4</ele>
        <time>2024-06-09T14:29:11Z</time>
      </trkpt>
      <trkpt lat="48.20098" lon="6.51578">
        <ele>336.7</ele>
        <time>2024-06-09T14:29:19Z</time>
      </trkpt>
      <trkpt lat="48.20088" lon="6.51581">
        <ele>337.1</ele>
        <time>2024-06-09T14:29:27Z</time>
      </trkpt>
      <trkpt lat="48.20079" lon="6.51582">
        <ele>337.4</ele>
        <time>2024-06-09T14:29:35Z</time>
      </trkpt>
      <trkpt lat="48.20069" lon="6.51584">
        <ele>337.8</ele>
        <time>2024-06-09T14:29:43Z</time>
      </trkpt>
      <trkpt lat="48.2006" lon="6.51588">
        <ele>338.2</ele>
        <time>2024-06-09T14:29:52Z</time>
      </trkpt>
      <trkpt lat="48.2005" lon="6.51584">
        <ele>338.9</ele>
        <time>2024-06-09T14:30:00Z</time>
      </trkpt>
      <trkpt lat="48.20042" lon="6.51581">
        <ele>339.7</ele>
        <time>2024-06-09T14:30:07Z</time>
      </trkpt>
      <trkpt lat="48.20032" lon="6.51577">
        <ele>340.5</ele>
        <time>2024-06-09T14:30:15Z</time>
      </trkpt>
      <trkpt lat="48.20023" lon="6.51573">
        <ele>341.3</ele>
        <time>2024-06-09T14:30:23Z</time>
      </trkpt>
      <trkpt lat="48.20013" lon="6.51571">
        <ele>342.1</ele>
        <time>2024-06-09T14:30:32Z</time>
      </trkpt>
      <trkpt lat="48.20003" lon="6.51572">
        <ele>342.8</ele>
        <time>2024-06-09T14:30:40Z</time>
      </trkpt>
      <trkpt lat="48.19994" lon="6.51567">
        <ele>343.6</ele>
        <time>2024-06-09T14:30:47Z</time>
      </trkpt>
      <trkpt lat="48.19985" lon="6.51563">
        <ele>344.3</ele>
        <time>2024-06-09T14:30:55Z</time>
      </trkpt>
      <trkpt lat="48.19976" lon="6.51563">
        <ele>344.7</ele>
        <time>2024-06-09T14:31:04Z</time>
      </trkpt>
      <trkpt lat="48.19968" lon="6.51557">
        <ele>344.9</ele>
        <time>2024-06-09T14:31:11Z</time>
      </trkpt>
      <trkpt lat="48.19963" lon="6.51543">
        <ele>345.1</ele>
        <time>2024-06-09T14:31:19Z</time>
      </trkpt>
      <trkpt lat="48.19963" lon="6.51539">
        <ele>345.1</ele>
        <time>2024-06-09T14:31:24Z</time>
      </trkpt>
      <trkpt lat="48.19963" lon="6.51539">
        <ele>345.1</ele>
        <time>2024-06-09T14:31:25Z</time>
      </trkpt>
      <trkpt lat="48.19962" lon="6.51537">
        <ele>345.1</ele>
        <time>2024-06-09T14:31:31Z</time>
      </trkpt>
      <trkpt lat="48.19962" lon="6.51537">
        <ele>345.2</ele>
        <time>2024-06-09T14:31:32Z</time>
      </trkpt>
      <trkpt lat="48.19952" lon="6.51533">
        <ele>345.3</ele>
        <time>2024-06-09T14:31:40Z</time>
      </trkpt>
      <trkpt lat="48.19943" lon="6.51528">
        <ele>345.5</ele>
        <time>2024-06-09T14:31:48Z</time>
      </trkpt>
      <trkpt lat="48.19933" lon="6.51524">
        <ele>345.7</ele>
        <time>2024-06-09T14:31:56Z</time>
      </trkpt>
      <trkpt lat="48.19929" lon="6.51523">
        <ele>345.8</ele>
        <time>2024-06-09T14:32:04Z</time>
      </trkpt>
      <trkpt lat="48.19929" lon="6.51523">
        <ele>345.8</ele>
        <time>2024-06-09T14:32:05Z</time>
      </trkpt>
      <trkpt lat="48.19927" lon="6.51522">
        <ele>345.9</ele>
        <time>2024-06-09T14:32:47Z</time>
      </trkpt>
      <trkpt lat="48.19926" lon="6.51521">
        <ele>345.9</ele>
        <time>2024-06-09T14:32:48Z</time>
      </trkpt>
      <trkpt lat="48.19917" lon="6.51517">
        <ele>346.2</ele>
        <time>2024-06-09T14:32:55Z</time>
      </trkpt>
      <trkpt lat="48.19908" lon="6.51515">
        <ele>346.6</ele>
        <time>2024-06-09T14:33:03Z</time>
      </trkpt>
      <trkpt lat="48.19899" lon="6.51512">
        <ele>347</ele>
        <time>2024-06-09T14:33:11Z</time>
      </trkpt>
      <trkpt lat="48.1989" lon="6.51509">
        <ele>347.2</ele>
        <time>2024-06-09T14:33:19Z</time>
      </trkpt>
      <trkpt lat="48.19881" lon="6.51507">
        <ele>347.5</ele>
        <time>2024-06-09T14:33:27Z</time>
      </trkpt>
      <trkpt lat="48.19872" lon="6.51507">
        <ele>348.2</ele>
        <time>2024-06-09T14:33:35Z</time>
      </trkpt>
      <trkpt lat="48.19863" lon="6.51507">
        <ele>348.9</ele>
        <time>2024-06-09T14:33:43Z</time>
      </trkpt>
      <trkpt lat="48.19853" lon="6.51506">
        <ele>349.8</ele>
        <time>2024-06-09T14:33:51Z</time>
      </trkpt>
      <trkpt lat="48.19843" lon="6.51505">
        <ele>350.7</ele>
        <time>2024-06-09T14:33:59Z</time>
      </trkpt>
      <trkpt lat="48.19834" lon="6.51508">
        <ele>351.5</ele>
        <time>2024-06-09T14:34:06Z</time>
      </trkpt>
      <trkpt lat="48.19825" lon="6.51509">
        <ele>352.2</ele>
        <time>2024-06-09T14:34:13Z</time>
      </trkpt>
      <trkpt lat="48.19815" lon="6.51509">
        <ele>353</ele>
        <time>2024-06-09T14:34:20Z</time>
      </trkpt>
      <trkpt lat="48.19806" lon="6.5151">
        <ele>353.8</ele>
        <time>2024-06-09T14:34:27Z</time>
      </trkpt>
      <trkpt lat="48.19797" lon="6.51508">
        <ele>354.6</ele>
        <time>2024-06-09T14:34:34Z</time>
      </trkpt>
      <trkpt lat="48.19788" lon="6.51509">
        <ele>355.5</ele>
        <time>2024-06-09T14:34:42Z</time>
      </trkpt>
      <trkpt lat="48.19778" lon="6.51507">
        <ele>356.3</ele>
        <time>2024-06-09T14:34:49Z</time>
      </trkpt>
      <trkpt lat="48.19768" lon="6.51507">
        <ele>357.1</ele>
        <time>2024-06-09T14:34:57Z</time>
      </trkpt>
      <trkpt lat="48.19758" lon="6.51507">
        <ele>357.9</ele>
        <time>2024-06-09T14:35:05Z</time>
      </trkpt>
      <trkpt lat="48.19748" lon="6.51508">
        <ele>358.7</ele>
        <time>2024-06-09T14:35:13Z</time>
      </trkpt>
      <trkpt lat="48.19739" lon="6.51508">
        <ele>359.4</ele>
        <time>2024-06-09T14:35:20Z</time>
      </trkpt>
      <trkpt lat="48.1973" lon="6.51508">
        <ele>360.1</ele>
        <time>2024-06-09T14:35:28Z</time>
      </trkpt>
      <trkpt lat="48.1972" lon="6.51508">
        <ele>360.7</ele>
        <time>2024-06-09T14:35:36Z</time>
      </trkpt>
      <trkpt lat="48.19711" lon="6.51509">
        <ele>361.3</ele>
        <time>2024-06-09T14:35:44Z</time>
      </trkpt>
      <trkpt lat="48.19701" lon="6.51508">
        <ele>362</ele>
        <time>2024-06-09T14:35:52Z</time>
      </trkpt>
      <trkpt lat="48.19692" lon="6.5151">
        <ele>362.7</ele>
        <time>2024-06-09T14:36:01Z</time>
      </trkpt>
      <trkpt lat="48.19683" lon="6.5151">
        <ele>363.3</ele>
        <time>2024-06-09T14:36:09Z</time>
      </trkpt>
      <trkpt lat="48.19674" lon="6.51511">
        <ele>363.9</ele>
        <time>2024-06-09T14:36:17Z</time>
      </trkpt>
      <trkpt lat="48.19664" lon="6.5151">
        <ele>364.4</ele>
        <time>2024-06-09T14:36:25Z</time>
      </trkpt>
      <trkpt lat="48.19654" lon="6.5151">
        <ele>364.9</ele>
        <time>2024-06-09T14:36:33Z</time>
      </trkpt>
      <trkpt lat="48.19644" lon="6.5151">
        <ele>365.4</ele>
        <time>2024-06-09T14:36:41Z</time>
      </trkpt>
      <trkpt lat="48.19635" lon="6.51503">
        <ele>365.8</ele>
        <time>2024-06-09T14:36:49Z</time>
      </trkpt>
      <trkpt lat="48.19626" lon="6.51501">
        <ele>366.1</ele>
        <time>2024-06-09T14:36:56Z</time>
      </trkpt>
      <trkpt lat="48.19617" lon="6.51502">
        <ele>366.3</ele>
        <time>2024-06-09T14:37:03Z</time>
      </trkpt>
      <trkpt lat="48.19608" lon="6.515">
        <ele>366.6</ele>
        <time>2024-06-09T14:37:10Z</time>
      </trkpt>
      <trkpt lat="48.19598" lon="6.51498">
        <ele>366.8</ele>
        <time>2024-06-09T14:37:17Z</time>
      </trkpt>
      <trkpt lat="48.19588" lon="6.51496">
        <ele>367.1</ele>
        <time>2024-06-09T14:37:25Z</time>
      </trkpt>
      <trkpt lat="48.19579" lon="6.51497">
        <ele>367.3</ele>
        <time>2024-06-09T14:37:33Z</time>
      </trkpt>
      <trkpt lat="48.19569" lon="6.51501">
        <ele>367.5</ele>
        <time>2024-06-09T14:37:42Z</time>
      </trkpt>
      <trkpt lat="48.19559" lon="6.51499">
        <ele>367.7</ele>
        <time>2024-06-09T14:37:50Z</time>
      </trkpt>
      <trkpt lat="48.19549" lon="6.51499">
        <ele>367.9</ele>
        <time>2024-06-09T14:37:58Z</time>
      </trkpt>
      <trkpt lat="48.1954" lon="6.51498">
        <ele>368</ele>
        <time>2024-06-09T14:38:05Z</time>
      </trkpt>
      <trkpt lat="48.1953" lon="6.515">
        <ele>368.2</ele>
        <time>2024-06-09T14:38:13Z</time>
      </trkpt>
      <trkpt lat="48.19521" lon="6.51501">
        <ele>368.3</ele>
        <time>2024-06-09T14:38:21Z</time>
      </trkpt>
      <trkpt lat="48.19511" lon="6.51502">
        <ele>368.4</ele>
        <time>2024-06-09T14:38:29Z</time>
      </trkpt>
      <trkpt lat="48.19502" lon="6.51504">
        <ele>368.5</ele>
        <time>2024-06-09T14:38:36Z</time>
      </trkpt>
      <trkpt lat="48.19493" lon="6.51504">
        <ele>368.6</ele>
        <time>2024-06-09T14:38:44Z</time>
      </trkpt>
      <trkpt lat="48.19484" lon="6.51501">
        <ele>368.7</ele>
        <time>2024-06-09T14:38:51Z</time>
      </trkpt>
      <trkpt lat="48.19475" lon="6.51501">
        <ele>368.8</ele>
        <time>2024-06-09T14:38:59Z</time>
      </trkpt>
      <trkpt lat="48.19465" lon="6.51499">
        <ele>368.9</ele>
        <time>2024-06-09T14:39:07Z</time>
      </trkpt>
      <trkpt lat="48.19456" lon="6.51497">
        <ele>369</ele>
        <time>2024-06-09T14:39:14Z</time>
      </trkpt>
      <trkpt lat="48.19446" lon="6.51495">
        <ele>369.1</ele>
        <time>2024-06-09T14:39:22Z</time>
      </trkpt>
      <trkpt lat="48.19437" lon="6.51493">
        <ele>369.3</ele>
        <time>2024-06-09T14:39:29Z</time>
      </trkpt>
      <trkpt lat="48.19428" lon="6.51495">
        <ele>369.4</ele>
        <time>2024-06-09T14:39:37Z</time>
      </trkpt>
      <trkpt lat="48.19419" lon="6.51496">
        <ele>369.6</ele>
        <time>2024-06-09T14:39:44Z</time>
      </trkpt>
      <trkpt lat="48.19409" lon="6.51496">
        <ele>369.8</ele>
        <time>2024-06-09T14:39:52Z</time>
      </trkpt>
      <trkpt lat="48.194" lon="6.51497">
        <ele>370</ele>
        <time>2024-06-09T14:39:59Z</time>
      </trkpt>
      <trkpt lat="48.19391" lon="6.51499">
        <ele>370.2</ele>
        <time>2024-06-09T14:40:07Z</time>
      </trkpt>
      <trkpt lat="48.19382" lon="6.51505">
        <ele>370.4</ele>
        <time>2024-06-09T14:40:14Z</time>
      </trkpt>
      <trkpt lat="48.19369" lon="6.51517">
        <ele>370.6</ele>
        <time>2024-06-09T14:40:23Z</time>
      </trkpt>
      <trkpt lat="48.19364" lon="6.51522">
        <ele>370.7</ele>
        <time>2024-06-09T14:40:30Z</time>
      </trkpt>
      <trkpt lat="48.1936" lon="6.51526">
        <ele>370.8</ele>
        <time>2024-06-09T14:40:37Z</time>
      </trkpt>
      <trkpt lat="48.19355" lon="6.5153">
        <ele>370.9</ele>
        <time>2024-06-09T14:40:46Z</time>
      </trkpt>
      <trkpt lat="48.19351" lon="6.51535">
        <ele>371</ele>
        <time>2024-06-09T14:40:55Z</time>
      </trkpt>
      <trkpt lat="48.19346" lon="6.51539">
        <ele>371.1</ele>
        <time>2024-06-09T14:41:00Z</time>
      </trkpt>
      <trkpt lat="48.19341" lon="6.51543">
        <ele>371.2</ele>
        <time>2024-06-09T14:41:00Z</time>
      </trkpt>
      <trkpt lat="48.19337" lon="6.51548">
        <ele>371.3</ele>
        <time>2024-06-09T14:41:00Z</time>
      </trkpt>
    </trkseg>
  </trk>
</gpx>